<?xml version='1.0' encoding='UTF-8'?><gpx version="1.1" creator="JPX - https://github.com/jenetics/jpx" xmlns="http://www.topografix.com/GPX/1/1"><trk><trkseg><trkpt lat="42.6855253177175" lon="2.765402931530334"><ele>69.0</ele><time>2026-03-28T11:56:07Z</time></trkpt><trkpt lat="42.68558877105832" lon="2.765451830976267"><ele>69.0</ele><time>2026-03-28T11:56:09Z</time></trkpt><trkpt lat="42.685647701245045" lon="2.7655102404005643"><ele>69.0</ele><time>2026-03-28T11:56:11Z</time></trkpt><trkpt lat="42.68567115767891" lon="2.765595213432326"><ele>69.0</ele><time>2026-03-28T11:56:13Z</time></trkpt><trkpt lat="42.6856906708153" lon="2.7656815883656765"><ele>69.0</ele><time>2026-03-28T11:56:15Z</time></trkpt><trkpt lat="42.6857149283659" lon="2.765779337521884"><ele>69.0</ele><time>2026-03-28T11:56:17Z</time></trkpt><trkpt lat="42.685746235798156" lon="2.7658957240169273"><ele>69.0</ele><time>2026-03-28T11:56:19Z</time></trkpt><trkpt lat="42.685773033725795" lon="2.7659914724839014"><ele>69.0</ele><time>2026-03-28T11:56:20Z</time></trkpt><trkpt lat="42.685796799623894" lon="2.766080742617111"><ele>69.0</ele><time>2026-03-28T11:56:21Z</time></trkpt><trkpt lat="42.68582507805509" lon="2.7661761755244467"><ele>69.0</ele><time>2026-03-28T11:56:22Z</time></trkpt><trkpt lat="42.685849990757724" lon="2.7662726480269337"><ele>69.0</ele><time>2026-03-28T11:56:23Z</time></trkpt><trkpt lat="42.685875935691534" lon="2.7663844742088233"><ele>69.0</ele><time>2026-03-28T11:56:24Z</time></trkpt><trkpt lat="42.68589682473416" lon="2.7664800165767534"><ele>69.0</ele><time>2026-03-28T11:56:25Z</time></trkpt><trkpt lat="42.685947378227915" lon="2.766575519206628"><ele>69.0</ele><time>2026-03-28T11:56:27Z</time></trkpt><trkpt lat="42.686044991800806" lon="2.76655362048099"><ele>69.0</ele><time>2026-03-28T11:56:29Z</time></trkpt><trkpt lat="42.686131005872475" lon="2.7665282506935602"><ele>69.0</ele><time>2026-03-28T11:56:30Z</time></trkpt><trkpt lat="42.686196170917206" lon="2.766530386956471"><ele>69.0</ele><time>2026-03-28T11:56:31Z</time></trkpt><trkpt lat="42.68625081049329" lon="2.766675290238508"><ele>69.0</ele><time>2026-03-28T11:56:33Z</time></trkpt><trkpt lat="42.68624555914666" lon="2.766816259312699"><ele>68.5</ele><time>2026-03-28T11:56:34Z</time></trkpt><trkpt lat="42.68624077256112" lon="2.766974880432451"><ele>68.0</ele><time>2026-03-28T11:56:35Z</time></trkpt><trkpt lat="42.68624431564429" lon="2.7671457517617237"><ele>67.5</ele><time>2026-03-28T11:56:36Z</time></trkpt><trkpt lat="42.68625069180644" lon="2.7673112678925413"><ele>67.0</ele><time>2026-03-28T11:56:37Z</time></trkpt><trkpt lat="42.68625468126513" lon="2.7674581699095295"><ele>67.0</ele><time>2026-03-28T11:56:38Z</time></trkpt><trkpt lat="42.686254450351186" lon="2.76758664442122"><ele>67.0</ele><time>2026-03-28T11:56:39Z</time></trkpt><trkpt lat="42.686254908670115" lon="2.767707465679338"><ele>67.0</ele><time>2026-03-28T11:56:40Z</time></trkpt><trkpt lat="42.68625977382175" lon="2.767804410983081"><ele>67.0</ele><time>2026-03-28T11:56:41Z</time></trkpt><trkpt lat="42.68624293410644" lon="2.7679206918321677"><ele>67.0</ele><time>2026-03-28T11:56:43Z</time></trkpt><trkpt lat="42.68617019933396" lon="2.767988427615973"><ele>67.0</ele><time>2026-03-28T11:56:45Z</time></trkpt><trkpt lat="42.68611286149205" lon="2.768069423497369"><ele>67.0</ele><time>2026-03-28T11:56:46Z</time></trkpt><trkpt lat="42.686030884459946" lon="2.7681642427282274"><ele>67.0</ele><time>2026-03-28T11:56:47Z</time></trkpt><trkpt lat="42.68592852750549" lon="2.768260261457839"><ele>67.0</ele><time>2026-03-28T11:56:48Z</time></trkpt><trkpt lat="42.68582092067882" lon="2.7683538412948425"><ele>67.0</ele><time>2026-03-28T11:56:49Z</time></trkpt><trkpt lat="42.68572947483532" lon="2.7684442400941"><ele>67.0</ele><time>2026-03-28T11:56:50Z</time></trkpt><trkpt lat="42.68566611168109" lon="2.768524126297678"><ele>67.0</ele><time>2026-03-28T11:56:51Z</time></trkpt><trkpt lat="42.68562242649237" lon="2.768618506581246"><ele>67.0</ele><time>2026-03-28T11:56:52Z</time></trkpt><trkpt lat="42.6855955064767" lon="2.768753347702637"><ele>67.0</ele><time>2026-03-28T11:56:53Z</time></trkpt><trkpt lat="42.68556812325493" lon="2.7688814553812318"><ele>67.0</ele><time>2026-03-28T11:56:54Z</time></trkpt><trkpt lat="42.68551647850683" lon="2.7689546607126094"><ele>67.0</ele><time>2026-03-28T11:56:55Z</time></trkpt><trkpt lat="42.68542932336759" lon="2.769033947464149"><ele>66.5</ele><time>2026-03-28T11:56:56Z</time></trkpt><trkpt lat="42.68530022493138" lon="2.7690983158904956"><ele>66.0</ele><time>2026-03-28T11:56:57Z</time></trkpt><trkpt lat="42.68518792282981" lon="2.7691312442878546"><ele>65.5</ele><time>2026-03-28T11:56:58Z</time></trkpt><trkpt lat="42.685121776524056" lon="2.7691811637837156"><ele>65.0</ele><time>2026-03-28T11:56:59Z</time></trkpt><trkpt lat="42.68506060753423" lon="2.769376789529886"><ele>65.0</ele><time>2026-03-28T11:57:01Z</time></trkpt><trkpt lat="42.68504405987649" lon="2.7695520535692624"><ele>65.0</ele><time>2026-03-28T11:57:02Z</time></trkpt><trkpt lat="42.6850160415201" lon="2.769740915351069"><ele>65.0</ele><time>2026-03-28T11:57:03Z</time></trkpt><trkpt lat="42.684977607604935" lon="2.7699236712795505"><ele>65.0</ele><time>2026-03-28T11:57:04Z</time></trkpt><trkpt lat="42.684946730731944" lon="2.770089627215136"><ele>65.25</ele><time>2026-03-28T11:57:05Z</time></trkpt><trkpt lat="42.68492509022832" lon="2.770246753075302"><ele>65.5</ele><time>2026-03-28T11:57:06Z</time></trkpt><trkpt lat="42.684918911015146" lon="2.7704024758801173"><ele>65.75</ele><time>2026-03-28T11:57:07Z</time></trkpt><trkpt lat="42.68493006441019" lon="2.770573463238598"><ele>66.0</ele><time>2026-03-28T11:57:08Z</time></trkpt><trkpt lat="42.684958842655384" lon="2.7707795914102813"><ele>66.0</ele><time>2026-03-28T11:57:09Z</time></trkpt><trkpt lat="42.684987227971334" lon="2.770981433687919"><ele>66.0</ele><time>2026-03-28T11:57:10Z</time></trkpt><trkpt lat="42.68501429811901" lon="2.7711605458914343"><ele>66.0</ele><time>2026-03-28T11:57:11Z</time></trkpt><trkpt lat="42.685028972094585" lon="2.7713345446758986"><ele>66.0</ele><time>2026-03-28T11:57:12Z</time></trkpt><trkpt lat="42.685029784309016" lon="2.7714950565070304"><ele>66.2</ele><time>2026-03-28T11:57:13Z</time></trkpt><trkpt lat="42.68502857890136" lon="2.7716547424566524"><ele>66.39999999999999</ele><time>2026-03-28T11:57:14Z</time></trkpt><trkpt lat="42.685006571657986" lon="2.771784529565187"><ele>66.6</ele><time>2026-03-28T11:57:15Z</time></trkpt><trkpt lat="42.68496652227136" lon="2.7719051601782523"><ele>66.8</ele><time>2026-03-28T11:57:16Z</time></trkpt><trkpt lat="42.68489580298039" lon="2.7720415602387494"><ele>67.0</ele><time>2026-03-28T11:57:17Z</time></trkpt><trkpt lat="42.684831555519786" lon="2.7721566819476915"><ele>67.2</ele><time>2026-03-28T11:57:18Z</time></trkpt><trkpt lat="42.684792752653244" lon="2.7722474258357717"><ele>67.4</ele><time>2026-03-28T11:57:19Z</time></trkpt><trkpt lat="42.68480097509172" lon="2.7724127217522363"><ele>67.6</ele><time>2026-03-28T11:57:21Z</time></trkpt><trkpt lat="42.68481764897877" lon="2.772509792250608"><ele>67.8</ele><time>2026-03-28T11:57:22Z</time></trkpt><trkpt lat="42.6848541128996" lon="2.7726101657641666"><ele>68.0</ele><time>2026-03-28T11:57:24Z</time></trkpt><trkpt lat="42.68496409879584" lon="2.7726015032032647"><ele>68.0</ele><time>2026-03-28T11:57:27Z</time></trkpt><trkpt lat="42.685030514721205" lon="2.772538748279194"><ele>68.0</ele><time>2026-03-28T11:57:28Z</time></trkpt><trkpt lat="42.685084760577084" lon="2.7724904630396874"><ele>68.0</ele><time>2026-03-28T11:57:29Z</time></trkpt><trkpt lat="42.68518254497323" lon="2.772479871411158"><ele>68.0</ele><time>2026-03-28T11:57:31Z</time></trkpt><trkpt lat="42.685284357240235" lon="2.7724201039890066"><ele>68.0</ele><time>2026-03-28T11:57:33Z</time></trkpt><trkpt lat="42.68534986507767" lon="2.7724676012247276"><ele>68.0</ele><time>2026-03-28T11:57:40Z</time></trkpt><trkpt lat="42.685328792176826" lon="2.7725544178192245"><ele>68.16666666666667</ele><time>2026-03-28T11:57:42Z</time></trkpt><trkpt lat="42.68529222579689" lon="2.7726694061700217"><ele>68.33333333333334</ele><time>2026-03-28T11:57:44Z</time></trkpt><trkpt lat="42.68525407635726" lon="2.772779121356057"><ele>68.5</ele><time>2026-03-28T11:57:46Z</time></trkpt><trkpt lat="42.68519638775437" lon="2.772816547384398"><ele>68.66666666666667</ele><time>2026-03-28T11:57:48Z</time></trkpt><trkpt lat="42.68515181035269" lon="2.772913213240599"><ele>68.83333333333333</ele><time>2026-03-28T11:57:50Z</time></trkpt><trkpt lat="42.68523867917083" lon="2.772944741135822"><ele>69.0</ele><time>2026-03-28T11:57:52Z</time></trkpt><trkpt lat="42.6852900889396" lon="2.77286534639321"><ele>69.0</ele><time>2026-03-28T11:57:53Z</time></trkpt><trkpt lat="42.68532547849719" lon="2.7727663734616423"><ele>69.0</ele><time>2026-03-28T11:57:54Z</time></trkpt><trkpt lat="42.685393138012266" lon="2.772680935907822"><ele>69.0</ele><time>2026-03-28T11:57:56Z</time></trkpt><trkpt lat="42.68552894962844" lon="2.7727555920478433"><ele>69.0</ele><time>2026-03-28T11:57:58Z</time></trkpt><trkpt lat="42.68559669420295" lon="2.7727433648067574"><ele>69.0</ele><time>2026-03-28T11:57:59Z</time></trkpt><trkpt lat="42.68567169325211" lon="2.7726749754030555"><ele>69.0</ele><time>2026-03-28T11:58:00Z</time></trkpt><trkpt lat="42.68574637835061" lon="2.7725909486259472"><ele>69.0</ele><time>2026-03-28T11:58:01Z</time></trkpt><trkpt lat="42.685722052426236" lon="2.772457452018091"><ele>69.0</ele><time>2026-03-28T11:58:03Z</time></trkpt><trkpt lat="42.68564565297472" lon="2.772458146245344"><ele>69.0</ele><time>2026-03-28T11:58:04Z</time></trkpt><trkpt lat="42.68558098927788" lon="2.772450340141804"><ele>69.0</ele><time>2026-03-28T11:58:05Z</time></trkpt><trkpt lat="42.685592405934976" lon="2.7723591287020426"><ele>69.0</ele><time>2026-03-28T11:58:06Z</time></trkpt><trkpt lat="42.68566615589095" lon="2.772317779744192"><ele>69.0</ele><time>2026-03-28T11:58:07Z</time></trkpt><trkpt lat="42.68576233935589" lon="2.7724004892309972"><ele>69.0</ele><time>2026-03-28T11:58:08Z</time></trkpt><trkpt lat="42.685830201595515" lon="2.7724662122858863"><ele>69.0</ele><time>2026-03-28T11:58:09.001Z</time></trkpt><trkpt lat="42.68591459128312" lon="2.7725203296753076"><ele>69.0</ele><time>2026-03-28T11:58:10.001Z</time></trkpt><trkpt lat="42.686003556056654" lon="2.7725284827507517"><ele>69.0</ele><time>2026-03-28T11:58:11.001Z</time></trkpt><trkpt lat="42.68608179928594" lon="2.7724896124630116"><ele>69.0</ele><time>2026-03-28T11:58:12.001Z</time></trkpt><trkpt lat="42.686134700815046" lon="2.772406871334312"><ele>69.0</ele><time>2026-03-28T11:58:13.001Z</time></trkpt><trkpt lat="42.686161388258554" lon="2.7723075568831046"><ele>69.0</ele><time>2026-03-28T11:58:14.001Z</time></trkpt><trkpt lat="42.68614655686704" lon="2.772169254543515"><ele>69.0</ele><time>2026-03-28T11:58:16Z</time></trkpt><trkpt lat="42.68604507532489" lon="2.7721467577923824"><ele>69.0</ele><time>2026-03-28T11:58:17Z</time></trkpt><trkpt lat="42.685944489100784" lon="2.772154895528219"><ele>69.0</ele><time>2026-03-28T11:58:18.001Z</time></trkpt><trkpt lat="42.68585068997749" lon="2.772192208979238"><ele>69.0</ele><time>2026-03-28T11:58:19.001Z</time></trkpt><trkpt lat="42.6857498766218" lon="2.772213963981488"><ele>69.0</ele><time>2026-03-28T11:58:20.001Z</time></trkpt><trkpt lat="42.68563670809669" lon="2.772222463613222"><ele>69.0</ele><time>2026-03-28T11:58:21.001Z</time></trkpt><trkpt lat="42.68554897587646" lon="2.772253838808537"><ele>69.0</ele><time>2026-03-28T11:58:22Z</time></trkpt><trkpt lat="42.68548563695598" lon="2.7723013512197654"><ele>69.0</ele><time>2026-03-28T11:58:23Z</time></trkpt><trkpt lat="42.68542674304538" lon="2.7723437478055257"><ele>69.0</ele><time>2026-03-28T11:58:24Z</time></trkpt><trkpt lat="42.68534895229014" lon="2.772416842363059"><ele>69.0</ele><time>2026-03-28T11:58:26Z</time></trkpt><trkpt lat="42.68531269385222" lon="2.772561218882062"><ele>69.0</ele><time>2026-03-28T11:58:28Z</time></trkpt><trkpt lat="42.68529093519511" lon="2.772701759305074"><ele>69.0</ele><time>2026-03-28T11:58:30Z</time></trkpt><trkpt lat="42.685240296185945" lon="2.772802222628322"><ele>69.0</ele><time>2026-03-28T11:58:32Z</time></trkpt><trkpt lat="42.685163746419846" lon="2.7727790444015614"><ele>69.0</ele><time>2026-03-28T11:58:34Z</time></trkpt><trkpt lat="42.68508060461215" lon="2.7728045041337586"><ele>69.0</ele><time>2026-03-28T11:58:36Z</time></trkpt><trkpt lat="42.68513657693757" lon="2.772931654636237"><ele>69.0</ele><time>2026-03-28T11:58:38Z</time></trkpt><trkpt lat="42.68524912996261" lon="2.7729372088930684"><ele>69.0</ele><time>2026-03-28T11:58:40Z</time></trkpt><trkpt lat="42.68530446502243" lon="2.772865947449638"><ele>69.0</ele><time>2026-03-28T11:58:41Z</time></trkpt><trkpt lat="42.6853412790645" lon="2.77275005896983"><ele>69.0</ele><time>2026-03-28T11:58:42Z</time></trkpt><trkpt lat="42.685376822144846" lon="2.772672242170667"><ele>69.0</ele><time>2026-03-28T11:58:43Z</time></trkpt><trkpt lat="42.68544144467363" lon="2.772690232098366"><ele>69.0</ele><time>2026-03-28T11:58:44Z</time></trkpt><trkpt lat="42.68552215533997" lon="2.772749178688928"><ele>69.0</ele><time>2026-03-28T11:58:45Z</time></trkpt><trkpt lat="42.68559702223" lon="2.772759606579841"><ele>69.0</ele><time>2026-03-28T11:58:46Z</time></trkpt><trkpt lat="42.685674537160224" lon="2.772669621505149"><ele>69.0</ele><time>2026-03-28T11:58:47Z</time></trkpt><trkpt lat="42.685759260024824" lon="2.772562145900847"><ele>69.0</ele><time>2026-03-28T11:58:48Z</time></trkpt><trkpt lat="42.685744192892386" lon="2.7724445679155743"><ele>69.0</ele><time>2026-03-28T11:58:50Z</time></trkpt><trkpt lat="42.68564417810101" lon="2.772445419869636"><ele>69.0</ele><time>2026-03-28T11:58:51Z</time></trkpt><trkpt lat="42.68554952413781" lon="2.772427821538907"><ele>69.0</ele><time>2026-03-28T11:58:52Z</time></trkpt><trkpt lat="42.68556453796228" lon="2.7723406292535584"><ele>69.0</ele><time>2026-03-28T11:58:53Z</time></trkpt><trkpt lat="42.68566793682977" lon="2.772331292897211"><ele>69.0</ele><time>2026-03-28T11:58:54Z</time></trkpt><trkpt lat="42.68578438781501" lon="2.772436241328322"><ele>69.0</ele><time>2026-03-28T11:58:55Z</time></trkpt><trkpt lat="42.68589397247507" lon="2.772513656324956"><ele>69.0</ele><time>2026-03-28T11:58:56Z</time></trkpt><trkpt lat="42.68596927573519" lon="2.772542641861838"><ele>69.0</ele><time>2026-03-28T11:58:57Z</time></trkpt><trkpt lat="42.686036150792795" lon="2.772517998724379"><ele>69.0</ele><time>2026-03-28T11:58:58Z</time></trkpt><trkpt lat="42.68609580274663" lon="2.7724495181227984"><ele>69.0</ele><time>2026-03-28T11:59:00Z</time></trkpt><trkpt lat="42.68614648589308" lon="2.7723167671743"><ele>69.0</ele><time>2026-03-28T11:59:02Z</time></trkpt><trkpt lat="42.68617537864576" lon="2.7722158427653705"><ele>69.0</ele><time>2026-03-28T11:59:05Z</time></trkpt><trkpt lat="42.68609634895737" lon="2.772149895928425"><ele>69.0</ele><time>2026-03-28T11:59:07Z</time></trkpt><trkpt lat="42.68603062264899" lon="2.772158416396559"><ele>69.0</ele><time>2026-03-28T11:59:08Z</time></trkpt><trkpt lat="42.6859096680305" lon="2.7721864277359782"><ele>69.0</ele><time>2026-03-28T11:59:10Z</time></trkpt><trkpt lat="42.68584108959408" lon="2.7721875421637665"><ele>69.0</ele><time>2026-03-28T11:59:11Z</time></trkpt><trkpt lat="42.68575523387952" lon="2.7721920803624003"><ele>69.0</ele><time>2026-03-28T11:59:13Z</time></trkpt><trkpt lat="42.68567791838732" lon="2.7722006885869277"><ele>69.0</ele><time>2026-03-28T11:59:15Z</time></trkpt><trkpt lat="42.68556530861241" lon="2.772247153860776"><ele>69.0</ele><time>2026-03-28T11:59:17Z</time></trkpt><trkpt lat="42.68547575493249" lon="2.772302527730222"><ele>69.0</ele><time>2026-03-28T11:59:19Z</time></trkpt><trkpt lat="42.68539145275973" lon="2.772356275191955"><ele>69.0</ele><time>2026-03-28T11:59:21Z</time></trkpt><trkpt lat="42.68532613955006" lon="2.7723986480514733"><ele>69.0</ele><time>2026-03-28T11:59:23Z</time></trkpt><trkpt lat="42.68521165498464" lon="2.7724519874761957"><ele>69.0</ele><time>2026-03-28T11:59:25Z</time></trkpt><trkpt lat="42.68512157409365" lon="2.7724945771643146"><ele>69.0</ele><time>2026-03-28T11:59:27Z</time></trkpt><trkpt lat="42.685045401337206" lon="2.7725229831028737"><ele>69.0</ele><time>2026-03-28T11:59:29Z</time></trkpt><trkpt lat="42.684959474178505" lon="2.772595602411437"><ele>68.83333333333333</ele><time>2026-03-28T11:59:31Z</time></trkpt><trkpt lat="42.684899383560285" lon="2.772657961219461"><ele>68.66666666666667</ele><time>2026-03-28T11:59:33Z</time></trkpt><trkpt lat="42.68485130903354" lon="2.7727502966350954"><ele>68.5</ele><time>2026-03-28T11:59:36Z</time></trkpt><trkpt lat="42.68485227922777" lon="2.7728673140629985"><ele>68.33333333333334</ele><time>2026-03-28T11:59:43Z</time></trkpt><trkpt lat="42.68493117253426" lon="2.7729084896037293"><ele>68.16666666666667</ele><time>2026-03-28T11:59:48Z</time></trkpt><trkpt lat="42.68499147725521" lon="2.7729529883304997"><ele>68.0</ele><time>2026-03-28T11:59:50Z</time></trkpt><trkpt lat="42.68501815122964" lon="2.773048109088117"><ele>67.83333333333334</ele><time>2026-03-28T11:59:53Z</time></trkpt><trkpt lat="42.68501023959915" lon="2.7731461497271943"><ele>67.66666666666667</ele><time>2026-03-28T11:59:55Z</time></trkpt><trkpt lat="42.68501066518696" lon="2.773287972351443"><ele>67.5</ele><time>2026-03-28T11:59:58Z</time></trkpt><trkpt lat="42.68501382713695" lon="2.7733790104353093"><ele>67.33333333333333</ele><time>2026-03-28T12:00:00Z</time></trkpt><trkpt lat="42.68499563105303" lon="2.7734890566939336"><ele>67.16666666666666</ele><time>2026-03-28T12:00:03Z</time></trkpt><trkpt lat="42.68491801637265" lon="2.773539140196362"><ele>67.0</ele><time>2026-03-28T12:00:07Z</time></trkpt><trkpt lat="42.684907154940724" lon="2.77365034442383"><ele>66.83333333333333</ele><time>2026-03-28T12:00:16.001Z</time></trkpt><trkpt lat="42.68484013174311" lon="2.7737116214542166"><ele>66.66666666666666</ele><time>2026-03-28T12:00:19.001Z</time></trkpt><trkpt lat="42.684798022965026" lon="2.773818668793381"><ele>66.5</ele><time>2026-03-28T12:00:22.001Z</time></trkpt><trkpt lat="42.68475250312197" lon="2.7738895459005697"><ele>66.33333333333333</ele><time>2026-03-28T12:00:24.001Z</time></trkpt><trkpt lat="42.6846833779765" lon="2.773937863799287"><ele>66.16666666666667</ele><time>2026-03-28T12:00:27.001Z</time></trkpt><trkpt lat="42.684615834364806" lon="2.7739518290969154"><ele>66.0</ele><time>2026-03-28T12:00:29.001Z</time></trkpt><trkpt lat="42.684564450481304" lon="2.7738847287560424"><ele>66.0</ele><time>2026-03-28T12:00:31Z</time></trkpt><trkpt lat="42.68450987754597" lon="2.773817732644091"><ele>66.0</ele><time>2026-03-28T12:00:33Z</time></trkpt><trkpt lat="42.68444060253316" lon="2.77375260596047"><ele>66.0</ele><time>2026-03-28T12:00:35Z</time></trkpt><trkpt lat="42.684387847750706" lon="2.7736641551302847"><ele>66.0</ele><time>2026-03-28T12:00:37Z</time></trkpt><trkpt lat="42.68431541726128" lon="2.773657050058036"><ele>66.0</ele><time>2026-03-28T12:00:40Z</time></trkpt><trkpt lat="42.68423483900003" lon="2.7738001179486087"><ele>66.0</ele><time>2026-03-28T12:00:42Z</time></trkpt><trkpt lat="42.684183204473904" lon="2.7738872144237545"><ele>65.83333333333333</ele><time>2026-03-28T12:00:43Z</time></trkpt><trkpt lat="42.68412861463134" lon="2.773957577854114"><ele>65.66666666666667</ele><time>2026-03-28T12:00:44Z</time></trkpt><trkpt lat="42.68407800996967" lon="2.774014665751581"><ele>65.5</ele><time>2026-03-28T12:00:45Z</time></trkpt><trkpt lat="42.68402536461166" lon="2.7740805939925948"><ele>65.33333333333334</ele><time>2026-03-28T12:00:46Z</time></trkpt><trkpt lat="42.6839822792296" lon="2.774148669202421"><ele>65.16666666666667</ele><time>2026-03-28T12:00:47Z</time></trkpt><trkpt lat="42.683928743015144" lon="2.7743032418943643"><ele>65.0</ele><time>2026-03-28T12:00:49Z</time></trkpt><trkpt lat="42.683881743533" lon="2.774437580067608"><ele>65.0</ele><time>2026-03-28T12:00:50Z</time></trkpt><trkpt lat="42.68384128077699" lon="2.774570290545224"><ele>65.0</ele><time>2026-03-28T12:00:51Z</time></trkpt><trkpt lat="42.683771739616695" lon="2.7747234183370604"><ele>65.0</ele><time>2026-03-28T12:00:52Z</time></trkpt><trkpt lat="42.68372172054626" lon="2.774818703293009"><ele>65.0</ele><time>2026-03-28T12:00:53Z</time></trkpt><trkpt lat="42.68365123518893" lon="2.774909430881546"><ele>65.0</ele><time>2026-03-28T12:00:54Z</time></trkpt><trkpt lat="42.683572813188164" lon="2.7749966044697985"><ele>64.5</ele><time>2026-03-28T12:00:55Z</time></trkpt><trkpt lat="42.68352471281971" lon="2.775078136631777"><ele>64.0</ele><time>2026-03-28T12:00:56Z</time></trkpt><trkpt lat="42.68350425010862" lon="2.77516413331956"><ele>63.5</ele><time>2026-03-28T12:00:57Z</time></trkpt><trkpt lat="42.68349963827551" lon="2.775252580390101"><ele>63.0</ele><time>2026-03-28T12:00:58Z</time></trkpt><trkpt lat="42.683474626004845" lon="2.77537791187462"><ele>62.50000000000001</ele><time>2026-03-28T12:00:59Z</time></trkpt><trkpt lat="42.68345844178776" lon="2.77549949837597"><ele>62.0</ele><time>2026-03-28T12:01:00Z</time></trkpt><trkpt lat="42.683409863080655" lon="2.775630907988255"><ele>62.0</ele><time>2026-03-28T12:01:01Z</time></trkpt><trkpt lat="42.683410187445126" lon="2.7758482090544665"><ele>62.0</ele><time>2026-03-28T12:01:02Z</time></trkpt><trkpt lat="42.683385010788434" lon="2.775990499750959"><ele>62.0</ele><time>2026-03-28T12:01:03Z</time></trkpt><trkpt lat="42.6833700088291" lon="2.7760881042369694"><ele>62.0</ele><time>2026-03-28T12:01:04Z</time></trkpt><trkpt lat="42.6833315362351" lon="2.776289659270706"><ele>62.0</ele><time>2026-03-28T12:01:06Z</time></trkpt><trkpt lat="42.68329806250599" lon="2.776463192332171"><ele>62.0</ele><time>2026-03-28T12:01:07Z</time></trkpt><trkpt lat="42.68327666293493" lon="2.776576345729632"><ele>62.0</ele><time>2026-03-28T12:01:08Z</time></trkpt><trkpt lat="42.68326951811024" lon="2.776705694869054"><ele>62.0</ele><time>2026-03-28T12:01:09Z</time></trkpt><trkpt lat="42.68323048386448" lon="2.776911774629577"><ele>62.25</ele><time>2026-03-28T12:01:10Z</time></trkpt><trkpt lat="42.68321062942687" lon="2.7770667920875693"><ele>62.5</ele><time>2026-03-28T12:01:11Z</time></trkpt><trkpt lat="42.683219122107374" lon="2.777238866281444"><ele>62.75</ele><time>2026-03-28T12:01:12Z</time></trkpt><trkpt lat="42.6832079672504" lon="2.7774207842619414"><ele>63.0</ele><time>2026-03-28T12:01:13Z</time></trkpt><trkpt lat="42.68316317207552" lon="2.777613503688746"><ele>63.2</ele><time>2026-03-28T12:01:14Z</time></trkpt><trkpt lat="42.68314542593033" lon="2.7777921492658635"><ele>63.4</ele><time>2026-03-28T12:01:15Z</time></trkpt><trkpt lat="42.68311933414171" lon="2.777939268389875"><ele>63.60000000000001</ele><time>2026-03-28T12:01:16Z</time></trkpt><trkpt lat="42.68309780395527" lon="2.7780523509831276"><ele>63.800000000000004</ele><time>2026-03-28T12:01:17Z</time></trkpt><trkpt lat="42.68307448075099" lon="2.778180681705892"><ele>64.0</ele><time>2026-03-28T12:01:19Z</time></trkpt><trkpt lat="42.683049521526335" lon="2.7782844480546145"><ele>64.0</ele><time>2026-03-28T12:01:29Z</time></trkpt><trkpt lat="42.68308744367538" lon="2.778370426455516"><ele>64.0</ele><time>2026-03-28T12:01:31Z</time></trkpt><trkpt lat="42.6831598759047" lon="2.778384269384404"><ele>64.0</ele><time>2026-03-28T12:01:33Z</time></trkpt><trkpt lat="42.68304649469822" lon="2.77847171232637"><ele>64.0</ele><time>2026-03-28T12:01:36Z</time></trkpt><trkpt lat="42.68316486845874" lon="2.778400817756065"><ele>64.0</ele><time>2026-03-28T12:01:37Z</time></trkpt><trkpt lat="42.6830356965691" lon="2.7784580165408825"><ele>64.0</ele><time>2026-03-28T12:02:57Z</time></trkpt><trkpt lat="42.68313273405399" lon="2.77834215058635"><ele>64.0</ele><time>2026-03-28T12:02:58Z</time></trkpt><trkpt lat="42.68309542178546" lon="2.778266012092031"><ele>64.0</ele><time>2026-03-28T12:03:00Z</time></trkpt><trkpt lat="42.683148289226885" lon="2.7783472624825114"><ele>64.0</ele><time>2026-03-28T12:03:05Z</time></trkpt><trkpt lat="42.68321327894744" lon="2.778512303187492"><ele>64.0</ele><time>2026-03-28T12:03:07Z</time></trkpt><trkpt lat="42.683223814383226" lon="2.77860933456083"><ele>63.75</ele><time>2026-03-28T12:03:08Z</time></trkpt><trkpt lat="42.683273154280414" lon="2.778795250912097"><ele>63.5</ele><time>2026-03-28T12:03:10Z</time></trkpt><trkpt lat="42.68331992578808" lon="2.7789714894072266"><ele>63.25</ele><time>2026-03-28T12:03:11Z</time></trkpt><trkpt lat="42.68335035619484" lon="2.779086153397567"><ele>63.0</ele><time>2026-03-28T12:03:12Z</time></trkpt><trkpt lat="42.68339006852165" lon="2.7791920401576493"><ele>63.0</ele><time>2026-03-28T12:03:14Z</time></trkpt><trkpt lat="42.68341861076402" lon="2.779289462859288"><ele>63.0</ele><time>2026-03-28T12:03:15Z</time></trkpt><trkpt lat="42.68344418180804" lon="2.7794318800400197"><ele>63.0</ele><time>2026-03-28T12:03:16Z</time></trkpt><trkpt lat="42.68355707798329" lon="2.7797716452723304"><ele>63.5</ele><time>2026-03-28T12:03:17Z</time></trkpt><trkpt lat="42.68361416324638" lon="2.7799706782138065"><ele>64.0</ele><time>2026-03-28T12:03:18Z</time></trkpt><trkpt lat="42.68367154883383" lon="2.780138905114466"><ele>64.5</ele><time>2026-03-28T12:03:19Z</time></trkpt><trkpt lat="42.68372022434384" lon="2.7802783383201355"><ele>65.0</ele><time>2026-03-28T12:03:20Z</time></trkpt><trkpt lat="42.68375695555572" lon="2.7803902031592185"><ele>65.0</ele><time>2026-03-28T12:03:23Z</time></trkpt><trkpt lat="42.68378306401765" lon="2.7804752097307213"><ele>65.0</ele><time>2026-03-28T12:03:24Z</time></trkpt><trkpt lat="42.68382451533888" lon="2.780610784206452"><ele>65.0</ele><time>2026-03-28T12:03:25Z</time></trkpt><trkpt lat="42.68388213755389" lon="2.780779496056303"><ele>65.0</ele><time>2026-03-28T12:03:26Z</time></trkpt><trkpt lat="42.68393729158137" lon="2.780938285583704"><ele>65.0</ele><time>2026-03-28T12:03:27Z</time></trkpt><trkpt lat="42.68398371314303" lon="2.781075479352516"><ele>64.25</ele><time>2026-03-28T12:03:28Z</time></trkpt><trkpt lat="42.684046166999785" lon="2.7812534628137"><ele>63.5</ele><time>2026-03-28T12:03:29Z</time></trkpt><trkpt lat="42.6841046948352" lon="2.7814927322117087"><ele>62.75</ele><time>2026-03-28T12:03:30Z</time></trkpt><trkpt lat="42.68414794360588" lon="2.781633260259483"><ele>62.0</ele><time>2026-03-28T12:03:31Z</time></trkpt><trkpt lat="42.68419502702841" lon="2.7817862482286255"><ele>61.6</ele><time>2026-03-28T12:03:32Z</time></trkpt><trkpt lat="42.68423212152926" lon="2.7819053332077335"><ele>61.2</ele><time>2026-03-28T12:03:33Z</time></trkpt><trkpt lat="42.684267427415136" lon="2.7820156688664466"><ele>60.8</ele><time>2026-03-28T12:03:34Z</time></trkpt><trkpt lat="42.68430093393872" lon="2.7821203812697584"><ele>60.4</ele><time>2026-03-28T12:03:35Z</time></trkpt><trkpt lat="42.68433408565749" lon="2.782221946668581"><ele>60.0</ele><time>2026-03-28T12:03:36Z</time></trkpt><trkpt lat="42.684376899450605" lon="2.782351555270288"><ele>60.0</ele><time>2026-03-28T12:03:37Z</time></trkpt><trkpt lat="42.6844195550189" lon="2.782479379732145"><ele>60.0</ele><time>2026-03-28T12:03:38Z</time></trkpt><trkpt lat="42.68446099391752" lon="2.782601100330904"><ele>60.0</ele><time>2026-03-28T12:03:39Z</time></trkpt><trkpt lat="42.68450116854709" lon="2.7827191073022273"><ele>60.0</ele><time>2026-03-28T12:03:40Z</time></trkpt><trkpt lat="42.68454008271838" lon="2.7828334118882085"><ele>60.0</ele><time>2026-03-28T12:03:41Z</time></trkpt><trkpt lat="42.68457835764018" lon="2.7829455979657074"><ele>60.4</ele><time>2026-03-28T12:03:42Z</time></trkpt><trkpt lat="42.68461569163307" lon="2.7830536725206962"><ele>60.8</ele><time>2026-03-28T12:03:43Z</time></trkpt><trkpt lat="42.68465143058254" lon="2.783157129741903"><ele>61.2</ele><time>2026-03-28T12:03:44Z</time></trkpt><trkpt lat="42.684684374813166" lon="2.783252496795971"><ele>61.6</ele><time>2026-03-28T12:03:45Z</time></trkpt><trkpt lat="42.68471435671513" lon="2.783339288490243"><ele>62.0</ele><time>2026-03-28T12:03:46Z</time></trkpt><trkpt lat="42.68477266354523" lon="2.7835080752790877"><ele>61.8</ele><time>2026-03-28T12:03:48Z</time></trkpt><trkpt lat="42.684810001304974" lon="2.7836161607340935"><ele>61.6</ele><time>2026-03-28T12:03:49Z</time></trkpt><trkpt lat="42.68485041575227" lon="2.783734235755514"><ele>61.39999999999999</ele><time>2026-03-28T12:03:50Z</time></trkpt><trkpt lat="42.68489312800348" lon="2.783859062208688"><ele>61.199999999999996</ele><time>2026-03-28T12:03:51Z</time></trkpt><trkpt lat="42.68494057555618" lon="2.78399772759347"><ele>61.0</ele><time>2026-03-28T12:03:52Z</time></trkpt><trkpt lat="42.684991164210146" lon="2.784126872099231"><ele>61.0</ele><time>2026-03-28T12:03:53Z</time></trkpt><trkpt lat="42.685038648368895" lon="2.7842576930226577"><ele>60.99999999999999</ele><time>2026-03-28T12:03:54Z</time></trkpt><trkpt lat="42.685084156922954" lon="2.7843886617744475"><ele>60.99999999999999</ele><time>2026-03-28T12:03:55Z</time></trkpt><trkpt lat="42.68512594202117" lon="2.7845192754341768"><ele>61.0</ele><time>2026-03-28T12:03:56Z</time></trkpt><trkpt lat="42.68516026385321" lon="2.7846522318875966"><ele>61.0</ele><time>2026-03-28T12:03:57Z</time></trkpt><trkpt lat="42.68520290669393" lon="2.7847857063621695"><ele>61.0</ele><time>2026-03-28T12:03:58Z</time></trkpt><trkpt lat="42.68524269147466" lon="2.784911109660046"><ele>60.99999999999999</ele><time>2026-03-28T12:03:59Z</time></trkpt><trkpt lat="42.68528477034486" lon="2.7850197753908277"><ele>60.99999999999999</ele><time>2026-03-28T12:04:00Z</time></trkpt><trkpt lat="42.68533745654999" lon="2.785116089973565"><ele>61.0</ele><time>2026-03-28T12:04:01Z</time></trkpt><trkpt lat="42.685402455437384" lon="2.7852164706789884"><ele>61.0</ele><time>2026-03-28T12:04:02Z</time></trkpt><trkpt lat="42.685480200619494" lon="2.7853082528515465"><ele>61.0</ele><time>2026-03-28T12:04:03Z</time></trkpt><trkpt lat="42.685553579631666" lon="2.785414447333179"><ele>60.99999999999999</ele><time>2026-03-28T12:04:04Z</time></trkpt><trkpt lat="42.68563516327493" lon="2.7855033619137384"><ele>60.99999999999999</ele><time>2026-03-28T12:04:05Z</time></trkpt><trkpt lat="42.68571398401757" lon="2.7855892653295764"><ele>61.0</ele><time>2026-03-28T12:04:06Z</time></trkpt><trkpt lat="42.685790114922426" lon="2.785672237204003"><ele>61.0</ele><time>2026-03-28T12:04:07Z</time></trkpt><trkpt lat="42.68585691165941" lon="2.7857450361627603"><ele>61.0</ele><time>2026-03-28T12:04:08Z</time></trkpt><trkpt lat="42.68592079869595" lon="2.785811813898153"><ele>61.0</ele><time>2026-03-28T12:04:09Z</time></trkpt><trkpt lat="42.68600941373675" lon="2.7859108663775354"><ele>61.0</ele><time>2026-03-28T12:04:11Z</time></trkpt><trkpt lat="42.68584621456449" lon="2.7859590755208155"><ele>61.0</ele><time>2026-03-28T12:04:12Z</time></trkpt><trkpt lat="42.6858313722378" lon="2.786132059879662"><ele>61.25</ele><time>2026-03-28T12:04:14Z</time></trkpt><trkpt lat="42.685777139036944" lon="2.7862678075685876"><ele>61.5</ele><time>2026-03-28T12:04:15Z</time></trkpt><trkpt lat="42.68572575561673" lon="2.786419748059496"><ele>61.75</ele><time>2026-03-28T12:04:16Z</time></trkpt><trkpt lat="42.68567075736696" lon="2.786578995218496"><ele>62.0</ele><time>2026-03-28T12:04:17Z</time></trkpt><trkpt lat="42.68563066024703" lon="2.786726669230101"><ele>62.0</ele><time>2026-03-28T12:04:18Z</time></trkpt><trkpt lat="42.68560712951285" lon="2.7868726032239306"><ele>62.0</ele><time>2026-03-28T12:04:19Z</time></trkpt><trkpt lat="42.68559663654916" lon="2.7870345708413207"><ele>62.0</ele><time>2026-03-28T12:04:20Z</time></trkpt><trkpt lat="42.68558885899722" lon="2.7871999079944216"><ele>62.0</ele><time>2026-03-28T12:04:21Z</time></trkpt><trkpt lat="42.68559516226355" lon="2.7873421746056706"><ele>62.0</ele><time>2026-03-28T12:04:22Z</time></trkpt><trkpt lat="42.685586140436165" lon="2.787454753085556"><ele>62.0</ele><time>2026-03-28T12:04:23Z</time></trkpt><trkpt lat="42.68561160995049" lon="2.7876243210887686"><ele>62.0</ele><time>2026-03-28T12:04:25Z</time></trkpt><trkpt lat="42.68563434139657" lon="2.7878161203339675"><ele>62.0</ele><time>2026-03-28T12:04:26Z</time></trkpt><trkpt lat="42.685619060689426" lon="2.788033898040751"><ele>62.0</ele><time>2026-03-28T12:04:27.001Z</time></trkpt><trkpt lat="42.68560612646859" lon="2.7881855848673953"><ele>62.0</ele><time>2026-03-28T12:04:28.001Z</time></trkpt><trkpt lat="42.68559362126411" lon="2.788358577038237"><ele>62.0</ele><time>2026-03-28T12:04:29.001Z</time></trkpt><trkpt lat="42.685557710870256" lon="2.788565218913841"><ele>62.0</ele><time>2026-03-28T12:04:30.001Z</time></trkpt><trkpt lat="42.68555396530336" lon="2.7887502682214302"><ele>62.2</ele><time>2026-03-28T12:04:31.001Z</time></trkpt><trkpt lat="42.68553175844371" lon="2.7889110997304045"><ele>62.400000000000006</ele><time>2026-03-28T12:04:32.001Z</time></trkpt><trkpt lat="42.68552980847314" lon="2.7890607743289793"><ele>62.599999999999994</ele><time>2026-03-28T12:04:33.001Z</time></trkpt><trkpt lat="42.68551717573357" lon="2.789199897715424"><ele>62.8</ele><time>2026-03-28T12:04:34.001Z</time></trkpt><trkpt lat="42.685502398846246" lon="2.7893277080214376"><ele>63.0</ele><time>2026-03-28T12:04:35.001Z</time></trkpt><trkpt lat="42.685490697242194" lon="2.7894494402914556"><ele>62.599999999999994</ele><time>2026-03-28T12:04:36.001Z</time></trkpt><trkpt lat="42.68548350532459" lon="2.7895633373807187"><ele>62.199999999999996</ele><time>2026-03-28T12:04:37.001Z</time></trkpt><trkpt lat="42.68547367714443" lon="2.78967813761939"><ele>61.8</ele><time>2026-03-28T12:04:38.001Z</time></trkpt><trkpt lat="42.685449339024956" lon="2.7898091827369"><ele>61.4</ele><time>2026-03-28T12:04:39.001Z</time></trkpt><trkpt lat="42.685404742307334" lon="2.789937503850291"><ele>61.0</ele><time>2026-03-28T12:04:40.001Z</time></trkpt><trkpt lat="42.685372340808556" lon="2.790044560791536"><ele>61.0</ele><time>2026-03-28T12:04:41.001Z</time></trkpt><trkpt lat="42.68540781861589" lon="2.7901274512175385"><ele>60.99999999999999</ele><time>2026-03-28T12:04:42Z</time></trkpt><trkpt lat="42.68546350772224" lon="2.7902334385081446"><ele>60.99999999999999</ele><time>2026-03-28T12:04:44Z</time></trkpt><trkpt lat="42.68561999812042" lon="2.790126020638074"><ele>61.0</ele><time>2026-03-28T12:04:45Z</time></trkpt><trkpt lat="42.6857070449377" lon="2.790080565799744"><ele>61.0</ele><time>2026-03-28T12:04:46Z</time></trkpt><trkpt lat="42.68578742484606" lon="2.7900901930100654"><ele>60.4</ele><time>2026-03-28T12:04:48Z</time></trkpt><trkpt lat="42.685778115686844" lon="2.7902042223334966"><ele>59.8</ele><time>2026-03-28T12:05:20Z</time></trkpt><trkpt lat="42.68581106156976" lon="2.7903192662435043"><ele>59.199999999999996</ele><time>2026-03-28T12:05:23Z</time></trkpt><trkpt lat="42.68586262355427" lon="2.790442168665062"><ele>58.599999999999994</ele><time>2026-03-28T12:05:25Z</time></trkpt><trkpt lat="42.68592961730211" lon="2.79056713276687"><ele>58.0</ele><time>2026-03-28T12:05:27Z</time></trkpt><trkpt lat="42.68593879913631" lon="2.7906527192080675"><ele>58.0</ele><time>2026-03-28T12:05:28Z</time></trkpt><trkpt lat="42.68594652724655" lon="2.790748113946944"><ele>58.0</ele><time>2026-03-28T12:05:29Z</time></trkpt><trkpt lat="42.68596045675839" lon="2.790895600547281"><ele>58.0</ele><time>2026-03-28T12:05:30Z</time></trkpt><trkpt lat="42.68599631583226" lon="2.791147852604894"><ele>58.0</ele><time>2026-03-28T12:05:31Z</time></trkpt><trkpt lat="42.686031935739784" lon="2.791425764699945"><ele>57.666666666666664</ele><time>2026-03-28T12:05:32Z</time></trkpt><trkpt lat="42.686057316862836" lon="2.79168021285411"><ele>57.33333333333333</ele><time>2026-03-28T12:05:33Z</time></trkpt><trkpt lat="42.68607677889532" lon="2.7918921471256524"><ele>57.0</ele><time>2026-03-28T12:05:34Z</time></trkpt><trkpt lat="42.68610055408766" lon="2.7921029031248352"><ele>57.5</ele><time>2026-03-28T12:05:35Z</time></trkpt><trkpt lat="42.686130296813715" lon="2.792281386259922"><ele>58.0</ele><time>2026-03-28T12:05:36Z</time></trkpt><trkpt lat="42.68616137704731" lon="2.7924553909392067"><ele>58.5</ele><time>2026-03-28T12:05:37Z</time></trkpt><trkpt lat="42.68617759070292" lon="2.7926052444649896"><ele>59.0</ele><time>2026-03-28T12:05:38Z</time></trkpt><trkpt lat="42.68618785137817" lon="2.792742268789462"><ele>59.0</ele><time>2026-03-28T12:05:39Z</time></trkpt><trkpt lat="42.686187430962086" lon="2.792876324346636"><ele>59.0</ele><time>2026-03-28T12:05:40Z</time></trkpt><trkpt lat="42.6862217480567" lon="2.79304545761435"><ele>59.0</ele><time>2026-03-28T12:05:41Z</time></trkpt><trkpt lat="42.6861946381271" lon="2.7932299037826507"><ele>59.0</ele><time>2026-03-28T12:05:42Z</time></trkpt><trkpt lat="42.686184829597934" lon="2.7933956676601595"><ele>58.75</ele><time>2026-03-28T12:05:43Z</time></trkpt><trkpt lat="42.686183691604725" lon="2.793555132612719"><ele>58.5</ele><time>2026-03-28T12:05:44Z</time></trkpt><trkpt lat="42.68621193540093" lon="2.7937406299682155"><ele>58.25</ele><time>2026-03-28T12:05:45Z</time></trkpt><trkpt lat="42.68627204048541" lon="2.7939460887884633"><ele>58.0</ele><time>2026-03-28T12:05:46Z</time></trkpt><trkpt lat="42.68633909274755" lon="2.79415565602745"><ele>57.0</ele><time>2026-03-28T12:05:47Z</time></trkpt><trkpt lat="42.68641881515538" lon="2.794363543527705"><ele>56.0</ele><time>2026-03-28T12:05:48Z</time></trkpt><trkpt lat="42.686483039193945" lon="2.7945716232673754"><ele>55.0</ele><time>2026-03-28T12:05:49Z</time></trkpt><trkpt lat="42.686527952014444" lon="2.794752552419687"><ele>55.0</ele><time>2026-03-28T12:05:50Z</time></trkpt><trkpt lat="42.68656459573527" lon="2.794919147190259"><ele>55.0</ele><time>2026-03-28T12:05:51Z</time></trkpt><trkpt lat="42.68661817278986" lon="2.795036834654896"><ele>55.0</ele><time>2026-03-28T12:05:52Z</time></trkpt><trkpt lat="42.68666363488038" lon="2.7951388124088314"><ele>55.0</ele><time>2026-03-28T12:05:53Z</time></trkpt><trkpt lat="42.68670647934806" lon="2.7952214224465743"><ele>55.0</ele><time>2026-03-28T12:05:54Z</time></trkpt><trkpt lat="42.686751384828824" lon="2.795309806099073"><ele>55.25</ele><time>2026-03-28T12:05:55Z</time></trkpt><trkpt lat="42.68680771262346" lon="2.795420671392705"><ele>55.5</ele><time>2026-03-28T12:05:56Z</time></trkpt><trkpt lat="42.68688875820032" lon="2.7955801866534533"><ele>55.75</ele><time>2026-03-28T12:05:57Z</time></trkpt><trkpt lat="42.68697385459887" lon="2.7957476748088554"><ele>56.0</ele><time>2026-03-28T12:05:58Z</time></trkpt><trkpt lat="42.68681180954648" lon="2.796171507090284"><ele>56.0</ele><time>2026-03-28T12:05:59Z</time></trkpt><trkpt lat="42.68686871430059" lon="2.796383603104096"><ele>56.0</ele><time>2026-03-28T12:06:00Z</time></trkpt><trkpt lat="42.68692673473087" lon="2.796594567399887"><ele>56.0</ele><time>2026-03-28T12:06:01Z</time></trkpt><trkpt lat="42.686973817005736" lon="2.7967884444164057"><ele>56.0</ele><time>2026-03-28T12:06:02Z</time></trkpt><trkpt lat="42.68703293716153" lon="2.7969870024481778"><ele>56.0</ele><time>2026-03-28T12:06:03Z</time></trkpt><trkpt lat="42.68707994642064" lon="2.7971640300394824"><ele>56.0</ele><time>2026-03-28T12:06:04Z</time></trkpt><trkpt lat="42.68712259558627" lon="2.797333595042344"><ele>56.0</ele><time>2026-03-28T12:06:05Z</time></trkpt><trkpt lat="42.68716215759983" lon="2.7975276904874318"><ele>55.66666666666667</ele><time>2026-03-28T12:06:06Z</time></trkpt><trkpt lat="42.687189413706946" lon="2.797729553661844"><ele>55.33333333333333</ele><time>2026-03-28T12:06:07Z</time></trkpt><trkpt lat="42.687220063018444" lon="2.7979409714532695"><ele>55.0</ele><time>2026-03-28T12:06:08Z</time></trkpt><trkpt lat="42.68724905855939" lon="2.7981510467230883"><ele>55.0</ele><time>2026-03-28T12:06:09Z</time></trkpt><trkpt lat="42.687281928562534" lon="2.798376675643708"><ele>55.0</ele><time>2026-03-28T12:06:10Z</time></trkpt><trkpt lat="42.687311928392035" lon="2.798573103636593"><ele>55.0</ele><time>2026-03-28T12:06:11Z</time></trkpt><trkpt lat="42.687344377723065" lon="2.7987642543132196"><ele>54.75</ele><time>2026-03-28T12:06:12Z</time></trkpt><trkpt lat="42.68738044547035" lon="2.7989521198736167"><ele>54.5</ele><time>2026-03-28T12:06:13Z</time></trkpt><trkpt lat="42.68741438653388" lon="2.7991393511279163"><ele>54.25</ele><time>2026-03-28T12:06:14Z</time></trkpt><trkpt lat="42.687444711631656" lon="2.7993305511670528"><ele>54.0</ele><time>2026-03-28T12:06:15Z</time></trkpt><trkpt lat="42.687469549439605" lon="2.7995354319848995"><ele>53.66666666666667</ele><time>2026-03-28T12:06:16Z</time></trkpt><trkpt lat="42.68748371981759" lon="2.799747588569051"><ele>53.333333333333336</ele><time>2026-03-28T12:06:17Z</time></trkpt><trkpt lat="42.687493084817945" lon="2.7999764363774218"><ele>53.0</ele><time>2026-03-28T12:06:18Z</time></trkpt><trkpt lat="42.68750415613436" lon="2.8002051736767557"><ele>52.66666666666667</ele><time>2026-03-28T12:06:19Z</time></trkpt><trkpt lat="42.687524431833545" lon="2.8004267258592273"><ele>52.33333333333333</ele><time>2026-03-28T12:06:20Z</time></trkpt><trkpt lat="42.68754225102592" lon="2.800635138400123"><ele>52.0</ele><time>2026-03-28T12:06:21Z</time></trkpt><trkpt lat="42.68755512546899" lon="2.800837784295786"><ele>51.666666666666664</ele><time>2026-03-28T12:06:22Z</time></trkpt><trkpt lat="42.687559713158954" lon="2.801045361552897"><ele>51.33333333333333</ele><time>2026-03-28T12:06:23Z</time></trkpt><trkpt lat="42.68756560018472" lon="2.801261298038755"><ele>51.0</ele><time>2026-03-28T12:06:24Z</time></trkpt><trkpt lat="42.68756641596845" lon="2.8014841678256093"><ele>51.0</ele><time>2026-03-28T12:06:25Z</time></trkpt><trkpt lat="42.687567277030574" lon="2.801691255310799"><ele>51.0</ele><time>2026-03-28T12:06:26Z</time></trkpt><trkpt lat="42.68756426599139" lon="2.8018751723085007"><ele>51.0</ele><time>2026-03-28T12:06:27Z</time></trkpt><trkpt lat="42.68756007078486" lon="2.802040858899976"><ele>51.0</ele><time>2026-03-28T12:06:28Z</time></trkpt><trkpt lat="42.68756230225957" lon="2.802195306062899"><ele>51.0</ele><time>2026-03-28T12:06:29Z</time></trkpt><trkpt lat="42.687564840287926" lon="2.802325124524284"><ele>51.0</ele><time>2026-03-28T12:06:30Z</time></trkpt><trkpt lat="42.68756846833965" lon="2.802443881455124"><ele>51.0</ele><time>2026-03-28T12:06:31Z</time></trkpt><trkpt lat="42.68757277633936" lon="2.8025466283775975"><ele>51.0</ele><time>2026-03-28T12:06:32Z</time></trkpt><trkpt lat="42.687581346008095" lon="2.802632760546191"><ele>51.0</ele><time>2026-03-28T12:06:33.001Z</time></trkpt><trkpt lat="42.687577316143525" lon="2.802720118877179"><ele>51.0</ele><time>2026-03-28T12:06:34.001Z</time></trkpt><trkpt lat="42.687577635730484" lon="2.8028339646938263"><ele>50.833333333333336</ele><time>2026-03-28T12:06:35.001Z</time></trkpt><trkpt lat="42.68757325868862" lon="2.802949603182345"><ele>50.66666666666667</ele><time>2026-03-28T12:06:36.001Z</time></trkpt><trkpt lat="42.687569146578625" lon="2.8030614748829605"><ele>50.5</ele><time>2026-03-28T12:06:37.001Z</time></trkpt><trkpt lat="42.687578436800024" lon="2.803180861457092"><ele>50.333333333333336</ele><time>2026-03-28T12:06:38Z</time></trkpt><trkpt lat="42.68758245807261" lon="2.8033023393015997"><ele>50.16666666666667</ele><time>2026-03-28T12:06:39Z</time></trkpt><trkpt lat="42.687589781731134" lon="2.8034404806010658"><ele>50.0</ele><time>2026-03-28T12:06:40Z</time></trkpt><trkpt lat="42.68760599438684" lon="2.803584150952682"><ele>50.0</ele><time>2026-03-28T12:06:41Z</time></trkpt><trkpt lat="42.68763154771144" lon="2.803734636422584"><ele>50.0</ele><time>2026-03-28T12:06:42Z</time></trkpt><trkpt lat="42.68766138501199" lon="2.8038907424199517"><ele>50.0</ele><time>2026-03-28T12:06:43Z</time></trkpt><trkpt lat="42.68769520796981" lon="2.804053311072313"><ele>50.0</ele><time>2026-03-28T12:06:44Z</time></trkpt><trkpt lat="42.68773008551897" lon="2.80422210934415"><ele>51.0</ele><time>2026-03-28T12:06:45Z</time></trkpt><trkpt lat="42.68776826879586" lon="2.8043917670109866"><ele>52.0</ele><time>2026-03-28T12:06:46Z</time></trkpt><trkpt lat="42.6878015293761" lon="2.8045522785806685"><ele>53.0</ele><time>2026-03-28T12:06:47Z</time></trkpt><trkpt lat="42.68784450631984" lon="2.8047099958316695"><ele>54.0</ele><time>2026-03-28T12:06:48Z</time></trkpt><trkpt lat="42.68789022887795" lon="2.804870622171833"><ele>54.0</ele><time>2026-03-28T12:06:49Z</time></trkpt><trkpt lat="42.68793859514186" lon="2.8050145074664834"><ele>54.00000000000001</ele><time>2026-03-28T12:06:50Z</time></trkpt><trkpt lat="42.687983818498225" lon="2.805136065045685"><ele>54.00000000000001</ele><time>2026-03-28T12:06:51Z</time></trkpt><trkpt lat="42.6880268376938" lon="2.8052368643812695"><ele>54.0</ele><time>2026-03-28T12:06:52Z</time></trkpt><trkpt lat="42.68807205878008" lon="2.8053256112653786"><ele>54.0</ele><time>2026-03-28T12:06:53Z</time></trkpt><trkpt lat="42.688119011877035" lon="2.80541435098579"><ele>54.0</ele><time>2026-03-28T12:06:54Z</time></trkpt><trkpt lat="42.68815640063535" lon="2.8055122460999815"><ele>54.00000000000001</ele><time>2026-03-28T12:06:55Z</time></trkpt><trkpt lat="42.688173062892226" lon="2.80561198302372"><ele>54.00000000000001</ele><time>2026-03-28T12:06:56Z</time></trkpt><trkpt lat="42.688178365762276" lon="2.805739498180246"><ele>54.0</ele><time>2026-03-28T12:06:57Z</time></trkpt><trkpt lat="42.68817953765518" lon="2.805895036139915"><ele>54.0</ele><time>2026-03-28T12:06:58Z</time></trkpt><trkpt lat="42.688194353653635" lon="2.806055608524734"><ele>53.5</ele><time>2026-03-28T12:06:59Z</time></trkpt><trkpt lat="42.68822124597452" lon="2.806210898969053"><ele>53.0</ele><time>2026-03-28T12:07:00Z</time></trkpt><trkpt lat="42.688261740719575" lon="2.806372241301133"><ele>52.5</ele><time>2026-03-28T12:07:01Z</time></trkpt><trkpt lat="42.688310305394296" lon="2.8065327593457896"><ele>52.0</ele><time>2026-03-28T12:07:02Z</time></trkpt><trkpt lat="42.68835460043988" lon="2.8067049138668674"><ele>51.0</ele><time>2026-03-28T12:07:03Z</time></trkpt><trkpt lat="42.68839820730804" lon="2.80687779843633"><ele>50.0</ele><time>2026-03-28T12:07:04Z</time></trkpt><trkpt lat="42.68844594863485" lon="2.807058789531921"><ele>49.0</ele><time>2026-03-28T12:07:05Z</time></trkpt><trkpt lat="42.6884994793884" lon="2.807238109947358"><ele>48.0</ele><time>2026-03-28T12:07:06Z</time></trkpt><trkpt lat="42.688549112022926" lon="2.8074216485682224"><ele>49.0</ele><time>2026-03-28T12:07:07Z</time></trkpt><trkpt lat="42.688594559984864" lon="2.8076157924900036"><ele>50.0</ele><time>2026-03-28T12:07:08Z</time></trkpt><trkpt lat="42.68863749537824" lon="2.8078109374854274"><ele>51.0</ele><time>2026-03-28T12:07:09Z</time></trkpt><trkpt lat="42.6886753187355" lon="2.808011338517716"><ele>51.0</ele><time>2026-03-28T12:07:10Z</time></trkpt><trkpt lat="42.68870796325936" lon="2.808217472268661"><ele>51.0</ele><time>2026-03-28T12:07:11Z</time></trkpt><trkpt lat="42.688742694885114" lon="2.808403960092972"><ele>51.0</ele><time>2026-03-28T12:07:12Z</time></trkpt><trkpt lat="42.688778111293466" lon="2.8085703641591704"><ele>51.0</ele><time>2026-03-28T12:07:13Z</time></trkpt><trkpt lat="42.68882703493443" lon="2.8087107074644364"><ele>51.0</ele><time>2026-03-28T12:07:14Z</time></trkpt><trkpt lat="42.68888430226428" lon="2.8088460567104865"><ele>51.0</ele><time>2026-03-28T12:07:15Z</time></trkpt><trkpt lat="42.688945553645084" lon="2.8089962460059392"><ele>51.0</ele><time>2026-03-28T12:07:16Z</time></trkpt><trkpt lat="42.688996799799945" lon="2.809139269980691"><ele>51.0</ele><time>2026-03-28T12:07:17Z</time></trkpt><trkpt lat="42.68903017486598" lon="2.8092779863409474"><ele>51.0</ele><time>2026-03-28T12:07:18Z</time></trkpt><trkpt lat="42.68906554476244" lon="2.809434033136805"><ele>51.0</ele><time>2026-03-28T12:07:19Z</time></trkpt><trkpt lat="42.68910357360574" lon="2.809627085142878"><ele>51.0</ele><time>2026-03-28T12:07:20Z</time></trkpt><trkpt lat="42.68912662631759" lon="2.809840172717903"><ele>51.0</ele><time>2026-03-28T12:07:21Z</time></trkpt><trkpt lat="42.68912861151411" lon="2.8101136032220992"><ele>50.66666666666667</ele><time>2026-03-28T12:07:22Z</time></trkpt><trkpt lat="42.68912622452999" lon="2.810396210513083"><ele>50.333333333333336</ele><time>2026-03-28T12:07:23Z</time></trkpt><trkpt lat="42.68912665698507" lon="2.810649232730646"><ele>50.0</ele><time>2026-03-28T12:07:24Z</time></trkpt><trkpt lat="42.68918174306935" lon="2.8109891385347403"><ele>49.0</ele><time>2026-03-28T12:07:25Z</time></trkpt><trkpt lat="42.689202344559845" lon="2.8112551964860213"><ele>48.0</ele><time>2026-03-28T12:07:26Z</time></trkpt><trkpt lat="42.68921806635193" lon="2.811493377625808"><ele>47.0</ele><time>2026-03-28T12:07:27Z</time></trkpt><trkpt lat="42.68921887011999" lon="2.8116985365476883"><ele>47.2</ele><time>2026-03-28T12:07:28Z</time></trkpt><trkpt lat="42.68921848063196" lon="2.8118642840910355"><ele>47.400000000000006</ele><time>2026-03-28T12:07:29Z</time></trkpt><trkpt lat="42.689223615748126" lon="2.8119922011774516"><ele>47.599999999999994</ele><time>2026-03-28T12:07:30Z</time></trkpt><trkpt lat="42.68924127185766" lon="2.812075146782623"><ele>47.8</ele><time>2026-03-28T12:07:31Z</time></trkpt><trkpt lat="42.689316114961244" lon="2.812090097943729"><ele>48.0</ele><time>2026-03-28T12:07:34Z</time></trkpt><trkpt lat="42.68943942947921" lon="2.8120584924817726"><ele>48.4</ele><time>2026-03-28T12:07:36Z</time></trkpt><trkpt lat="42.68957217352744" lon="2.81202551178524"><ele>48.8</ele><time>2026-03-28T12:07:38Z</time></trkpt><trkpt lat="42.68963588246703" lon="2.8120260182366215"><ele>49.2</ele><time>2026-03-28T12:07:39Z</time></trkpt><trkpt lat="42.68975602080023" lon="2.8120154797651002"><ele>49.6</ele><time>2026-03-28T12:07:41Z</time></trkpt><trkpt lat="42.689820631774055" lon="2.812000009466337"><ele>50.0</ele><time>2026-03-28T12:07:42Z</time></trkpt><trkpt lat="42.68989648695083" lon="2.8119804223316036"><ele>50.00000000000001</ele><time>2026-03-28T12:07:43Z</time></trkpt><trkpt lat="42.68998143453248" lon="2.8119567697882144"><ele>50.0</ele><time>2026-03-28T12:07:44Z</time></trkpt><trkpt lat="42.690066225638375" lon="2.8119268301620064"><ele>50.0</ele><time>2026-03-28T12:07:45Z</time></trkpt><trkpt lat="42.6901421381129" lon="2.811889590055292"><ele>50.0</ele><time>2026-03-28T12:07:46Z</time></trkpt><trkpt lat="42.69021964514816" lon="2.8118557421425483"><ele>50.00000000000001</ele><time>2026-03-28T12:07:47Z</time></trkpt><trkpt lat="42.69029642990294" lon="2.8118259450989243"><ele>50.0</ele><time>2026-03-28T12:07:48Z</time></trkpt><trkpt lat="42.69035787273421" lon="2.811807195599873"><ele>49.8</ele><time>2026-03-28T12:07:49Z</time></trkpt><trkpt lat="42.69041410400882" lon="2.811907714578412"><ele>49.6</ele><time>2026-03-28T12:07:53Z</time></trkpt><trkpt lat="42.690417654254304" lon="2.8120147544793603"><ele>49.400000000000006</ele><time>2026-03-28T12:07:56Z</time></trkpt><trkpt lat="42.69043301928949" lon="2.8121176420950995"><ele>49.2</ele><time>2026-03-28T12:08:00Z</time></trkpt><trkpt lat="42.69045989783274" lon="2.812239654847725"><ele>49.0</ele><time>2026-03-28T12:08:02Z</time></trkpt><trkpt lat="42.69046931089966" lon="2.8124037513080684"><ele>48.99999999999999</ele><time>2026-03-28T12:08:04Z</time></trkpt><trkpt lat="42.6904700465355" lon="2.8124965376211986"><ele>49.0</ele><time>2026-03-28T12:08:05Z</time></trkpt><trkpt lat="42.690460485089396" lon="2.812617171302062"><ele>49.0</ele><time>2026-03-28T12:08:06Z</time></trkpt><trkpt lat="42.69041533687495" lon="2.812775633840485"><ele>49.0</ele><time>2026-03-28T12:08:07Z</time></trkpt><trkpt lat="42.690391661524956" lon="2.8128659934897975"><ele>48.99999999999999</ele><time>2026-03-28T12:08:08Z</time></trkpt><trkpt lat="42.69037510113558" lon="2.8129779229090475"><ele>49.0</ele><time>2026-03-28T12:08:09Z</time></trkpt><trkpt lat="42.69033407707535" lon="2.813046932922478"><ele>49.25</ele><time>2026-03-28T12:08:12Z</time></trkpt><trkpt lat="42.690252789287634" lon="2.813062095349259"><ele>49.5</ele><time>2026-03-28T12:08:14Z</time></trkpt><trkpt lat="42.69006371947825" lon="2.812985240724807"><ele>49.75</ele><time>2026-03-28T12:08:16Z</time></trkpt><trkpt lat="42.689948681086996" lon="2.812993771689557"><ele>50.0</ele><time>2026-03-28T12:08:17Z</time></trkpt><trkpt lat="42.68985846490487" lon="2.8129862965119274"><ele>50.0</ele><time>2026-03-28T12:08:18Z</time></trkpt><trkpt lat="42.68975730702347" lon="2.8130173087133477"><ele>50.0</ele><time>2026-03-28T12:08:20Z</time></trkpt><trkpt lat="42.68972520781785" lon="2.8131270218032767"><ele>50.0</ele><time>2026-03-28T12:08:22Z</time></trkpt><trkpt lat="42.689727377488296" lon="2.813224022797896"><ele>50.0</ele><time>2026-03-28T12:08:23Z</time></trkpt><trkpt lat="42.68975113365696" lon="2.813358507204797"><ele>50.0</ele><time>2026-03-28T12:08:24Z</time></trkpt><trkpt lat="42.689770429852835" lon="2.8135062418939003"><ele>50.0</ele><time>2026-03-28T12:08:25Z</time></trkpt><trkpt lat="42.68977877621894" lon="2.813690836202388"><ele>50.0</ele><time>2026-03-28T12:08:26Z</time></trkpt><trkpt lat="42.689787102362814" lon="2.8139258871321795"><ele>50.0</ele><time>2026-03-28T12:08:27Z</time></trkpt><trkpt lat="42.68978288060402" lon="2.814117914424566"><ele>50.0</ele><time>2026-03-28T12:08:28Z</time></trkpt><trkpt lat="42.68975885879966" lon="2.8142777753036072"><ele>50.0</ele><time>2026-03-28T12:08:29Z</time></trkpt><trkpt lat="42.68972447239254" lon="2.8144154365514957"><ele>50.0</ele><time>2026-03-28T12:08:30Z</time></trkpt><trkpt lat="42.689679692284955" lon="2.814559644127998"><ele>50.0</ele><time>2026-03-28T12:08:31Z</time></trkpt><trkpt lat="42.68964095409017" lon="2.8146980941609474"><ele>50.2</ele><time>2026-03-28T12:08:32Z</time></trkpt><trkpt lat="42.68960237470072" lon="2.8148401246636663"><ele>50.4</ele><time>2026-03-28T12:08:33Z</time></trkpt><trkpt lat="42.68957097659707" lon="2.8149823614833185"><ele>50.599999999999994</ele><time>2026-03-28T12:08:34Z</time></trkpt><trkpt lat="42.68954854437065" lon="2.8151030549212344"><ele>50.8</ele><time>2026-03-28T12:08:35Z</time></trkpt><trkpt lat="42.68953775875513" lon="2.815200189287777"><ele>51.0</ele><time>2026-03-28T12:08:36Z</time></trkpt><trkpt lat="42.68953816144918" lon="2.8152936329605933"><ele>50.0</ele><time>2026-03-28T12:08:37Z</time></trkpt><trkpt lat="42.68955234341928" lon="2.8154120825462585"><ele>49.0</ele><time>2026-03-28T12:08:38Z</time></trkpt><trkpt lat="42.68957245906727" lon="2.8155715928012794"><ele>48.0</ele><time>2026-03-28T12:08:39Z</time></trkpt><trkpt lat="42.6895968490881" lon="2.8157579105324495"><ele>47.0</ele><time>2026-03-28T12:08:40Z</time></trkpt><trkpt lat="42.68962601482251" lon="2.8159306526906853"><ele>47.0</ele><time>2026-03-28T12:08:41Z</time></trkpt><trkpt lat="42.68964702744776" lon="2.816086622393014"><ele>47.0</ele><time>2026-03-28T12:08:42Z</time></trkpt><trkpt lat="42.68967608971546" lon="2.8162418651891294"><ele>47.0</ele><time>2026-03-28T12:08:43Z</time></trkpt><trkpt lat="42.68970159882267" lon="2.8163885117370198"><ele>47.0</ele><time>2026-03-28T12:08:44Z</time></trkpt><trkpt lat="42.68971753292136" lon="2.816511596179214"><ele>47.0</ele><time>2026-03-28T12:08:45Z</time></trkpt><trkpt lat="42.689735065290364" lon="2.8166488045753204"><ele>47.0</ele><time>2026-03-28T12:08:46Z</time></trkpt><trkpt lat="42.68975255734993" lon="2.8168130007406034"><ele>47.0</ele><time>2026-03-28T12:08:47Z</time></trkpt><trkpt lat="42.68977515842364" lon="2.8169883916263223"><ele>47.0</ele><time>2026-03-28T12:08:48Z</time></trkpt><trkpt lat="42.68979306840243" lon="2.8171296730065656"><ele>47.0</ele><time>2026-03-28T12:08:49Z</time></trkpt><trkpt lat="42.68981129708591" lon="2.817243017281873"><ele>47.0</ele><time>2026-03-28T12:08:50Z</time></trkpt><trkpt lat="42.68983955884209" lon="2.817419615325299"><ele>47.0</ele><time>2026-03-28T12:08:51Z</time></trkpt><trkpt lat="42.689866359366626" lon="2.8176248492327214"><ele>47.0</ele><time>2026-03-28T12:08:52Z</time></trkpt><trkpt lat="42.68989235400709" lon="2.8177417952067185"><ele>47.0</ele><time>2026-03-28T12:08:53Z</time></trkpt><trkpt lat="42.68992166370526" lon="2.8179230601342806"><ele>47.0</ele><time>2026-03-28T12:08:55Z</time></trkpt><trkpt lat="42.68994902819812" lon="2.81809040162555"><ele>46.666666666666664</ele><time>2026-03-28T12:08:56Z</time></trkpt><trkpt lat="42.689983207120925" lon="2.8183372716236805"><ele>46.333333333333336</ele><time>2026-03-28T12:08:57Z</time></trkpt><trkpt lat="42.6900205306543" lon="2.81856857438582"><ele>46.0</ele><time>2026-03-28T12:08:58Z</time></trkpt><trkpt lat="42.69005712818857" lon="2.8187675057130828"><ele>46.0</ele><time>2026-03-28T12:08:59Z</time></trkpt><trkpt lat="42.69010765545467" lon="2.818994100864948"><ele>46.0</ele><time>2026-03-28T12:09:00Z</time></trkpt><trkpt lat="42.69016917312606" lon="2.819211113411394"><ele>46.0</ele><time>2026-03-28T12:09:01Z</time></trkpt><trkpt lat="42.690234239889364" lon="2.819426193708903"><ele>46.333333333333336</ele><time>2026-03-28T12:09:02Z</time></trkpt><trkpt lat="42.690292256256384" lon="2.8196380463669413"><ele>46.666666666666664</ele><time>2026-03-28T12:09:03Z</time></trkpt><trkpt lat="42.69034243200743" lon="2.819840228723383"><ele>47.0</ele><time>2026-03-28T12:09:04Z</time></trkpt><trkpt lat="42.690388388131225" lon="2.820040275084911"><ele>47.0</ele><time>2026-03-28T12:09:05Z</time></trkpt><trkpt lat="42.690427954972144" lon="2.820241819107958"><ele>47.0</ele><time>2026-03-28T12:09:06Z</time></trkpt><trkpt lat="42.69046293512444" lon="2.8204331733510113"><ele>47.0</ele><time>2026-03-28T12:09:07Z</time></trkpt><trkpt lat="42.6905163384077" lon="2.82062534508999"><ele>47.0</ele><time>2026-03-28T12:09:08Z</time></trkpt><trkpt lat="42.69055600874249" lon="2.8208170731918236"><ele>48.33333333333333</ele><time>2026-03-28T12:09:09Z</time></trkpt><trkpt lat="42.69059298676233" lon="2.821010778427437"><ele>49.666666666666664</ele><time>2026-03-28T12:09:10Z</time></trkpt><trkpt lat="42.69063041033148" lon="2.8211965950360214"><ele>51.0</ele><time>2026-03-28T12:09:11Z</time></trkpt><trkpt lat="42.690663899311446" lon="2.821417365521814"><ele>51.0</ele><time>2026-03-28T12:09:12Z</time></trkpt><trkpt lat="42.69067867584445" lon="2.8216434250311755"><ele>51.0</ele><time>2026-03-28T12:09:13Z</time></trkpt><trkpt lat="42.69068484623311" lon="2.8218757484040937"><ele>51.0</ele><time>2026-03-28T12:09:14Z</time></trkpt><trkpt lat="42.69069111023414" lon="2.822099680981327"><ele>50.25</ele><time>2026-03-28T12:09:15Z</time></trkpt><trkpt lat="42.69070004463307" lon="2.8223130080419025"><ele>49.5</ele><time>2026-03-28T12:09:16Z</time></trkpt><trkpt lat="42.69071489462316" lon="2.822506846372172"><ele>48.75</ele><time>2026-03-28T12:09:17Z</time></trkpt><trkpt lat="42.69073964393267" lon="2.822696702798033"><ele>48.0</ele><time>2026-03-28T12:09:18Z</time></trkpt><trkpt lat="42.690774926122515" lon="2.822906324162609"><ele>47.333333333333336</ele><time>2026-03-28T12:09:19Z</time></trkpt><trkpt lat="42.69081743526557" lon="2.823138047438992"><ele>46.66666666666667</ele><time>2026-03-28T12:09:20Z</time></trkpt><trkpt lat="42.69085981617639" lon="2.8233744097992783"><ele>46.0</ele><time>2026-03-28T12:09:21Z</time></trkpt><trkpt lat="42.690881591546635" lon="2.8235957452191434"><ele>45.5</ele><time>2026-03-28T12:09:22Z</time></trkpt><trkpt lat="42.69090577940251" lon="2.8238062898278007"><ele>45.0</ele><time>2026-03-28T12:09:23Z</time></trkpt><trkpt lat="42.690926700086955" lon="2.823989221297578"><ele>44.5</ele><time>2026-03-28T12:09:24Z</time></trkpt><trkpt lat="42.6909602845721" lon="2.824169427315235"><ele>44.0</ele><time>2026-03-28T12:09:25Z</time></trkpt><trkpt lat="42.6910120335804" lon="2.8243729845752337"><ele>43.666666666666664</ele><time>2026-03-28T12:09:26Z</time></trkpt><trkpt lat="42.691054777677046" lon="2.8246016751126186"><ele>43.333333333333336</ele><time>2026-03-28T12:09:27Z</time></trkpt><trkpt lat="42.691084921291" lon="2.8248629520487363"><ele>43.0</ele><time>2026-03-28T12:09:28Z</time></trkpt><trkpt lat="42.69111970204047" lon="2.825052290976741"><ele>44.333333333333336</ele><time>2026-03-28T12:09:29Z</time></trkpt><trkpt lat="42.69117532091968" lon="2.82524559888116"><ele>45.666666666666664</ele><time>2026-03-28T12:09:30Z</time></trkpt><trkpt lat="42.69123721750985" lon="2.825450017276525"><ele>47.0</ele><time>2026-03-28T12:09:31Z</time></trkpt><trkpt lat="42.6912878230165" lon="2.825653962040185"><ele>47.0</ele><time>2026-03-28T12:09:32Z</time></trkpt><trkpt lat="42.69131923503537" lon="2.8258700903552123"><ele>47.0</ele><time>2026-03-28T12:09:33Z</time></trkpt><trkpt lat="42.69135150307013" lon="2.8261170992271794"><ele>47.0</ele><time>2026-03-28T12:09:34Z</time></trkpt><trkpt lat="42.69138525877075" lon="2.826360024383908"><ele>47.0</ele><time>2026-03-28T12:09:35Z</time></trkpt><trkpt lat="42.6914259444544" lon="2.8266141980128277"><ele>47.0</ele><time>2026-03-28T12:09:36Z</time></trkpt><trkpt lat="42.69145272906307" lon="2.8268247928039587"><ele>47.0</ele><time>2026-03-28T12:09:37Z</time></trkpt><trkpt lat="42.69149086799405" lon="2.827004967042825"><ele>46.5</ele><time>2026-03-28T12:09:38Z</time></trkpt><trkpt lat="42.691529370076815" lon="2.827169885161683"><ele>46.0</ele><time>2026-03-28T12:09:39Z</time></trkpt><trkpt lat="42.691564411736124" lon="2.827335370518535"><ele>45.5</ele><time>2026-03-28T12:09:40Z</time></trkpt><trkpt lat="42.69159785417488" lon="2.82750949919073"><ele>45.0</ele><time>2026-03-28T12:09:41Z</time></trkpt><trkpt lat="42.69162636372015" lon="2.8276726121198266"><ele>44.666666666666664</ele><time>2026-03-28T12:09:42Z</time></trkpt><trkpt lat="42.691652623767055" lon="2.8278438991842707"><ele>44.33333333333333</ele><time>2026-03-28T12:09:43Z</time></trkpt><trkpt lat="42.69169761539652" lon="2.8280825871592135"><ele>44.0</ele><time>2026-03-28T12:09:44Z</time></trkpt><trkpt lat="42.69174229733483" lon="2.82835312607795"><ele>43.75</ele><time>2026-03-28T12:09:45Z</time></trkpt><trkpt lat="42.691768993555755" lon="2.828552522216645"><ele>43.5</ele><time>2026-03-28T12:09:46Z</time></trkpt><trkpt lat="42.691799863381085" lon="2.828733250608263"><ele>43.25</ele><time>2026-03-28T12:09:47Z</time></trkpt><trkpt lat="42.69182703898679" lon="2.8289172046988447"><ele>43.0</ele><time>2026-03-28T12:09:48Z</time></trkpt><trkpt lat="42.69185910720324" lon="2.829110975357784"><ele>43.0</ele><time>2026-03-28T12:09:49Z</time></trkpt><trkpt lat="42.691894726467616" lon="2.8293032587931544"><ele>43.0</ele><time>2026-03-28T12:09:50Z</time></trkpt><trkpt lat="42.691938875601174" lon="2.829477287330995"><ele>43.0</ele><time>2026-03-28T12:09:51Z</time></trkpt><trkpt lat="42.691980937285564" lon="2.8296141807849886"><ele>43.0</ele><time>2026-03-28T12:09:52Z</time></trkpt><trkpt lat="42.692034417205065" lon="2.8297310447952007"><ele>43.4</ele><time>2026-03-28T12:09:53Z</time></trkpt><trkpt lat="42.69209108635238" lon="2.829831293484296"><ele>43.8</ele><time>2026-03-28T12:09:54Z</time></trkpt><trkpt lat="42.69213880399259" lon="2.829911609273536"><ele>44.2</ele><time>2026-03-28T12:09:55Z</time></trkpt><trkpt lat="42.69223344257479" lon="2.830020963823369"><ele>44.6</ele><time>2026-03-28T12:09:57Z</time></trkpt><trkpt lat="42.69229615103508" lon="2.8300790198879455"><ele>45.0</ele><time>2026-03-28T12:09:58Z</time></trkpt><trkpt lat="42.692372853338874" lon="2.830139760537886"><ele>45.0</ele><time>2026-03-28T12:09:59Z</time></trkpt><trkpt lat="42.692471790778754" lon="2.8302093764183516"><ele>45.0</ele><time>2026-03-28T12:10:00Z</time></trkpt><trkpt lat="42.692590483162896" lon="2.8302914016879495"><ele>45.0</ele><time>2026-03-28T12:10:01Z</time></trkpt><trkpt lat="42.69270350579784" lon="2.83039383008795"><ele>45.0</ele><time>2026-03-28T12:10:02Z</time></trkpt><trkpt lat="42.69279136243206" lon="2.8305031613412206"><ele>45.0</ele><time>2026-03-28T12:10:03Z</time></trkpt><trkpt lat="42.69286591932017" lon="2.8306077851881133"><ele>45.0</ele><time>2026-03-28T12:10:04Z</time></trkpt><trkpt lat="42.6929310348854" lon="2.830702115696649"><ele>45.0</ele><time>2026-03-28T12:10:05Z</time></trkpt><trkpt lat="42.69298515064793" lon="2.830789180186877"><ele>45.0</ele><time>2026-03-28T12:10:06Z</time></trkpt><trkpt lat="42.69303828279164" lon="2.8308799047387736"><ele>45.0</ele><time>2026-03-28T12:10:07Z</time></trkpt><trkpt lat="42.693065049080566" lon="2.83101496695664"><ele>45.0</ele><time>2026-03-28T12:10:08Z</time></trkpt><trkpt lat="42.69314518996264" lon="2.831059027854955"><ele>45.0</ele><time>2026-03-28T12:10:09Z</time></trkpt><trkpt lat="42.69318480391294" lon="2.8311288890641046"><ele>45.0</ele><time>2026-03-28T12:10:10Z</time></trkpt><trkpt lat="42.69323310646489" lon="2.8312428407619468"><ele>45.0</ele><time>2026-03-28T12:10:12Z</time></trkpt><trkpt lat="42.69325539361691" lon="2.8313743909337012"><ele>45.0</ele><time>2026-03-28T12:10:33Z</time></trkpt><trkpt lat="42.693277199142386" lon="2.831490544312044"><ele>45.0</ele><time>2026-03-28T12:10:34Z</time></trkpt><trkpt lat="42.693309899761" lon="2.831589388245081"><ele>45.0</ele><time>2026-03-28T12:10:35Z</time></trkpt><trkpt lat="42.69335845089294" lon="2.8316759950757158"><ele>45.0</ele><time>2026-03-28T12:10:36Z</time></trkpt><trkpt lat="42.693368165106634" lon="2.8317933262578885"><ele>45.0</ele><time>2026-03-28T12:10:37Z</time></trkpt><trkpt lat="42.69343244163786" lon="2.8318869021498343"><ele>45.0</ele><time>2026-03-28T12:10:38Z</time></trkpt><trkpt lat="42.69350596651868" lon="2.8319402020166002"><ele>45.0</ele><time>2026-03-28T12:10:39Z</time></trkpt><trkpt lat="42.69356483934071" lon="2.8320044574631975"><ele>45.0</ele><time>2026-03-28T12:10:40Z</time></trkpt><trkpt lat="42.69360204494742" lon="2.8320842912758124"><ele>44.75</ele><time>2026-03-28T12:10:41Z</time></trkpt><trkpt lat="42.69362998750944" lon="2.832216635034548"><ele>44.5</ele><time>2026-03-28T12:10:42Z</time></trkpt><trkpt lat="42.693654543680026" lon="2.832366596958777"><ele>44.25</ele><time>2026-03-28T12:10:43Z</time></trkpt><trkpt lat="42.693691828896064" lon="2.8325492880045537"><ele>44.0</ele><time>2026-03-28T12:10:44Z</time></trkpt><trkpt lat="42.693707287021724" lon="2.83270551136334"><ele>44.0</ele><time>2026-03-28T12:10:45Z</time></trkpt><trkpt lat="42.693688208738024" lon="2.8328537803316522"><ele>44.0</ele><time>2026-03-28T12:10:46Z</time></trkpt><trkpt lat="42.69369136885461" lon="2.833011990834551"><ele>44.0</ele><time>2026-03-28T12:10:47Z</time></trkpt><trkpt lat="42.693742518904585" lon="2.833162098529064"><ele>44.0</ele><time>2026-03-28T12:10:48Z</time></trkpt><trkpt lat="42.69381771433955" lon="2.833291152308654"><ele>44.0</ele><time>2026-03-28T12:10:49Z</time></trkpt><trkpt lat="42.693883122930444" lon="2.83343652071138"><ele>44.0</ele><time>2026-03-28T12:10:50Z</time></trkpt><trkpt lat="42.69395395435611" lon="2.833567204726066"><ele>44.0</ele><time>2026-03-28T12:10:51Z</time></trkpt><trkpt lat="42.69403548420235" lon="2.8336812351466665"><ele>44.0</ele><time>2026-03-28T12:10:52Z</time></trkpt><trkpt lat="42.69412759026324" lon="2.833791883394922"><ele>43.75</ele><time>2026-03-28T12:10:53Z</time></trkpt><trkpt lat="42.69422498409303" lon="2.8339041539607397"><ele>43.5</ele><time>2026-03-28T12:10:54Z</time></trkpt><trkpt lat="42.69432396953291" lon="2.834031641691653"><ele>43.25</ele><time>2026-03-28T12:10:55Z</time></trkpt><trkpt lat="42.69439348406767" lon="2.834157480676048"><ele>43.0</ele><time>2026-03-28T12:10:56Z</time></trkpt><trkpt lat="42.69444836278775" lon="2.834278096790299"><ele>43.0</ele><time>2026-03-28T12:10:57Z</time></trkpt><trkpt lat="42.69449370044628" lon="2.834379659869452"><ele>43.0</ele><time>2026-03-28T12:10:58Z</time></trkpt><trkpt lat="42.69453207282765" lon="2.834516301945246"><ele>43.0</ele><time>2026-03-28T12:11:00Z</time></trkpt><trkpt lat="42.69451645807167" lon="2.8346194542108774"><ele>43.0</ele><time>2026-03-28T12:11:02Z</time></trkpt><trkpt lat="42.694471708097105" lon="2.8347080869386794"><ele>43.0</ele><time>2026-03-28T12:11:04Z</time></trkpt><trkpt lat="42.69442777451733" lon="2.8347881185990214"><ele>43.0</ele><time>2026-03-28T12:11:05Z</time></trkpt><trkpt lat="42.6943647059088" lon="2.8349057113277656"><ele>42.75</ele><time>2026-03-28T12:11:06Z</time></trkpt><trkpt lat="42.69432071221084" lon="2.8350360512369197"><ele>42.5</ele><time>2026-03-28T12:11:07Z</time></trkpt><trkpt lat="42.694365133513436" lon="2.835200022046331"><ele>42.25</ele><time>2026-03-28T12:11:08Z</time></trkpt><trkpt lat="42.69439588594873" lon="2.835358437226167"><ele>42.0</ele><time>2026-03-28T12:11:09Z</time></trkpt><trkpt lat="42.69443592172301" lon="2.835517200206626"><ele>42.0</ele><time>2026-03-28T12:11:10Z</time></trkpt><trkpt lat="42.69448044487683" lon="2.8356894851081984"><ele>42.0</ele><time>2026-03-28T12:11:11Z</time></trkpt><trkpt lat="42.694533219416506" lon="2.8358790675596457"><ele>42.0</ele><time>2026-03-28T12:11:12Z</time></trkpt><trkpt lat="42.69458393379263" lon="2.8360630032761978"><ele>42.0</ele><time>2026-03-28T12:11:13Z</time></trkpt><trkpt lat="42.69461723897755" lon="2.836245200443775"><ele>42.2</ele><time>2026-03-28T12:11:14Z</time></trkpt><trkpt lat="42.69465602865657" lon="2.836437518384201"><ele>42.400000000000006</ele><time>2026-03-28T12:11:15Z</time></trkpt><trkpt lat="42.69470340418641" lon="2.8366021961568175"><ele>42.599999999999994</ele><time>2026-03-28T12:11:16Z</time></trkpt><trkpt lat="42.694737310167795" lon="2.8367125579601007"><ele>42.8</ele><time>2026-03-28T12:11:17Z</time></trkpt><trkpt lat="42.694769595013724" lon="2.8367918793462215"><ele>43.0</ele><time>2026-03-28T12:11:18Z</time></trkpt><trkpt lat="42.69482224714185" lon="2.836876586956737"><ele>43.0</ele><time>2026-03-28T12:11:20Z</time></trkpt><trkpt lat="42.69475791966523" lon="2.8367627019478148"><ele>43.0</ele><time>2026-03-28T12:11:26Z</time></trkpt><trkpt lat="42.694722265183835" lon="2.8366735960824463"><ele>43.0</ele><time>2026-03-28T12:11:27Z</time></trkpt><trkpt lat="42.694698992724604" lon="2.8365878391602157"><ele>43.0</ele><time>2026-03-28T12:11:28Z</time></trkpt><trkpt lat="42.69465852005622" lon="2.836450555381473"><ele>43.0</ele><time>2026-03-28T12:11:30Z</time></trkpt><trkpt lat="42.694622208017115" lon="2.8363016426719563"><ele>43.0</ele><time>2026-03-28T12:11:32Z</time></trkpt><trkpt lat="42.694613373308606" lon="2.8362133513558363"><ele>43.0</ele><time>2026-03-28T12:11:33Z</time></trkpt><trkpt lat="42.69465278169348" lon="2.8361342433256898"><ele>43.0</ele><time>2026-03-28T12:11:34Z</time></trkpt><trkpt lat="42.69462509182187" lon="2.836056552080962"><ele>43.0</ele><time>2026-03-28T12:11:36Z</time></trkpt><trkpt lat="42.694593292764814" lon="2.8361710474277464"><ele>43.0</ele><time>2026-03-28T12:11:40Z</time></trkpt><trkpt lat="42.69463493030593" lon="2.836352754081215"><ele>43.0</ele><time>2026-03-28T12:11:42Z</time></trkpt><trkpt lat="42.69467714220313" lon="2.836514400875065"><ele>43.0</ele><time>2026-03-28T12:11:43Z</time></trkpt><trkpt lat="42.69473654232381" lon="2.8366937776979197"><ele>43.0</ele><time>2026-03-28T12:11:44Z</time></trkpt><trkpt lat="42.69477707017674" lon="2.8367960254273936"><ele>43.0</ele><time>2026-03-28T12:11:45Z</time></trkpt><trkpt lat="42.69480147380606" lon="2.836875342749324"><ele>43.0</ele><time>2026-03-28T12:11:46Z</time></trkpt><trkpt lat="42.69484330765651" lon="2.8370132181590373"><ele>43.0</ele><time>2026-03-28T12:11:48Z</time></trkpt><trkpt lat="42.6948587779012" lon="2.837140602258045"><ele>42.599999999999994</ele><time>2026-03-28T12:11:50Z</time></trkpt><trkpt lat="42.69487303617699" lon="2.8372307748523395"><ele>42.199999999999996</ele><time>2026-03-28T12:11:51Z</time></trkpt><trkpt lat="42.69489586366021" lon="2.8373229498948866"><ele>41.8</ele><time>2026-03-28T12:11:52Z</time></trkpt><trkpt lat="42.69493005273361" lon="2.837431493165306"><ele>41.4</ele><time>2026-03-28T12:11:53Z</time></trkpt><trkpt lat="42.69498323154513" lon="2.8376178420192852"><ele>41.0</ele><time>2026-03-28T12:11:54Z</time></trkpt><trkpt lat="42.69503394549198" lon="2.8378324813361657"><ele>40.8</ele><time>2026-03-28T12:11:55Z</time></trkpt><trkpt lat="42.69505102598178" lon="2.837989681974288"><ele>40.599999999999994</ele><time>2026-03-28T12:11:56Z</time></trkpt><trkpt lat="42.69504550271006" lon="2.838120663367767"><ele>40.4</ele><time>2026-03-28T12:11:57Z</time></trkpt><trkpt lat="42.695038898498204" lon="2.8382275075297"><ele>40.2</ele><time>2026-03-28T12:11:58Z</time></trkpt><trkpt lat="42.695032756386546" lon="2.8383227581965023"><ele>40.0</ele><time>2026-03-28T12:11:59Z</time></trkpt><trkpt lat="42.69500677980687" lon="2.8384436461782125"><ele>39.8</ele><time>2026-03-28T12:12:00Z</time></trkpt><trkpt lat="42.69499205739775" lon="2.8385792991984715"><ele>39.6</ele><time>2026-03-28T12:12:01Z</time></trkpt><trkpt lat="42.694990345386934" lon="2.8387059557380585"><ele>39.4</ele><time>2026-03-28T12:12:02Z</time></trkpt><trkpt lat="42.694968827547115" lon="2.8388234914556816"><ele>39.2</ele><time>2026-03-28T12:12:03Z</time></trkpt><trkpt lat="42.69501609547742" lon="2.8389325802505887"><ele>39.0</ele><time>2026-03-28T12:12:04Z</time></trkpt><trkpt lat="42.69505659323527" lon="2.839053440051737"><ele>39.0</ele><time>2026-03-28T12:12:05Z</time></trkpt><trkpt lat="42.69510186335549" lon="2.839166069054991"><ele>39.0</ele><time>2026-03-28T12:12:06Z</time></trkpt><trkpt lat="42.695145197552094" lon="2.8392810062063276"><ele>39.0</ele><time>2026-03-28T12:12:07Z</time></trkpt><trkpt lat="42.69519936586825" lon="2.8393417841048825"><ele>39.0</ele><time>2026-03-28T12:12:08Z</time></trkpt><trkpt lat="42.69524413658802" lon="2.839432680104005"><ele>39.0</ele><time>2026-03-28T12:12:10Z</time></trkpt><trkpt lat="42.69524298058983" lon="2.8396666133402664"><ele>38.666666666666664</ele><time>2026-03-28T12:12:32Z</time></trkpt><trkpt lat="42.69511909368093" lon="2.840012062197387"><ele>38.33333333333333</ele><time>2026-03-28T12:12:34Z</time></trkpt><trkpt lat="42.69512962531451" lon="2.8401615931231414"><ele>38.0</ele><time>2026-03-28T12:12:35Z</time></trkpt><trkpt lat="42.69514461479115" lon="2.840290018548133"><ele>38.0</ele><time>2026-03-28T12:12:36Z</time></trkpt><trkpt lat="42.69516244186269" lon="2.840395254303796"><ele>38.0</ele><time>2026-03-28T12:12:37Z</time></trkpt><trkpt lat="42.69519324679846" lon="2.840481661297817"><ele>38.0</ele><time>2026-03-28T12:12:38Z</time></trkpt><trkpt lat="42.6952286604273" lon="2.84056889497617"><ele>38.0</ele><time>2026-03-28T12:12:39Z</time></trkpt><trkpt lat="42.69526118220325" lon="2.8406509949378793"><ele>38.0</ele><time>2026-03-28T12:12:40Z</time></trkpt><trkpt lat="42.69529320765185" lon="2.8407377013582362"><ele>38.0</ele><time>2026-03-28T12:12:41Z</time></trkpt><trkpt lat="42.695334083278055" lon="2.840848785822394"><ele>38.0</ele><time>2026-03-28T12:12:42Z</time></trkpt><trkpt lat="42.69537366068814" lon="2.8409673827660664"><ele>38.0</ele><time>2026-03-28T12:12:43Z</time></trkpt><trkpt lat="42.695410073241035" lon="2.8410938789293514"><ele>38.0</ele><time>2026-03-28T12:12:44Z</time></trkpt><trkpt lat="42.69545051561205" lon="2.8412275320691562"><ele>38.0</ele><time>2026-03-28T12:12:45Z</time></trkpt><trkpt lat="42.695494382402664" lon="2.8413643088966913"><ele>38.0</ele><time>2026-03-28T12:12:46Z</time></trkpt><trkpt lat="42.69554074163674" lon="2.8415039526446835"><ele>38.0</ele><time>2026-03-28T12:12:46.999Z</time></trkpt><trkpt lat="42.695581786546285" lon="2.8416420220519414"><ele>38.0</ele><time>2026-03-28T12:12:47.999Z</time></trkpt><trkpt lat="42.6956108673905" lon="2.8417638426217873"><ele>38.0</ele><time>2026-03-28T12:12:48.999Z</time></trkpt><trkpt lat="42.6956363445204" lon="2.84187743953123"><ele>38.0</ele><time>2026-03-28T12:12:50Z</time></trkpt><trkpt lat="42.69567043455283" lon="2.841973908629439"><ele>38.0</ele><time>2026-03-28T12:12:51Z</time></trkpt><trkpt lat="42.695724210201575" lon="2.8420439082502984"><ele>38.0</ele><time>2026-03-28T12:12:52Z</time></trkpt><trkpt lat="42.695794192145556" lon="2.8420605526705742"><ele>38.199999999999996</ele><time>2026-03-28T12:12:53Z</time></trkpt><trkpt lat="42.69586975139634" lon="2.8420597110600077"><ele>38.4</ele><time>2026-03-28T12:12:54Z</time></trkpt><trkpt lat="42.695947277488955" lon="2.8421147618791145"><ele>38.599999999999994</ele><time>2026-03-28T12:12:55Z</time></trkpt><trkpt lat="42.69600342159731" lon="2.8422270897799864"><ele>38.8</ele><time>2026-03-28T12:12:56Z</time></trkpt><trkpt lat="42.69603790984118" lon="2.842364520986191"><ele>39.0</ele><time>2026-03-28T12:12:57Z</time></trkpt><trkpt lat="42.696094999875605" lon="2.8425044935178923"><ele>39.2</ele><time>2026-03-28T12:12:58Z</time></trkpt><trkpt lat="42.69616998811893" lon="2.8426103642133986"><ele>39.4</ele><time>2026-03-28T12:12:59Z</time></trkpt><trkpt lat="42.696236879066916" lon="2.8427050017933646"><ele>39.6</ele><time>2026-03-28T12:13:00Z</time></trkpt><trkpt lat="42.69629165034791" lon="2.8427771351599223"><ele>39.8</ele><time>2026-03-28T12:13:01Z</time></trkpt><trkpt lat="42.696414780342145" lon="2.8427947769339315"><ele>40.0</ele><time>2026-03-28T12:13:03Z</time></trkpt><trkpt lat="42.69648743095181" lon="2.8427380851714354"><ele>40.0</ele><time>2026-03-28T12:13:04Z</time></trkpt><trkpt lat="42.69656511479067" lon="2.842688626020325"><ele>40.0</ele><time>2026-03-28T12:13:05Z</time></trkpt><trkpt lat="42.69667634034492" lon="2.84262988457215"><ele>40.0</ele><time>2026-03-28T12:13:06Z</time></trkpt><trkpt lat="42.69682187659657" lon="2.8425634483906848"><ele>40.0</ele><time>2026-03-28T12:13:07Z</time></trkpt><trkpt lat="42.69696690942503" lon="2.842528276393984"><ele>39.5</ele><time>2026-03-28T12:13:08Z</time></trkpt><trkpt lat="42.69711781239588" lon="2.842493347682561"><ele>39.0</ele><time>2026-03-28T12:13:09Z</time></trkpt><trkpt lat="42.69727565789725" lon="2.842455558489407"><ele>38.5</ele><time>2026-03-28T12:13:10Z</time></trkpt><trkpt lat="42.69734559310658" lon="2.842559577444401"><ele>38.0</ele><time>2026-03-28T12:13:12Z</time></trkpt><trkpt lat="42.69744128981809" lon="2.84266271679893"><ele>39.0</ele><time>2026-03-28T12:13:13Z</time></trkpt><trkpt lat="42.697531297476" lon="2.8427966568353376"><ele>40.0</ele><time>2026-03-28T12:13:14Z</time></trkpt><trkpt lat="42.697594326770044" lon="2.8429274688466526"><ele>41.0</ele><time>2026-03-28T12:13:15Z</time></trkpt><trkpt lat="42.69764287573048" lon="2.8430636207808884"><ele>42.0</ele><time>2026-03-28T12:13:16Z</time></trkpt><trkpt lat="42.697679162041965" lon="2.8432036171508566"><ele>42.0</ele><time>2026-03-28T12:13:17Z</time></trkpt><trkpt lat="42.697699092955325" lon="2.8433547880391163"><ele>42.0</ele><time>2026-03-28T12:13:18Z</time></trkpt><trkpt lat="42.69769464470137" lon="2.84351387576793"><ele>42.0</ele><time>2026-03-28T12:13:19Z</time></trkpt><trkpt lat="42.69768458133205" lon="2.8436848459874096"><ele>42.0</ele><time>2026-03-28T12:13:20Z</time></trkpt><trkpt lat="42.69768789711891" lon="2.843860414982122"><ele>41.8</ele><time>2026-03-28T12:13:21Z</time></trkpt><trkpt lat="42.69770295362127" lon="2.8440406997820453"><ele>41.6</ele><time>2026-03-28T12:13:22Z</time></trkpt><trkpt lat="42.697728587630984" lon="2.84419461281529"><ele>41.4</ele><time>2026-03-28T12:13:23Z</time></trkpt><trkpt lat="42.697760042016824" lon="2.8443225211063625"><ele>41.199999999999996</ele><time>2026-03-28T12:13:24Z</time></trkpt><trkpt lat="42.697823325909674" lon="2.8444137343233242"><ele>41.0</ele><time>2026-03-28T12:13:25Z</time></trkpt><trkpt lat="42.6979235994032" lon="2.8444798000299896"><ele>40.5</ele><time>2026-03-28T12:13:26Z</time></trkpt><trkpt lat="42.6980518099757" lon="2.844505454951082"><ele>40.0</ele><time>2026-03-28T12:13:27Z</time></trkpt><trkpt lat="42.698177567432815" lon="2.8445394430475877"><ele>39.5</ele><time>2026-03-28T12:13:28Z</time></trkpt><trkpt lat="42.698273970332124" lon="2.844648136727898"><ele>39.0</ele><time>2026-03-28T12:13:29Z</time></trkpt><trkpt lat="42.6983409118466" lon="2.844766671300627"><ele>39.0</ele><time>2026-03-28T12:13:30Z</time></trkpt><trkpt lat="42.698412428077305" lon="2.844827551234316"><ele>39.0</ele><time>2026-03-28T12:13:31Z</time></trkpt><trkpt lat="42.698508500930465" lon="2.8448414056731504"><ele>39.0</ele><time>2026-03-28T12:13:32Z</time></trkpt><trkpt lat="42.69860266419927" lon="2.844797286366723"><ele>39.0</ele><time>2026-03-28T12:13:33Z</time></trkpt><trkpt lat="42.698691326738384" lon="2.844712711048135"><ele>39.0</ele><time>2026-03-28T12:13:34Z</time></trkpt><trkpt lat="42.698765748649734" lon="2.8446507813497743"><ele>39.2</ele><time>2026-03-28T12:13:35Z</time></trkpt><trkpt lat="42.698839713972944" lon="2.8447224850290196"><ele>39.4</ele><time>2026-03-28T12:13:37Z</time></trkpt><trkpt lat="42.69893498121027" lon="2.844842772674111"><ele>39.6</ele><time>2026-03-28T12:13:39Z</time></trkpt><trkpt lat="42.6990070674801" lon="2.844924348289458"><ele>39.8</ele><time>2026-03-28T12:13:41Z</time></trkpt><trkpt lat="42.69894572017025" lon="2.8450175284226895"><ele>40.0</ele><time>2026-03-28T12:13:59Z</time></trkpt><trkpt lat="42.698870974033525" lon="2.8450795883086846"><ele>40.0</ele><time>2026-03-28T12:14:00Z</time></trkpt><trkpt lat="42.6987834411099" lon="2.845158074949873"><ele>40.0</ele><time>2026-03-28T12:14:01Z</time></trkpt><trkpt lat="42.69869763404809" lon="2.8452563969709654"><ele>40.0</ele><time>2026-03-28T12:14:02Z</time></trkpt><trkpt lat="42.69860662352148" lon="2.84535949293923"><ele>40.0</ele><time>2026-03-28T12:14:03Z</time></trkpt><trkpt lat="42.69851091323809" lon="2.845473660988316"><ele>39.5</ele><time>2026-03-28T12:14:04Z</time></trkpt><trkpt lat="42.6984048462482" lon="2.845589704548839"><ele>39.0</ele><time>2026-03-28T12:14:05Z</time></trkpt><trkpt lat="42.69830054415907" lon="2.845714619840743"><ele>38.5</ele><time>2026-03-28T12:14:06Z</time></trkpt><trkpt lat="42.69819700415165" lon="2.8458417844968444"><ele>38.0</ele><time>2026-03-28T12:14:07Z</time></trkpt><trkpt lat="42.69810618344542" lon="2.8459500688757573"><ele>38.199999999999996</ele><time>2026-03-28T12:14:08Z</time></trkpt><trkpt lat="42.698022470868715" lon="2.846054026698582"><ele>38.4</ele><time>2026-03-28T12:14:09Z</time></trkpt><trkpt lat="42.69794447738105" lon="2.8461436320275753"><ele>38.599999999999994</ele><time>2026-03-28T12:14:10Z</time></trkpt><trkpt lat="42.697864244868526" lon="2.8462397157501265"><ele>38.8</ele><time>2026-03-28T12:14:11Z</time></trkpt><trkpt lat="42.69779400840377" lon="2.846322490361779"><ele>39.0</ele><time>2026-03-28T12:14:12Z</time></trkpt><trkpt lat="42.69772311362127" lon="2.8464035086983612"><ele>39.0</ele><time>2026-03-28T12:14:13Z</time></trkpt><trkpt lat="42.697652984942415" lon="2.846481496237411"><ele>39.0</ele><time>2026-03-28T12:14:14Z</time></trkpt><trkpt lat="42.697573625243066" lon="2.8465827661947047"><ele>39.0</ele><time>2026-03-28T12:14:16Z</time></trkpt><trkpt lat="42.6976323532104" lon="2.8465317180802363"><ele>39.0</ele><time>2026-03-28T12:15:13Z</time></trkpt><trkpt lat="42.697681233552274" lon="2.8464499352429686"><ele>39.0</ele><time>2026-03-28T12:15:14Z</time></trkpt><trkpt lat="42.69774024351402" lon="2.8463707833391605"><ele>39.0</ele><time>2026-03-28T12:15:15Z</time></trkpt><trkpt lat="42.697813127959506" lon="2.8462923505963316"><ele>39.0</ele><time>2026-03-28T12:15:16Z</time></trkpt><trkpt lat="42.6978753992195" lon="2.8462228755866463"><ele>39.0</ele><time>2026-03-28T12:15:17Z</time></trkpt><trkpt lat="42.69793303818624" lon="2.8461598894304876"><ele>39.0</ele><time>2026-03-28T12:15:18Z</time></trkpt><trkpt lat="42.697990197632414" lon="2.846092590356231"><ele>39.0</ele><time>2026-03-28T12:15:19Z</time></trkpt><trkpt lat="42.698053719824834" lon="2.846017730805039"><ele>39.0</ele><time>2026-03-28T12:15:20Z</time></trkpt><trkpt lat="42.69811309606533" lon="2.8459402082099112"><ele>39.0</ele><time>2026-03-28T12:15:21Z</time></trkpt><trkpt lat="42.698180192403186" lon="2.845867775656114"><ele>38.8</ele><time>2026-03-28T12:15:22Z</time></trkpt><trkpt lat="42.69824415921016" lon="2.8457915337233715"><ele>38.599999999999994</ele><time>2026-03-28T12:15:23Z</time></trkpt><trkpt lat="42.69832194206544" lon="2.845700138819114"><ele>38.4</ele><time>2026-03-28T12:15:24Z</time></trkpt><trkpt lat="42.69839407811742" lon="2.8456104191260723"><ele>38.199999999999996</ele><time>2026-03-28T12:15:25Z</time></trkpt><trkpt lat="42.69846167087223" lon="2.8455277774609486"><ele>38.0</ele><time>2026-03-28T12:15:26Z</time></trkpt><trkpt lat="42.69853251928539" lon="2.8454439662202886"><ele>38.4</ele><time>2026-03-28T12:15:27Z</time></trkpt><trkpt lat="42.69860597311302" lon="2.8453588398281777"><ele>38.8</ele><time>2026-03-28T12:15:28Z</time></trkpt><trkpt lat="42.69867935441967" lon="2.845278289847586"><ele>39.2</ele><time>2026-03-28T12:15:29Z</time></trkpt><trkpt lat="42.69875448183417" lon="2.8451966997162317"><ele>39.6</ele><time>2026-03-28T12:15:30Z</time></trkpt><trkpt lat="42.69883052874281" lon="2.8451113619466972"><ele>40.0</ele><time>2026-03-28T12:15:31Z</time></trkpt><trkpt lat="42.698904914354344" lon="2.8450275839973207"><ele>40.0</ele><time>2026-03-28T12:15:32Z</time></trkpt><trkpt lat="42.69896286645926" lon="2.844963360638036"><ele>40.0</ele><time>2026-03-28T12:15:33Z</time></trkpt><trkpt lat="42.6990378708042" lon="2.8449019066664207"><ele>40.0</ele><time>2026-03-28T12:15:35Z</time></trkpt><trkpt lat="42.699106950073265" lon="2.8448440635793246"><ele>40.0</ele><time>2026-03-28T12:16:06Z</time></trkpt><trkpt lat="42.69921240714481" lon="2.8447481826113963"><ele>40.0</ele><time>2026-03-28T12:16:08Z</time></trkpt><trkpt lat="42.69926989365547" lon="2.844658531075782"><ele>40.0</ele><time>2026-03-28T12:16:09Z</time></trkpt><trkpt lat="42.69933487605218" lon="2.8445526308181344"><ele>40.0</ele><time>2026-03-28T12:16:10Z</time></trkpt><trkpt lat="42.69941998450825" lon="2.8444534349328925"><ele>40.0</ele><time>2026-03-28T12:16:11Z</time></trkpt><trkpt lat="42.69951209422294" lon="2.8443447532416175"><ele>40.0</ele><time>2026-03-28T12:16:12Z</time></trkpt><trkpt lat="42.69961510462716" lon="2.8442475861926098"><ele>40.0</ele><time>2026-03-28T12:16:13Z</time></trkpt><trkpt lat="42.69971112662895" lon="2.844131915756831"><ele>40.0</ele><time>2026-03-28T12:16:14Z</time></trkpt><trkpt lat="42.69981503132522" lon="2.8440078604976162"><ele>40.0</ele><time>2026-03-28T12:16:15Z</time></trkpt><trkpt lat="42.699921137068195" lon="2.8438817443366076"><ele>40.0</ele><time>2026-03-28T12:16:16Z</time></trkpt><trkpt lat="42.70002630252106" lon="2.8437583075396304"><ele>40.0</ele><time>2026-03-28T12:16:17Z</time></trkpt><trkpt lat="42.70013183638672" lon="2.8436388917794453"><ele>40.0</ele><time>2026-03-28T12:16:18Z</time></trkpt><trkpt lat="42.7002352807462" lon="2.8435237877840724"><ele>40.0</ele><time>2026-03-28T12:16:19Z</time></trkpt><trkpt lat="42.700341873695194" lon="2.843409259479118"><ele>40.0</ele><time>2026-03-28T12:16:20Z</time></trkpt><trkpt lat="42.70044981287945" lon="2.843293417575318"><ele>40.0</ele><time>2026-03-28T12:16:21Z</time></trkpt><trkpt lat="42.70055779418731" lon="2.843177946913892"><ele>40.0</ele><time>2026-03-28T12:16:22Z</time></trkpt><trkpt lat="42.700669633254" lon="2.8430598098972966"><ele>40.0</ele><time>2026-03-28T12:16:23Z</time></trkpt><trkpt lat="42.700782481932734" lon="2.842941109201049"><ele>40.0</ele><time>2026-03-28T12:16:24Z</time></trkpt><trkpt lat="42.70089042707838" lon="2.8428067104224866"><ele>40.0</ele><time>2026-03-28T12:16:25Z</time></trkpt><trkpt lat="42.70101091143624" lon="2.8426933320283037"><ele>40.0</ele><time>2026-03-28T12:16:26Z</time></trkpt><trkpt lat="42.70110406595691" lon="2.842565091111051"><ele>40.0</ele><time>2026-03-28T12:16:27Z</time></trkpt><trkpt lat="42.701201557302824" lon="2.8424405971427267"><ele>40.0</ele><time>2026-03-28T12:16:28Z</time></trkpt><trkpt lat="42.70129150549078" lon="2.8423033597529668"><ele>40.2</ele><time>2026-03-28T12:16:29Z</time></trkpt><trkpt lat="42.70136103507086" lon="2.842160023871522"><ele>40.4</ele><time>2026-03-28T12:16:30Z</time></trkpt><trkpt lat="42.70142621072253" lon="2.8420270871614735"><ele>40.599999999999994</ele><time>2026-03-28T12:16:31Z</time></trkpt><trkpt lat="42.70147941436239" lon="2.8419152958315923"><ele>40.8</ele><time>2026-03-28T12:16:32Z</time></trkpt><trkpt lat="42.701520953468844" lon="2.8418282914152444"><ele>41.0</ele><time>2026-03-28T12:16:33Z</time></trkpt><trkpt lat="42.70155808806434" lon="2.8417461328024927"><ele>41.0</ele><time>2026-03-28T12:16:35Z</time></trkpt><trkpt lat="42.701629173971945" lon="2.841582238127515"><ele>41.0</ele><time>2026-03-28T12:16:41.999Z</time></trkpt><trkpt lat="42.70166453583948" lon="2.8414833494480116"><ele>41.0</ele><time>2026-03-28T12:16:42.999Z</time></trkpt><trkpt lat="42.7017225058501" lon="2.841364724244995"><ele>41.0</ele><time>2026-03-28T12:16:43.999Z</time></trkpt><trkpt lat="42.70178168559162" lon="2.841240884970998"><ele>41.0</ele><time>2026-03-28T12:16:44.999Z</time></trkpt><trkpt lat="42.701856494575296" lon="2.8411309328383103"><ele>41.0</ele><time>2026-03-28T12:16:45.999Z</time></trkpt><trkpt lat="42.701919982539074" lon="2.841010663658538"><ele>41.0</ele><time>2026-03-28T12:16:46.999Z</time></trkpt><trkpt lat="42.70198068120847" lon="2.840890975905186"><ele>41.0</ele><time>2026-03-28T12:16:47.999Z</time></trkpt><trkpt lat="42.70210251349785" lon="2.840630762116922"><ele>41.0</ele><time>2026-03-28T12:16:48.999Z</time></trkpt><trkpt lat="42.702155320288384" lon="2.840449365081993"><ele>41.5</ele><time>2026-03-28T12:16:49.999Z</time></trkpt><trkpt lat="42.70217890263888" lon="2.840262109743996"><ele>42.0</ele><time>2026-03-28T12:16:50.999Z</time></trkpt><trkpt lat="42.70218351052663" lon="2.840083251131812"><ele>42.5</ele><time>2026-03-28T12:16:51.999Z</time></trkpt><trkpt lat="42.702190969223075" lon="2.8399241843058456"><ele>43.0</ele><time>2026-03-28T12:16:52.999Z</time></trkpt><trkpt lat="42.702208277984795" lon="2.8397674425439288"><ele>43.0</ele><time>2026-03-28T12:16:53.999Z</time></trkpt><trkpt lat="42.70223201474697" lon="2.839605610205503"><ele>43.0</ele><time>2026-03-28T12:16:54.999Z</time></trkpt><trkpt lat="42.70225569550715" lon="2.8394414523520406"><ele>43.0</ele><time>2026-03-28T12:16:55.999Z</time></trkpt><trkpt lat="42.70229622712109" lon="2.839295503756076"><ele>43.0</ele><time>2026-03-28T12:16:56.999Z</time></trkpt><trkpt lat="42.70230581039398" lon="2.83918496280807"><ele>43.0</ele><time>2026-03-28T12:16:57.999Z</time></trkpt><trkpt lat="42.70236012569033" lon="2.8390778640300645"><ele>42.8</ele><time>2026-03-28T12:16:59.999Z</time></trkpt><trkpt lat="42.70249070949517" lon="2.839115312826459"><ele>42.599999999999994</ele><time>2026-03-28T12:17:10Z</time></trkpt><trkpt lat="42.70256309220098" lon="2.8391692926522665"><ele>42.400000000000006</ele><time>2026-03-28T12:17:11Z</time></trkpt><trkpt lat="42.70264931669349" lon="2.8392268475537783"><ele>42.2</ele><time>2026-03-28T12:17:12Z</time></trkpt><trkpt lat="42.70275023009053" lon="2.8392972480999656"><ele>42.0</ele><time>2026-03-28T12:17:13Z</time></trkpt><trkpt lat="42.702859828904245" lon="2.8393499272799714"><ele>42.75</ele><time>2026-03-28T12:17:14Z</time></trkpt><trkpt lat="42.70299531453085" lon="2.8394015787091074"><ele>43.5</ele><time>2026-03-28T12:17:15Z</time></trkpt><trkpt lat="42.70309977925355" lon="2.839454029341955"><ele>44.25</ele><time>2026-03-28T12:17:16Z</time></trkpt><trkpt lat="42.70316693212904" lon="2.839550496728299"><ele>45.0</ele><time>2026-03-28T12:17:17Z</time></trkpt><trkpt lat="42.70320537296773" lon="2.8396991564482335"><ele>45.0</ele><time>2026-03-28T12:17:18Z</time></trkpt><trkpt lat="42.7032289389816" lon="2.839850624579577"><ele>45.0</ele><time>2026-03-28T12:17:19Z</time></trkpt><trkpt lat="42.70328810254343" lon="2.839946213648759"><ele>45.0</ele><time>2026-03-28T12:17:20Z</time></trkpt><trkpt lat="42.70339800848256" lon="2.8400073749892205"><ele>45.0</ele><time>2026-03-28T12:17:21Z</time></trkpt><trkpt lat="42.70352220779005" lon="2.840071530226227"><ele>44.75</ele><time>2026-03-28T12:17:22Z</time></trkpt><trkpt lat="42.703640844956745" lon="2.8401726598804404"><ele>44.5</ele><time>2026-03-28T12:17:23Z</time></trkpt><trkpt lat="42.703736288640485" lon="2.84030995527723"><ele>44.25</ele><time>2026-03-28T12:17:24Z</time></trkpt><trkpt lat="42.70383259231181" lon="2.840469876984065"><ele>44.0</ele><time>2026-03-28T12:17:25Z</time></trkpt><trkpt lat="42.70394070582981" lon="2.8406117428476763"><ele>44.0</ele><time>2026-03-28T12:17:26Z</time></trkpt><trkpt lat="42.7040332940756" lon="2.8407419496803517"><ele>44.0</ele><time>2026-03-28T12:17:27Z</time></trkpt><trkpt lat="42.70410452366536" lon="2.8408541293822096"><ele>44.0</ele><time>2026-03-28T12:17:28Z</time></trkpt><trkpt lat="42.704180353171054" lon="2.840931503191044"><ele>44.0</ele><time>2026-03-28T12:17:29Z</time></trkpt><trkpt lat="42.70426343502734" lon="2.840977542811414"><ele>44.0</ele><time>2026-03-28T12:17:30Z</time></trkpt><trkpt lat="42.70437223515533" lon="2.8409940830667018"><ele>44.0</ele><time>2026-03-28T12:17:31Z</time></trkpt><trkpt lat="42.70448758710619" lon="2.8410249694840197"><ele>44.0</ele><time>2026-03-28T12:17:32Z</time></trkpt><trkpt lat="42.704559946304535" lon="2.8410829722251365"><ele>44.0</ele><time>2026-03-28T12:17:33Z</time></trkpt><trkpt lat="42.70460038031229" lon="2.8411915673607266"><ele>44.0</ele><time>2026-03-28T12:17:34Z</time></trkpt><trkpt lat="42.70463715618705" lon="2.841320972877363"><ele>44.0</ele><time>2026-03-28T12:17:35Z</time></trkpt><trkpt lat="42.704711100540045" lon="2.841431691488494"><ele>44.0</ele><time>2026-03-28T12:17:36Z</time></trkpt><trkpt lat="42.704808069264246" lon="2.8415304211209347"><ele>44.0</ele><time>2026-03-28T12:17:37Z</time></trkpt><trkpt lat="42.70491828235528" lon="2.8416356295263867"><ele>44.0</ele><time>2026-03-28T12:17:38Z</time></trkpt><trkpt lat="42.7050126170878" lon="2.8417443667361018"><ele>44.0</ele><time>2026-03-28T12:17:39Z</time></trkpt><trkpt lat="42.705092870070104" lon="2.8418566301290786"><ele>44.0</ele><time>2026-03-28T12:17:40Z</time></trkpt><trkpt lat="42.70515361545679" lon="2.841968304411632"><ele>44.0</ele><time>2026-03-28T12:17:41Z</time></trkpt><trkpt lat="42.70521431473031" lon="2.842060831720578"><ele>44.0</ele><time>2026-03-28T12:17:42Z</time></trkpt><trkpt lat="42.70527153877118" lon="2.842144959773296"><ele>44.0</ele><time>2026-03-28T12:17:43Z</time></trkpt><trkpt lat="42.70533124084318" lon="2.8422203314063625"><ele>44.0</ele><time>2026-03-28T12:17:44Z</time></trkpt><trkpt lat="42.705391184956376" lon="2.842280209545921"><ele>44.0</ele><time>2026-03-28T12:17:45Z</time></trkpt><trkpt lat="42.705454497312246" lon="2.8423239219683953"><ele>44.166666666666664</ele><time>2026-03-28T12:17:46Z</time></trkpt><trkpt lat="42.705513611077414" lon="2.8423574067384076"><ele>44.33333333333333</ele><time>2026-03-28T12:17:47Z</time></trkpt><trkpt lat="42.70563248338682" lon="2.842459778610522"><ele>44.5</ele><time>2026-03-28T12:17:49Z</time></trkpt><trkpt lat="42.70569012040073" lon="2.842549713707071"><ele>44.666666666666664</ele><time>2026-03-28T12:17:50Z</time></trkpt><trkpt lat="42.705741733605" lon="2.842617468656631"><ele>44.833333333333336</ele><time>2026-03-28T12:17:51Z</time></trkpt><trkpt lat="42.70581721492801" lon="2.842670633911564"><ele>45.0</ele><time>2026-03-28T12:17:53Z</time></trkpt><trkpt lat="42.70587556089545" lon="2.842621047340852"><ele>45.0</ele><time>2026-03-28T12:18:06Z</time></trkpt><trkpt lat="42.70592667828659" lon="2.842563224974654"><ele>45.0</ele><time>2026-03-28T12:18:07Z</time></trkpt><trkpt lat="42.70590216142528" lon="2.842408035435938"><ele>45.0</ele><time>2026-03-28T12:18:09Z</time></trkpt><trkpt lat="42.70588040775104" lon="2.842241366284014"><ele>45.0</ele><time>2026-03-28T12:18:11Z</time></trkpt><trkpt lat="42.70586590979522" lon="2.84207942086372"><ele>45.0</ele><time>2026-03-28T12:18:13Z</time></trkpt><trkpt lat="42.705864958532885" lon="2.8419405818201056"><ele>45.0</ele><time>2026-03-28T12:18:15Z</time></trkpt><trkpt lat="42.70587123972777" lon="2.8418268174101504"><ele>45.0</ele><time>2026-03-28T12:18:17Z</time></trkpt><trkpt lat="42.70588430738217" lon="2.8417023150589142"><ele>45.0</ele><time>2026-03-28T12:18:19Z</time></trkpt><trkpt lat="42.70589638101857" lon="2.8416110230885514"><ele>45.0</ele><time>2026-03-28T12:18:20Z</time></trkpt><trkpt lat="42.70591486609254" lon="2.8415059751385896"><ele>45.0</ele><time>2026-03-28T12:18:21Z</time></trkpt><trkpt lat="42.705953145469834" lon="2.841339819597335"><ele>44.5</ele><time>2026-03-28T12:18:22Z</time></trkpt><trkpt lat="42.706001246845844" lon="2.841144116519137"><ele>44.0</ele><time>2026-03-28T12:18:23Z</time></trkpt><trkpt lat="42.70603671479893" lon="2.8409942294109443"><ele>43.5</ele><time>2026-03-28T12:18:24Z</time></trkpt><trkpt lat="42.7060704070791" lon="2.8408518467647204"><ele>43.0</ele><time>2026-03-28T12:18:25Z</time></trkpt><trkpt lat="42.70610374839666" lon="2.8407109468838283"><ele>43.0</ele><time>2026-03-28T12:18:26Z</time></trkpt><trkpt lat="42.706140314672496" lon="2.8405564186133363"><ele>43.0</ele><time>2026-03-28T12:18:27Z</time></trkpt><trkpt lat="42.70616318429061" lon="2.840388185583656"><ele>43.0</ele><time>2026-03-28T12:18:28Z</time></trkpt><trkpt lat="42.706201444788306" lon="2.84024643029786"><ele>43.0</ele><time>2026-03-28T12:18:29Z</time></trkpt><trkpt lat="42.70622670326116" lon="2.840127378458195"><ele>43.0</ele><time>2026-03-28T12:18:30Z</time></trkpt><trkpt lat="42.7062471428505" lon="2.840034137655682"><ele>43.4</ele><time>2026-03-28T12:18:31Z</time></trkpt><trkpt lat="42.70630418240107" lon="2.839853817853834"><ele>43.8</ele><time>2026-03-28T12:18:33Z</time></trkpt><trkpt lat="42.70631806927545" lon="2.8397229485100617"><ele>44.2</ele><time>2026-03-28T12:18:34Z</time></trkpt><trkpt lat="42.706361214941175" lon="2.839598383355841"><ele>44.6</ele><time>2026-03-28T12:18:35Z</time></trkpt><trkpt lat="42.70637529449219" lon="2.839457505864948"><ele>45.0</ele><time>2026-03-28T12:18:36Z</time></trkpt><trkpt lat="42.70641788194724" lon="2.839328242739064"><ele>45.166666666666664</ele><time>2026-03-28T12:18:37Z</time></trkpt><trkpt lat="42.70647600638167" lon="2.8392132987112126"><ele>45.333333333333336</ele><time>2026-03-28T12:18:38Z</time></trkpt><trkpt lat="42.70654134469828" lon="2.839125175320654"><ele>45.5</ele><time>2026-03-28T12:18:38.999Z</time></trkpt><trkpt lat="42.70660619239972" lon="2.839063953287415"><ele>45.66666666666667</ele><time>2026-03-28T12:18:39.999Z</time></trkpt><trkpt lat="42.70671091225028" lon="2.8390368484874333"><ele>45.833333333333336</ele><time>2026-03-28T12:18:41.999Z</time></trkpt><trkpt lat="42.70677253437188" lon="2.839062978045124"><ele>46.0</ele><time>2026-03-28T12:18:42.999Z</time></trkpt><trkpt lat="42.7068484371167" lon="2.839093289266043"><ele>46.0</ele><time>2026-03-28T12:18:43.999Z</time></trkpt><trkpt lat="42.70692152282552" lon="2.8390770817317277"><ele>46.0</ele><time>2026-03-28T12:18:44.999Z</time></trkpt><trkpt lat="42.70697342620185" lon="2.839005932975977"><ele>46.0</ele><time>2026-03-28T12:18:45.999Z</time></trkpt><trkpt lat="42.70700007686721" lon="2.8388948618947945"><ele>46.0</ele><time>2026-03-28T12:18:46.999Z</time></trkpt><trkpt lat="42.70696927848077" lon="2.8387728097166534"><ele>46.0</ele><time>2026-03-28T12:18:47.999Z</time></trkpt><trkpt lat="42.70689687496062" lon="2.8386932320518343"><ele>46.0</ele><time>2026-03-28T12:18:48.999Z</time></trkpt><trkpt lat="42.70678259279534" lon="2.8386156838100534"><ele>46.0</ele><time>2026-03-28T12:18:49.999Z</time></trkpt><trkpt lat="42.706692250081495" lon="2.838477719300445"><ele>46.0</ele><time>2026-03-28T12:18:50.999Z</time></trkpt><trkpt lat="42.706617906725604" lon="2.8382806459727314"><ele>46.0</ele><time>2026-03-28T12:18:51.999Z</time></trkpt><trkpt lat="42.70653609000855" lon="2.838048149973718"><ele>46.66666666666667</ele><time>2026-03-28T12:18:52.999Z</time></trkpt><trkpt lat="42.70644423713099" lon="2.837795871595588"><ele>47.333333333333336</ele><time>2026-03-28T12:18:53.999Z</time></trkpt><trkpt lat="42.70636065491954" lon="2.837579733426296"><ele>48.0</ele><time>2026-03-28T12:18:54.999Z</time></trkpt><trkpt lat="42.7062873054468" lon="2.837400718311147"><ele>48.25</ele><time>2026-03-28T12:18:55.999Z</time></trkpt><trkpt lat="42.706219122222095" lon="2.8372363430222505"><ele>48.5</ele><time>2026-03-28T12:18:56.999Z</time></trkpt><trkpt lat="42.706163889104445" lon="2.8370892740951104"><ele>48.75</ele><time>2026-03-28T12:18:57.999Z</time></trkpt><trkpt lat="42.7061325747293" lon="2.836958132737118"><ele>49.0</ele><time>2026-03-28T12:18:58.999Z</time></trkpt><trkpt lat="42.70613138359871" lon="2.8368245372375567"><ele>48.75</ele><time>2026-03-28T12:18:59.999Z</time></trkpt><trkpt lat="42.70613393460451" lon="2.83668556621922"><ele>48.5</ele><time>2026-03-28T12:19:00.999Z</time></trkpt><trkpt lat="42.70608496497525" lon="2.836553839189323"><ele>48.25</ele><time>2026-03-28T12:19:01.999Z</time></trkpt><trkpt lat="42.7059912910376" lon="2.836413924773436"><ele>48.0</ele><time>2026-03-28T12:19:02.999Z</time></trkpt><trkpt lat="42.705886262910106" lon="2.8362263953418854"><ele>47.666666666666664</ele><time>2026-03-28T12:19:03.999Z</time></trkpt><trkpt lat="42.70580108053653" lon="2.8360112976305647"><ele>47.33333333333333</ele><time>2026-03-28T12:19:04.999Z</time></trkpt><trkpt lat="42.70573413512551" lon="2.835822307178309"><ele>47.0</ele><time>2026-03-28T12:19:05.999Z</time></trkpt><trkpt lat="42.705651496037326" lon="2.8356209415668157"><ele>47.0</ele><time>2026-03-28T12:19:06.999Z</time></trkpt><trkpt lat="42.70556659870462" lon="2.835414591334134"><ele>47.0</ele><time>2026-03-28T12:19:08Z</time></trkpt><trkpt lat="42.70548860334021" lon="2.8352091624732942"><ele>47.0</ele><time>2026-03-28T12:19:09Z</time></trkpt><trkpt lat="42.70541192329293" lon="2.8349913762473085"><ele>47.0</ele><time>2026-03-28T12:19:10Z</time></trkpt><trkpt lat="42.70533027451936" lon="2.8347730144860748"><ele>47.0</ele><time>2026-03-28T12:19:11Z</time></trkpt><trkpt lat="42.705244339221345" lon="2.8345498801700844"><ele>47.0</ele><time>2026-03-28T12:19:12Z</time></trkpt><trkpt lat="42.7051649205577" lon="2.834342564314892"><ele>47.0</ele><time>2026-03-28T12:19:13Z</time></trkpt><trkpt lat="42.70509670072137" lon="2.8341731291311425"><ele>47.0</ele><time>2026-03-28T12:19:14Z</time></trkpt><trkpt lat="42.70502437365243" lon="2.833995108339237"><ele>47.0</ele><time>2026-03-28T12:19:15Z</time></trkpt><trkpt lat="42.70495083305169" lon="2.8338182797736944"><ele>47.0</ele><time>2026-03-28T12:19:16Z</time></trkpt><trkpt lat="42.704878920083644" lon="2.8336515030189977"><ele>47.0</ele><time>2026-03-28T12:19:17Z</time></trkpt><trkpt lat="42.704819055818234" lon="2.8335043991842817"><ele>47.0</ele><time>2026-03-28T12:19:18Z</time></trkpt><trkpt lat="42.704763312584916" lon="2.8333658628798535"><ele>47.0</ele><time>2026-03-28T12:19:19Z</time></trkpt><trkpt lat="42.704707430686184" lon="2.833238155473661"><ele>47.0</ele><time>2026-03-28T12:19:20Z</time></trkpt><trkpt lat="42.70465067349938" lon="2.83310384234243"><ele>47.0</ele><time>2026-03-28T12:19:21Z</time></trkpt><trkpt lat="42.70459780217403" lon="2.832977288441966"><ele>47.0</ele><time>2026-03-28T12:19:22Z</time></trkpt><trkpt lat="42.70455519323907" lon="2.832862182427797"><ele>47.0</ele><time>2026-03-28T12:19:23Z</time></trkpt><trkpt lat="42.7045149805223" lon="2.832754639658181"><ele>47.0</ele><time>2026-03-28T12:19:24Z</time></trkpt><trkpt lat="42.70448432676027" lon="2.832665576444758"><ele>47.0</ele><time>2026-03-28T12:19:25Z</time></trkpt><trkpt lat="42.70445637059786" lon="2.832571982947801"><ele>47.0</ele><time>2026-03-28T12:19:26Z</time></trkpt><trkpt lat="42.70443524187606" lon="2.832465915401701"><ele>47.166666666666664</ele><time>2026-03-28T12:19:27Z</time></trkpt><trkpt lat="42.70442051254667" lon="2.8323652769748513"><ele>47.33333333333333</ele><time>2026-03-28T12:19:28Z</time></trkpt><trkpt lat="42.70441055875697" lon="2.832271540956645"><ele>47.5</ele><time>2026-03-28T12:19:29Z</time></trkpt><trkpt lat="42.70438740966849" lon="2.8321798891041103"><ele>47.666666666666664</ele><time>2026-03-28T12:19:30Z</time></trkpt><trkpt lat="42.70434027346875" lon="2.8321047261793693"><ele>47.833333333333336</ele><time>2026-03-28T12:19:31Z</time></trkpt><trkpt lat="42.704266773134535" lon="2.8320217871862714"><ele>48.0</ele><time>2026-03-28T12:19:32Z</time></trkpt><trkpt lat="42.70417021923848" lon="2.831916071172644"><ele>47.666666666666664</ele><time>2026-03-28T12:19:33Z</time></trkpt><trkpt lat="42.70407504028976" lon="2.8317571243665545"><ele>47.33333333333333</ele><time>2026-03-28T12:19:34Z</time></trkpt><trkpt lat="42.704006541171694" lon="2.8315715059834172"><ele>47.0</ele><time>2026-03-28T12:19:35Z</time></trkpt><trkpt lat="42.70393823424257" lon="2.831372250048588"><ele>47.0</ele><time>2026-03-28T12:19:36Z</time></trkpt><trkpt lat="42.703859536616044" lon="2.8311532069594043"><ele>47.0</ele><time>2026-03-28T12:19:37Z</time></trkpt><trkpt lat="42.70376185439327" lon="2.8309163066736795"><ele>47.0</ele><time>2026-03-28T12:19:38Z</time></trkpt><trkpt lat="42.703680102260904" lon="2.830714010460196"><ele>47.0</ele><time>2026-03-28T12:19:39Z</time></trkpt><trkpt lat="42.70360832470965" lon="2.830529594253048"><ele>47.0</ele><time>2026-03-28T12:19:40Z</time></trkpt><trkpt lat="42.703538210614965" lon="2.8303534749840735"><ele>47.0</ele><time>2026-03-28T12:19:41Z</time></trkpt><trkpt lat="42.70347718422549" lon="2.8301726332001715"><ele>47.0</ele><time>2026-03-28T12:19:42Z</time></trkpt><trkpt lat="42.70340099050194" lon="2.8299802076078864"><ele>47.0</ele><time>2026-03-28T12:19:43Z</time></trkpt><trkpt lat="42.70331487118567" lon="2.829762505356866"><ele>47.0</ele><time>2026-03-28T12:19:44Z</time></trkpt><trkpt lat="42.70321718564643" lon="2.8295155650853907"><ele>47.0</ele><time>2026-03-28T12:19:45Z</time></trkpt><trkpt lat="42.703113008617734" lon="2.8292860548459946"><ele>47.33333333333333</ele><time>2026-03-28T12:19:46Z</time></trkpt><trkpt lat="42.703026612237174" lon="2.829055663829337"><ele>47.666666666666664</ele><time>2026-03-28T12:19:47Z</time></trkpt><trkpt lat="42.7029366767472" lon="2.828828777750263"><ele>48.0</ele><time>2026-03-28T12:19:48Z</time></trkpt><trkpt lat="42.702847522687335" lon="2.8285989891284147"><ele>47.666666666666664</ele><time>2026-03-28T12:19:49Z</time></trkpt><trkpt lat="42.702759177311385" lon="2.8283727568358943"><ele>47.33333333333333</ele><time>2026-03-28T12:19:50Z</time></trkpt><trkpt lat="42.70266061481681" lon="2.8281238444888435"><ele>47.0</ele><time>2026-03-28T12:19:51Z</time></trkpt><trkpt lat="42.70256317825224" lon="2.827884694062444"><ele>47.0</ele><time>2026-03-28T12:19:52Z</time></trkpt><trkpt lat="42.702484041708566" lon="2.8276806686616482"><ele>47.0</ele><time>2026-03-28T12:19:53Z</time></trkpt><trkpt lat="42.702410880781564" lon="2.827487601033964"><ele>47.0</ele><time>2026-03-28T12:19:54Z</time></trkpt><trkpt lat="42.70234630032322" lon="2.8273195995509104"><ele>47.0</ele><time>2026-03-28T12:19:55Z</time></trkpt><trkpt lat="42.70227622011309" lon="2.8271499516955303"><ele>47.0</ele><time>2026-03-28T12:19:56Z</time></trkpt><trkpt lat="42.70220715855461" lon="2.826987680123384"><ele>47.0</ele><time>2026-03-28T12:19:57Z</time></trkpt><trkpt lat="42.70214081862807" lon="2.8268280626439117"><ele>47.0</ele><time>2026-03-28T12:19:58Z</time></trkpt><trkpt lat="42.70207975709589" lon="2.826658592724424"><ele>47.5</ele><time>2026-03-28T12:19:59Z</time></trkpt><trkpt lat="42.702019427352056" lon="2.8264884035119517"><ele>48.0</ele><time>2026-03-28T12:20:00Z</time></trkpt><trkpt lat="42.70196540338413" lon="2.8263361256274617"><ele>48.5</ele><time>2026-03-28T12:20:01Z</time></trkpt><trkpt lat="42.701931831716024" lon="2.8262046575462807"><ele>49.0</ele><time>2026-03-28T12:20:02Z</time></trkpt><trkpt lat="42.7019071660194" lon="2.8260635791331143"><ele>49.2</ele><time>2026-03-28T12:20:03Z</time></trkpt><trkpt lat="42.70187086358577" lon="2.825927959569135"><ele>49.400000000000006</ele><time>2026-03-28T12:20:04Z</time></trkpt><trkpt lat="42.701812096637404" lon="2.8258257113383345"><ele>49.6</ele><time>2026-03-28T12:20:05Z</time></trkpt><trkpt lat="42.70173276012401" lon="2.8257258488765307"><ele>49.8</ele><time>2026-03-28T12:20:06Z</time></trkpt><trkpt lat="42.701664017952346" lon="2.8255940754163307"><ele>50.0</ele><time>2026-03-28T12:20:07Z</time></trkpt><trkpt lat="42.701620572504595" lon="2.8254339521091647"><ele>50.0</ele><time>2026-03-28T12:20:08Z</time></trkpt><trkpt lat="42.70154185487511" lon="2.82528071497278"><ele>50.0</ele><time>2026-03-28T12:20:09Z</time></trkpt><trkpt lat="42.701455640319274" lon="2.8250693316740967"><ele>50.0</ele><time>2026-03-28T12:20:10Z</time></trkpt><trkpt lat="42.70138080929745" lon="2.824894682553288"><ele>50.0</ele><time>2026-03-28T12:20:11Z</time></trkpt><trkpt lat="42.701317652529966" lon="2.8247422490543506"><ele>50.0</ele><time>2026-03-28T12:20:12Z</time></trkpt><trkpt lat="42.70125441473276" lon="2.824577224550553"><ele>50.0</ele><time>2026-03-28T12:20:13Z</time></trkpt><trkpt lat="42.701190614451626" lon="2.824402366359954"><ele>50.0</ele><time>2026-03-28T12:20:14Z</time></trkpt><trkpt lat="42.701114097052056" lon="2.82419667345783"><ele>51.0</ele><time>2026-03-28T12:20:15Z</time></trkpt><trkpt lat="42.7010337662087" lon="2.8239985503220137"><ele>52.0</ele><time>2026-03-28T12:20:16Z</time></trkpt><trkpt lat="42.700949901034576" lon="2.8237732990813194"><ele>53.0</ele><time>2026-03-28T12:20:17Z</time></trkpt><trkpt lat="42.70087645396431" lon="2.823567027948377"><ele>52.25</ele><time>2026-03-28T12:20:18Z</time></trkpt><trkpt lat="42.7007952825463" lon="2.8234072461977804"><ele>51.5</ele><time>2026-03-28T12:20:19Z</time></trkpt><trkpt lat="42.700753705281976" lon="2.8232373966741293"><ele>50.75</ele><time>2026-03-28T12:20:20Z</time></trkpt><trkpt lat="42.70072672568444" lon="2.8230834345955227"><ele>50.0</ele><time>2026-03-28T12:20:21Z</time></trkpt><trkpt lat="42.70073231755324" lon="2.822930055374081"><ele>50.0</ele><time>2026-03-28T12:20:22Z</time></trkpt><trkpt lat="42.70075560919577" lon="2.8227654016992547"><ele>50.0</ele><time>2026-03-28T12:20:23Z</time></trkpt><trkpt lat="42.70077550664476" lon="2.8225491586453773"><ele>50.0</ele><time>2026-03-28T12:20:24Z</time></trkpt><trkpt lat="42.70081196861028" lon="2.8223752143817884"><ele>50.0</ele><time>2026-03-28T12:20:25Z</time></trkpt><trkpt lat="42.70085186858055" lon="2.822253002416856"><ele>50.16666666666667</ele><time>2026-03-28T12:20:26Z</time></trkpt><trkpt lat="42.70088792888701" lon="2.8221493510295925"><ele>50.333333333333336</ele><time>2026-03-28T12:20:27Z</time></trkpt><trkpt lat="42.700918543509765" lon="2.8220508068436625"><ele>50.5</ele><time>2026-03-28T12:20:28Z</time></trkpt><trkpt lat="42.70094518916234" lon="2.821960598205601"><ele>50.66666666666667</ele><time>2026-03-28T12:20:29Z</time></trkpt><trkpt lat="42.70099722647778" lon="2.82178906217051"><ele>50.833333333333336</ele><time>2026-03-28T12:20:31Z</time></trkpt><trkpt lat="42.70102277083452" lon="2.821700939702695"><ele>51.0</ele><time>2026-03-28T12:20:32Z</time></trkpt><trkpt lat="42.701075689888576" lon="2.8215300560969414"><ele>51.0</ele><time>2026-03-28T12:20:34Z</time></trkpt><trkpt lat="42.70109778755167" lon="2.8214274689699868"><ele>51.0</ele><time>2026-03-28T12:20:35Z</time></trkpt><trkpt lat="42.70113367032863" lon="2.8213420941240557"><ele>51.0</ele><time>2026-03-28T12:20:36Z</time></trkpt><trkpt lat="42.70114499195046" lon="2.821244972332702"><ele>51.0</ele><time>2026-03-28T12:20:37Z</time></trkpt><trkpt lat="42.701173850078256" lon="2.821157282573871"><ele>51.0</ele><time>2026-03-28T12:20:38Z</time></trkpt><trkpt lat="42.701199100701004" lon="2.8210684438037443"><ele>51.0</ele><time>2026-03-28T12:20:39Z</time></trkpt><trkpt lat="42.70122397984524" lon="2.820976986522534"><ele>51.0</ele><time>2026-03-28T12:20:40Z</time></trkpt><trkpt lat="42.70125251240379" lon="2.8208806554302255"><ele>51.0</ele><time>2026-03-28T12:20:41Z</time></trkpt><trkpt lat="42.70128190172801" lon="2.8207773378463834"><ele>51.0</ele><time>2026-03-28T12:20:42Z</time></trkpt><trkpt lat="42.701319887701715" lon="2.82066250348557"><ele>51.0</ele><time>2026-03-28T12:20:43Z</time></trkpt><trkpt lat="42.70135618127353" lon="2.8205193281546452"><ele>51.0</ele><time>2026-03-28T12:20:44Z</time></trkpt><trkpt lat="42.70140054544638" lon="2.8203680405591482"><ele>51.0</ele><time>2026-03-28T12:20:44.999Z</time></trkpt><trkpt lat="42.70145177402407" lon="2.8202019572620185"><ele>51.25</ele><time>2026-03-28T12:20:45.999Z</time></trkpt><trkpt lat="42.70150071280957" lon="2.82003483887862"><ele>51.5</ele><time>2026-03-28T12:20:46.999Z</time></trkpt><trkpt lat="42.70155081944709" lon="2.8198803130060206"><ele>51.75</ele><time>2026-03-28T12:20:47.999Z</time></trkpt><trkpt lat="42.70159459687194" lon="2.819705289341853"><ele>52.0</ele><time>2026-03-28T12:20:48.999Z</time></trkpt><trkpt lat="42.70165530149312" lon="2.819500155422395"><ele>52.0</ele><time>2026-03-28T12:20:49.999Z</time></trkpt><trkpt lat="42.70170745415901" lon="2.8193221075861135"><ele>52.0</ele><time>2026-03-28T12:20:50.999Z</time></trkpt><trkpt lat="42.701753889394304" lon="2.8191731617883042"><ele>52.0</ele><time>2026-03-28T12:20:51.999Z</time></trkpt><trkpt lat="42.70179224187108" lon="2.819033788453569"><ele>52.0</ele><time>2026-03-28T12:20:52.999Z</time></trkpt><trkpt lat="42.70183089787972" lon="2.81890428232293"><ele>52.166666666666664</ele><time>2026-03-28T12:20:53.999Z</time></trkpt><trkpt lat="42.70186439922969" lon="2.8187972184032177"><ele>52.33333333333333</ele><time>2026-03-28T12:20:54.999Z</time></trkpt><trkpt lat="42.7018921883221" lon="2.818697244266699"><ele>52.5</ele><time>2026-03-28T12:20:55.999Z</time></trkpt><trkpt lat="42.70192114363696" lon="2.818609087473419"><ele>52.66666666666667</ele><time>2026-03-28T12:20:56.999Z</time></trkpt><trkpt lat="42.70194638790674" lon="2.818530171558697"><ele>52.833333333333336</ele><time>2026-03-28T12:20:57.999Z</time></trkpt><trkpt lat="42.701995486961124" lon="2.8183799985590623"><ele>53.0</ele><time>2026-03-28T12:20:59.999Z</time></trkpt><trkpt lat="42.702052580616" lon="2.818305873989253"><ele>53.0</ele><time>2026-03-28T12:21:00.999Z</time></trkpt><trkpt lat="42.70207449592904" lon="2.8182000753909366"><ele>53.0</ele><time>2026-03-28T12:21:02.999Z</time></trkpt><trkpt lat="42.70196958275346" lon="2.8181380147435977"><ele>53.0</ele><time>2026-03-28T12:21:03.999Z</time></trkpt><trkpt lat="42.70184143026028" lon="2.818312844721105"><ele>53.0</ele><time>2026-03-28T12:21:05.999Z</time></trkpt><trkpt lat="42.70178089683886" lon="2.8184193371907824"><ele>53.0</ele><time>2026-03-28T12:21:06.999Z</time></trkpt><trkpt lat="42.701674059781865" lon="2.8184222965333436"><ele>53.0</ele><time>2026-03-28T12:21:07.999Z</time></trkpt><trkpt lat="42.70160157659537" lon="2.8184227633234546"><ele>53.0</ele><time>2026-03-28T12:21:08.999Z</time></trkpt><trkpt lat="42.70149810578916" lon="2.8184475237579285"><ele>53.0</ele><time>2026-03-28T12:21:10.999Z</time></trkpt><trkpt lat="42.70143577801093" lon="2.818464638090024"><ele>53.0</ele><time>2026-03-28T12:21:13Z</time></trkpt><trkpt lat="42.70132451805497" lon="2.8185061410528585"><ele>53.0</ele><time>2026-03-28T12:21:15Z</time></trkpt><trkpt lat="42.70123799262344" lon="2.8184971497904434"><ele>53.0</ele><time>2026-03-28T12:21:17Z</time></trkpt><trkpt lat="42.701232576090895" lon="2.8182632699784094"><ele>53.0</ele><time>2026-03-28T12:21:19Z</time></trkpt><trkpt lat="42.7012366603825" lon="2.8181586610676983"><ele>53.0</ele><time>2026-03-28T12:21:20Z</time></trkpt><trkpt lat="42.701230267073264" lon="2.8180229483239105"><ele>53.0</ele><time>2026-03-28T12:21:22Z</time></trkpt><trkpt lat="42.701226593139225" lon="2.817912549961827"><ele>53.00000000000001</ele><time>2026-03-28T12:21:24Z</time></trkpt><trkpt lat="42.70123025793451" lon="2.817826947504053"><ele>53.0</ele><time>2026-03-28T12:21:25Z</time></trkpt><trkpt lat="42.70123200451762" lon="2.8177159359607638"><ele>53.0</ele><time>2026-03-28T12:21:26Z</time></trkpt><trkpt lat="42.70123171516926" lon="2.8175892990812956"><ele>53.0</ele><time>2026-03-28T12:21:27Z</time></trkpt><trkpt lat="42.70123625278842" lon="2.8174685707999427"><ele>53.00000000000001</ele><time>2026-03-28T12:21:28Z</time></trkpt><trkpt lat="42.701231909221576" lon="2.8173264683002635"><ele>53.0</ele><time>2026-03-28T12:21:29Z</time></trkpt><trkpt lat="42.701236991143766" lon="2.8171741259323344"><ele>53.00000000000001</ele><time>2026-03-28T12:21:30Z</time></trkpt><trkpt lat="42.70123397496798" lon="2.817043024138833"><ele>53.0</ele><time>2026-03-28T12:21:31Z</time></trkpt><trkpt lat="42.70123046171392" lon="2.8169208129041845"><ele>53.0</ele><time>2026-03-28T12:21:32Z</time></trkpt><trkpt lat="42.70122575199432" lon="2.8168115934982394"><ele>53.0</ele><time>2026-03-28T12:21:33Z</time></trkpt><trkpt lat="42.701217860094886" lon="2.8167234835743624"><ele>53.00000000000001</ele><time>2026-03-28T12:21:34Z</time></trkpt><trkpt lat="42.70121606333768" lon="2.816596426093994"><ele>53.0</ele><time>2026-03-28T12:21:36Z</time></trkpt><trkpt lat="42.7012142802608" lon="2.816504258702565"><ele>53.0</ele><time>2026-03-28T12:21:38Z</time></trkpt><trkpt lat="42.70121351013831" lon="2.8167663707392587"><ele>53.0</ele><time>2026-03-28T12:21:49Z</time></trkpt><trkpt lat="42.70122650142962" lon="2.8169638032410695"><ele>53.0</ele><time>2026-03-28T12:21:52Z</time></trkpt><trkpt lat="42.70120388807593" lon="2.8171707949480855"><ele>53.0</ele><time>2026-03-28T12:21:53Z</time></trkpt><trkpt lat="42.701206765704576" lon="2.8173766251716543"><ele>53.0</ele><time>2026-03-28T12:21:54Z</time></trkpt><trkpt lat="42.70120887282723" lon="2.8175273429931313"><ele>53.0</ele><time>2026-03-28T12:21:55Z</time></trkpt><trkpt lat="42.70122231354949" lon="2.817650683799097"><ele>53.0</ele><time>2026-03-28T12:21:56Z</time></trkpt><trkpt lat="42.701220348847" lon="2.817790248768759"><ele>53.16666666666667</ele><time>2026-03-28T12:21:57Z</time></trkpt><trkpt lat="42.701217784989836" lon="2.8179272609734585"><ele>53.333333333333336</ele><time>2026-03-28T12:21:58Z</time></trkpt><trkpt lat="42.70121938250092" lon="2.818036815781888"><ele>53.5</ele><time>2026-03-28T12:21:59Z</time></trkpt><trkpt lat="42.70122032141326" lon="2.818131872728629"><ele>53.66666666666667</ele><time>2026-03-28T12:22:00Z</time></trkpt><trkpt lat="42.70122478231802" lon="2.818235104873489"><ele>53.833333333333336</ele><time>2026-03-28T12:22:01Z</time></trkpt><trkpt lat="42.70122597889378" lon="2.8183511849874385"><ele>54.0</ele><time>2026-03-28T12:22:02Z</time></trkpt><trkpt lat="42.70121767770872" lon="2.8184366907257887"><ele>53.75</ele><time>2026-03-28T12:22:03Z</time></trkpt><trkpt lat="42.701190940193996" lon="2.8185361270135894"><ele>53.5</ele><time>2026-03-28T12:22:06Z</time></trkpt><trkpt lat="42.701072443731256" lon="2.8185837057369065"><ele>53.25</ele><time>2026-03-28T12:22:08Z</time></trkpt><trkpt lat="42.70095355885682" lon="2.818610831472022"><ele>53.0</ele><time>2026-03-28T12:22:09Z</time></trkpt><trkpt lat="42.700808398502566" lon="2.818661558020952"><ele>52.5</ele><time>2026-03-28T12:22:10Z</time></trkpt><trkpt lat="42.700652289623896" lon="2.818716141459874"><ele>52.0</ele><time>2026-03-28T12:22:11Z</time></trkpt><trkpt lat="42.70054499833255" lon="2.818752192278583"><ele>51.5</ele><time>2026-03-28T12:22:12Z</time></trkpt><trkpt lat="42.70045330055466" lon="2.8187853592297145"><ele>51.0</ele><time>2026-03-28T12:22:13Z</time></trkpt><trkpt lat="42.7003591291388" lon="2.818831389574517"><ele>51.25</ele><time>2026-03-28T12:22:14Z</time></trkpt><trkpt lat="42.70024917963123" lon="2.8188812758715467"><ele>51.5</ele><time>2026-03-28T12:22:15Z</time></trkpt><trkpt lat="42.70013261589426" lon="2.818933377670911"><ele>51.75</ele><time>2026-03-28T12:22:16Z</time></trkpt><trkpt lat="42.70001385476116" lon="2.818987418517613"><ele>52.0</ele><time>2026-03-28T12:22:17Z</time></trkpt><trkpt lat="42.699905497643314" lon="2.819036793672974"><ele>52.0</ele><time>2026-03-28T12:22:18Z</time></trkpt><trkpt lat="42.69981387263207" lon="2.8190725904396685"><ele>52.0</ele><time>2026-03-28T12:22:19Z</time></trkpt><trkpt lat="42.69970473483364" lon="2.819112220738936"><ele>52.0</ele><time>2026-03-28T12:22:21Z</time></trkpt><trkpt lat="42.699612154040146" lon="2.818925681526961"><ele>52.0</ele><time>2026-03-28T12:22:24Z</time></trkpt><trkpt lat="42.699555482199315" lon="2.8188042289882573"><ele>52.0</ele><time>2026-03-28T12:22:25Z</time></trkpt><trkpt lat="42.69950122238888" lon="2.8186898165237957"><ele>52.0</ele><time>2026-03-28T12:22:26Z</time></trkpt><trkpt lat="42.699462574180664" lon="2.818553387277079"><ele>52.0</ele><time>2026-03-28T12:22:27Z</time></trkpt><trkpt lat="42.69940393943432" lon="2.8184318209788057"><ele>52.0</ele><time>2026-03-28T12:22:28Z</time></trkpt><trkpt lat="42.69935913234192" lon="2.818315843786017"><ele>52.0</ele><time>2026-03-28T12:22:29Z</time></trkpt><trkpt lat="42.69931266893409" lon="2.8181987424362256"><ele>52.0</ele><time>2026-03-28T12:22:30Z</time></trkpt><trkpt lat="42.69926760284007" lon="2.8180769176088942"><ele>52.0</ele><time>2026-03-28T12:22:31Z</time></trkpt><trkpt lat="42.69922826249653" lon="2.817942838310701"><ele>52.0</ele><time>2026-03-28T12:22:32Z</time></trkpt><trkpt lat="42.69915479418513" lon="2.817825512249777"><ele>52.0</ele><time>2026-03-28T12:22:33Z</time></trkpt><trkpt lat="42.69908963702037" lon="2.817696218221486"><ele>52.0</ele><time>2026-03-28T12:22:34Z</time></trkpt><trkpt lat="42.69903471267549" lon="2.8175618338340236"><ele>52.0</ele><time>2026-03-28T12:22:35Z</time></trkpt><trkpt lat="42.698988515838586" lon="2.8174385733320193"><ele>52.0</ele><time>2026-03-28T12:22:36Z</time></trkpt><trkpt lat="42.69895071985167" lon="2.8173348303708425"><ele>52.0</ele><time>2026-03-28T12:22:37Z</time></trkpt><trkpt lat="42.69890646169392" lon="2.817208548143122"><ele>52.0</ele><time>2026-03-28T12:22:39Z</time></trkpt><trkpt lat="42.69901090433621" lon="2.8170546613848386"><ele>52.0</ele><time>2026-03-28T12:22:50Z</time></trkpt><trkpt lat="42.69907702849772" lon="2.8169798522246174"><ele>51.99999999999999</ele><time>2026-03-28T12:22:52Z</time></trkpt><trkpt lat="42.699140908384315" lon="2.8169498271404447"><ele>52.0</ele><time>2026-03-28T12:22:55Z</time></trkpt><trkpt lat="42.69922614315694" lon="2.816895002926123"><ele>52.0</ele><time>2026-03-28T12:22:57Z</time></trkpt><trkpt lat="42.69930790568727" lon="2.816867157683142"><ele>52.0</ele><time>2026-03-28T12:22:57.999Z</time></trkpt><trkpt lat="42.69938509005997" lon="2.8168296246673545"><ele>51.99999999999999</ele><time>2026-03-28T12:22:58.999Z</time></trkpt><trkpt lat="42.69946956091868" lon="2.8167873528148015"><ele>52.0</ele><time>2026-03-28T12:22:59.999Z</time></trkpt><trkpt lat="42.6995688860649" lon="2.8167413939176797"><ele>51.99999999999999</ele><time>2026-03-28T12:23:00.999Z</time></trkpt><trkpt lat="42.69964885541979" lon="2.8167005799620624"><ele>52.0</ele><time>2026-03-28T12:23:01.999Z</time></trkpt><trkpt lat="42.69970416354602" lon="2.8166545643330414"><ele>52.0</ele><time>2026-03-28T12:23:02.999Z</time></trkpt><trkpt lat="42.699708122977626" lon="2.8165019886200717"><ele>52.0</ele><time>2026-03-28T12:23:04.999Z</time></trkpt><trkpt lat="42.699695220415535" lon="2.8163908985950434"><ele>51.99999999999999</ele><time>2026-03-28T12:23:05.999Z</time></trkpt><trkpt lat="42.69967757337744" lon="2.8163067611757633"><ele>52.0</ele><time>2026-03-28T12:23:06.999Z</time></trkpt><trkpt lat="42.69956417353742" lon="2.816291403266916"><ele>51.99999999999999</ele><time>2026-03-28T12:23:08.999Z</time></trkpt><trkpt lat="42.699469073415536" lon="2.8163078016265115"><ele>52.0</ele><time>2026-03-28T12:23:09.999Z</time></trkpt><trkpt lat="42.6993627119223" lon="2.816314766099362"><ele>52.0</ele><time>2026-03-28T12:23:10.999Z</time></trkpt><trkpt lat="42.69927294118944" lon="2.8163208528899566"><ele>52.0</ele><time>2026-03-28T12:23:11.999Z</time></trkpt><trkpt lat="42.69920042825341" lon="2.8163209801614997"><ele>51.99999999999999</ele><time>2026-03-28T12:23:12.999Z</time></trkpt><trkpt lat="42.69914489550782" lon="2.816377681265589"><ele>52.0</ele><time>2026-03-28T12:23:13.999Z</time></trkpt><trkpt lat="42.699114118685465" lon="2.8164731755770496"><ele>52.0</ele><time>2026-03-28T12:23:14.999Z</time></trkpt><trkpt lat="42.6990973149404" lon="2.8165998797851364"><ele>52.0</ele><time>2026-03-28T12:23:15.999Z</time></trkpt><trkpt lat="42.6990843216366" lon="2.816734875579303"><ele>52.0</ele><time>2026-03-28T12:23:16.999Z</time></trkpt><trkpt lat="42.699079263347585" lon="2.81686619742325"><ele>52.0</ele><time>2026-03-28T12:23:17.999Z</time></trkpt><trkpt lat="42.699074219335245" lon="2.816965261026425"><ele>52.0</ele><time>2026-03-28T12:23:19Z</time></trkpt><trkpt lat="42.69895573354197" lon="2.817073300784011"><ele>52.0</ele><time>2026-03-28T12:23:21Z</time></trkpt><trkpt lat="42.69891084910449" lon="2.8171928615595085"><ele>52.0</ele><time>2026-03-28T12:23:23Z</time></trkpt><trkpt lat="42.69885994888889" lon="2.816996908600271"><ele>52.0</ele><time>2026-03-28T12:23:27Z</time></trkpt><trkpt lat="42.69884700671404" lon="2.8169107687812143"><ele>52.0</ele><time>2026-03-28T12:23:28Z</time></trkpt><trkpt lat="42.698837004182096" lon="2.8168074807091306"><ele>52.0</ele><time>2026-03-28T12:23:29Z</time></trkpt><trkpt lat="42.69882812999694" lon="2.8167158456855055"><ele>51.8</ele><time>2026-03-28T12:23:30Z</time></trkpt><trkpt lat="42.69884170945878" lon="2.8165584118637095"><ele>51.6</ele><time>2026-03-28T12:23:32Z</time></trkpt><trkpt lat="42.69887437733667" lon="2.8164627613167093"><ele>51.4</ele><time>2026-03-28T12:23:33Z</time></trkpt><trkpt lat="42.6989024699765" lon="2.8163760467648755"><ele>51.199999999999996</ele><time>2026-03-28T12:23:34Z</time></trkpt><trkpt lat="42.698946409725714" lon="2.8162291561898574"><ele>51.0</ele><time>2026-03-28T12:23:36Z</time></trkpt><trkpt lat="42.698972646870175" lon="2.8161395946992003"><ele>51.0</ele><time>2026-03-28T12:23:37Z</time></trkpt><trkpt lat="42.69900086390411" lon="2.8160401053207584"><ele>51.0</ele><time>2026-03-28T12:23:38Z</time></trkpt><trkpt lat="42.69903088138791" lon="2.815938638295636"><ele>51.0</ele><time>2026-03-28T12:23:39Z</time></trkpt><trkpt lat="42.699064538066615" lon="2.8158325409165763"><ele>51.0</ele><time>2026-03-28T12:23:40Z</time></trkpt><trkpt lat="42.69910388360399" lon="2.8157202923382014"><ele>51.0</ele><time>2026-03-28T12:23:41Z</time></trkpt><trkpt lat="42.699138751529574" lon="2.8156032326451887"><ele>51.0</ele><time>2026-03-28T12:23:42Z</time></trkpt><trkpt lat="42.69917889420141" lon="2.815467616887634"><ele>51.0</ele><time>2026-03-28T12:23:43Z</time></trkpt><trkpt lat="42.69920866135435" lon="2.8153209307838174"><ele>51.0</ele><time>2026-03-28T12:23:44Z</time></trkpt><trkpt lat="42.69923825841791" lon="2.8151915337828157"><ele>51.0</ele><time>2026-03-28T12:23:45Z</time></trkpt><trkpt lat="42.69926362660358" lon="2.8150795642260427"><ele>51.0</ele><time>2026-03-28T12:23:46Z</time></trkpt><trkpt lat="42.699273485386314" lon="2.814964431452827"><ele>51.0</ele><time>2026-03-28T12:23:47Z</time></trkpt><trkpt lat="42.69930631638295" lon="2.814850590626499"><ele>51.166666666666664</ele><time>2026-03-28T12:23:48Z</time></trkpt><trkpt lat="42.699339856841036" lon="2.814735447355806"><ele>51.33333333333333</ele><time>2026-03-28T12:23:49Z</time></trkpt><trkpt lat="42.69935930777077" lon="2.8146206098589275"><ele>51.5</ele><time>2026-03-28T12:23:50Z</time></trkpt><trkpt lat="42.69937483897869" lon="2.8145100776810077"><ele>51.666666666666664</ele><time>2026-03-28T12:23:51Z</time></trkpt><trkpt lat="42.69939395111846" lon="2.8143995894625786"><ele>51.83333333333333</ele><time>2026-03-28T12:23:52Z</time></trkpt><trkpt lat="42.69940729780417" lon="2.8143074236490437"><ele>52.0</ele><time>2026-03-28T12:23:53Z</time></trkpt><trkpt lat="42.69961266155103" lon="2.814308457893412"><ele>52.400000000000006</ele><time>2026-03-28T12:23:54Z</time></trkpt><trkpt lat="42.69971269366798" lon="2.8143145852555445"><ele>52.800000000000004</ele><time>2026-03-28T12:23:55Z</time></trkpt><trkpt lat="42.69981839217926" lon="2.814317387832736"><ele>53.2</ele><time>2026-03-28T12:23:56Z</time></trkpt><trkpt lat="42.69990415520998" lon="2.8142889865940615"><ele>53.6</ele><time>2026-03-28T12:23:57Z</time></trkpt><trkpt lat="42.699962414766745" lon="2.8142256051017958"><ele>54.0</ele><time>2026-03-28T12:23:58Z</time></trkpt><trkpt lat="42.70001267619868" lon="2.814130300345653"><ele>54.0</ele><time>2026-03-28T12:23:59Z</time></trkpt><trkpt lat="42.70006860045509" lon="2.813978400057452"><ele>54.0</ele><time>2026-03-28T12:24:00Z</time></trkpt><trkpt lat="42.70012992226735" lon="2.813815955633941"><ele>54.0</ele><time>2026-03-28T12:24:01Z</time></trkpt><trkpt lat="42.70017074437486" lon="2.813675848786755"><ele>54.0</ele><time>2026-03-28T12:24:02Z</time></trkpt><trkpt lat="42.700184074836" lon="2.813513204062579"><ele>54.400000000000006</ele><time>2026-03-28T12:24:03Z</time></trkpt><trkpt lat="42.70017788342447" lon="2.8133329233233555"><ele>54.800000000000004</ele><time>2026-03-28T12:24:04Z</time></trkpt><trkpt lat="42.70015940422311" lon="2.813143837203387"><ele>55.199999999999996</ele><time>2026-03-28T12:24:05Z</time></trkpt><trkpt lat="42.70014493284503" lon="2.8130107033750265"><ele>55.599999999999994</ele><time>2026-03-28T12:24:06Z</time></trkpt><trkpt lat="42.70013379432381" lon="2.8129098621753115"><ele>56.0</ele><time>2026-03-28T12:24:07Z</time></trkpt><trkpt lat="42.700130131574404" lon="2.812819908116909"><ele>56.0</ele><time>2026-03-28T12:24:08Z</time></trkpt><trkpt lat="42.70012400169275" lon="2.8126770454148082"><ele>55.99999999999999</ele><time>2026-03-28T12:24:10Z</time></trkpt><trkpt lat="42.70011708609361" lon="2.8125772516000698"><ele>55.99999999999999</ele><time>2026-03-28T12:24:12Z</time></trkpt><trkpt lat="42.7001080323049" lon="2.8124412049990166"><ele>56.0</ele><time>2026-03-28T12:24:13Z</time></trkpt><trkpt lat="42.70009854115781" lon="2.8123093777586416"><ele>56.0</ele><time>2026-03-28T12:24:14Z</time></trkpt><trkpt lat="42.7000852502333" lon="2.8121670129115626"><ele>55.599999999999994</ele><time>2026-03-28T12:24:15Z</time></trkpt><trkpt lat="42.70008064712562" lon="2.8120255491639514"><ele>55.199999999999996</ele><time>2026-03-28T12:24:16Z</time></trkpt><trkpt lat="42.70005610640667" lon="2.8118859947904955"><ele>54.800000000000004</ele><time>2026-03-28T12:24:17Z</time></trkpt><trkpt lat="42.70003135881982" lon="2.8117271001373028"><ele>54.400000000000006</ele><time>2026-03-28T12:24:18Z</time></trkpt><trkpt lat="42.700021060611334" lon="2.8115672621382317"><ele>54.0</ele><time>2026-03-28T12:24:19Z</time></trkpt><trkpt lat="42.699996795115815" lon="2.811470437659619"><ele>54.0</ele><time>2026-03-28T12:24:20Z</time></trkpt><trkpt lat="42.69995264392593" lon="2.8113240687050034"><ele>54.00000000000001</ele><time>2026-03-28T12:24:22Z</time></trkpt><trkpt lat="42.69993890135707" lon="2.811227704109171"><ele>54.00000000000001</ele><time>2026-03-28T12:24:23Z</time></trkpt><trkpt lat="42.69990064227677" lon="2.8110476209401414"><ele>54.0</ele><time>2026-03-28T12:24:25Z</time></trkpt><trkpt lat="42.69987903026107" lon="2.8109391527366454"><ele>54.0</ele><time>2026-03-28T12:24:26Z</time></trkpt><trkpt lat="42.69986200898315" lon="2.8108423525993462"><ele>54.0</ele><time>2026-03-28T12:24:27Z</time></trkpt><trkpt lat="42.6998546639629" lon="2.8107490809620446"><ele>54.0</ele><time>2026-03-28T12:24:28Z</time></trkpt><trkpt lat="42.69984469265314" lon="2.810614116238459"><ele>54.0</ele><time>2026-03-28T12:24:29Z</time></trkpt><trkpt lat="42.69983282460956" lon="2.810478988059029"><ele>54.0</ele><time>2026-03-28T12:24:30Z</time></trkpt><trkpt lat="42.69981354839461" lon="2.810347432720433"><ele>54.0</ele><time>2026-03-28T12:24:31Z</time></trkpt><trkpt lat="42.69978993888719" lon="2.81024722307158"><ele>54.0</ele><time>2026-03-28T12:24:32Z</time></trkpt><trkpt lat="42.699760005421965" lon="2.810150575458449"><ele>54.0</ele><time>2026-03-28T12:24:33Z</time></trkpt><trkpt lat="42.699731100217925" lon="2.8100484637060776"><ele>54.0</ele><time>2026-03-28T12:24:34Z</time></trkpt><trkpt lat="42.69971150291616" lon="2.8099439340363883"><ele>54.0</ele><time>2026-03-28T12:24:35Z</time></trkpt><trkpt lat="42.69968270834301" lon="2.809857462153383"><ele>54.0</ele><time>2026-03-28T12:24:36Z</time></trkpt><trkpt lat="42.69964113418776" lon="2.809751593731439"><ele>54.0</ele><time>2026-03-28T12:24:37Z</time></trkpt><trkpt lat="42.699613149351535" lon="2.809664254268793"><ele>54.0</ele><time>2026-03-28T12:24:38Z</time></trkpt><trkpt lat="42.699539435080226" lon="2.8095702790277124"><ele>54.0</ele><time>2026-03-28T12:24:40Z</time></trkpt><trkpt lat="42.69946723218437" lon="2.809531968814133"><ele>54.0</ele><time>2026-03-28T12:24:42Z</time></trkpt><trkpt lat="42.699463269614874" lon="2.809445754261653"><ele>54.0</ele><time>2026-03-28T12:24:46Z</time></trkpt><trkpt lat="42.699394083560925" lon="2.8094641277506707"><ele>54.0</ele><time>2026-03-28T12:25:12.999Z</time></trkpt><trkpt lat="42.69934399926106" lon="2.809522815893779"><ele>54.0</ele><time>2026-03-28T12:25:13.999Z</time></trkpt><trkpt lat="42.69929426583839" lon="2.8095865610804505"><ele>54.0</ele><time>2026-03-28T12:25:14.999Z</time></trkpt><trkpt lat="42.699242157465136" lon="2.809652829884946"><ele>54.0</ele><time>2026-03-28T12:25:15.999Z</time></trkpt><trkpt lat="42.69914285420609" lon="2.809744510726913"><ele>53.833333333333336</ele><time>2026-03-28T12:25:17.999Z</time></trkpt><trkpt lat="42.6990877426981" lon="2.8097900611228717"><ele>53.66666666666667</ele><time>2026-03-28T12:25:18.999Z</time></trkpt><trkpt lat="42.69902451044705" lon="2.8098522128220313"><ele>53.5</ele><time>2026-03-28T12:25:19.999Z</time></trkpt><trkpt lat="42.69897399760608" lon="2.8099038070439093"><ele>53.333333333333336</ele><time>2026-03-28T12:25:20.999Z</time></trkpt><trkpt lat="42.69890877084247" lon="2.809967778592359"><ele>53.16666666666667</ele><time>2026-03-28T12:25:21.999Z</time></trkpt><trkpt lat="42.6988331673242" lon="2.8100093537736495"><ele>53.0</ele><time>2026-03-28T12:25:22.999Z</time></trkpt><trkpt lat="42.698731400962345" lon="2.8100301061927717"><ele>53.0</ele><time>2026-03-28T12:25:23.999Z</time></trkpt><trkpt lat="42.69861707021693" lon="2.810041070958708"><ele>53.0</ele><time>2026-03-28T12:25:25Z</time></trkpt><trkpt lat="42.69848824971275" lon="2.8100592301240304"><ele>53.0</ele><time>2026-03-28T12:25:26Z</time></trkpt><trkpt lat="42.69831731158075" lon="2.8100876017708654"><ele>53.0</ele><time>2026-03-28T12:25:27Z</time></trkpt><trkpt lat="42.69813737702795" lon="2.8101043518508595"><ele>53.0</ele><time>2026-03-28T12:25:28Z</time></trkpt><trkpt lat="42.69799181439239" lon="2.8101344748121337"><ele>53.0</ele><time>2026-03-28T12:25:29Z</time></trkpt><trkpt lat="42.69786001073493" lon="2.81016157052403"><ele>53.0</ele><time>2026-03-28T12:25:30Z</time></trkpt><trkpt lat="42.69774343146828" lon="2.8101853137560493"><ele>53.0</ele><time>2026-03-28T12:25:31Z</time></trkpt><trkpt lat="42.69763782473356" lon="2.810205872699532"><ele>53.0</ele><time>2026-03-28T12:25:32Z</time></trkpt><trkpt lat="42.697540047711946" lon="2.8102169509750077"><ele>53.0</ele><time>2026-03-28T12:25:33Z</time></trkpt><trkpt lat="42.69742508035179" lon="2.8100119785113673"><ele>53.0</ele><time>2026-03-28T12:25:34Z</time></trkpt><trkpt lat="42.697346830322466" lon="2.8100285981384308"><ele>53.0</ele><time>2026-03-28T12:25:35Z</time></trkpt><trkpt lat="42.697264709005324" lon="2.8100460400570157"><ele>53.0</ele><time>2026-03-28T12:25:36Z</time></trkpt><trkpt lat="42.697178234887794" lon="2.810064406594723"><ele>53.0</ele><time>2026-03-28T12:25:37Z</time></trkpt><trkpt lat="42.69708416140442" lon="2.8100843870970014"><ele>53.0</ele><time>2026-03-28T12:25:38Z</time></trkpt><trkpt lat="42.69698675276314" lon="2.8101050759648416"><ele>53.0</ele><time>2026-03-28T12:25:39Z</time></trkpt><trkpt lat="42.6968908432056" lon="2.810125662099852"><ele>53.0</ele><time>2026-03-28T12:25:40Z</time></trkpt><trkpt lat="42.696790007408325" lon="2.810149935053629"><ele>53.0</ele><time>2026-03-28T12:25:41Z</time></trkpt><trkpt lat="42.69667948917463" lon="2.810178957401773"><ele>53.0</ele><time>2026-03-28T12:25:42Z</time></trkpt><trkpt lat="42.69657556792313" lon="2.810208976528855"><ele>53.0</ele><time>2026-03-28T12:25:43Z</time></trkpt><trkpt lat="42.69649652344314" lon="2.8102348217010835"><ele>53.0</ele><time>2026-03-28T12:25:44Z</time></trkpt><trkpt lat="42.69642541730411" lon="2.810258071335977"><ele>53.0</ele><time>2026-03-28T12:25:45Z</time></trkpt><trkpt lat="42.69632142363354" lon="2.8102920742156177"><ele>53.0</ele><time>2026-03-28T12:25:47Z</time></trkpt><trkpt lat="42.69631536193371" lon="2.8100985624498627"><ele>53.0</ele><time>2026-03-28T12:26:06Z</time></trkpt><trkpt lat="42.69631504857495" lon="2.809993461029885"><ele>53.0</ele><time>2026-03-28T12:26:07Z</time></trkpt><trkpt lat="42.69631038611949" lon="2.8098678812315847"><ele>53.0</ele><time>2026-03-28T12:26:08Z</time></trkpt><trkpt lat="42.6963019813385" lon="2.8097560577865965"><ele>53.0</ele><time>2026-03-28T12:26:09Z</time></trkpt><trkpt lat="42.69629367441444" lon="2.809614186023608"><ele>53.0</ele><time>2026-03-28T12:26:11Z</time></trkpt><trkpt lat="42.69633530757548" lon="2.809535189761824"><ele>53.0</ele><time>2026-03-28T12:26:15Z</time></trkpt><trkpt lat="42.69627073894651" lon="2.809628627672223"><ele>53.0</ele><time>2026-03-28T12:26:19Z</time></trkpt><trkpt lat="42.696288921025946" lon="2.8097374742694705"><ele>53.0</ele><time>2026-03-28T12:26:20Z</time></trkpt><trkpt lat="42.696313531719575" lon="2.8099010717482478"><ele>53.0</ele><time>2026-03-28T12:26:22Z</time></trkpt><trkpt lat="42.69631650027903" lon="2.810015827472258"><ele>53.0</ele><time>2026-03-28T12:26:23Z</time></trkpt><trkpt lat="42.696314129449334" lon="2.810178627814571"><ele>53.0</ele><time>2026-03-28T12:26:25Z</time></trkpt><trkpt lat="42.696317714931105" lon="2.810283527518747"><ele>53.0</ele><time>2026-03-28T12:26:27Z</time></trkpt><trkpt lat="42.69641846989213" lon="2.8102897057894456"><ele>53.0</ele><time>2026-03-28T12:26:59Z</time></trkpt><trkpt lat="42.69650636544639" lon="2.810264289170417"><ele>53.0</ele><time>2026-03-28T12:27:01Z</time></trkpt><trkpt lat="42.696571271122004" lon="2.8102517367137048"><ele>53.0</ele><time>2026-03-28T12:27:03Z</time></trkpt><trkpt lat="42.69666800786874" lon="2.8102404044112914"><ele>53.0</ele><time>2026-03-28T12:28:06Z</time></trkpt><trkpt lat="42.69676821831643" lon="2.8102017841577007"><ele>53.0</ele><time>2026-03-28T12:28:08Z</time></trkpt><trkpt lat="42.69685339572634" lon="2.810180538319962"><ele>53.0</ele><time>2026-03-28T12:28:11Z</time></trkpt><trkpt lat="42.69693440924396" lon="2.8101394356906666"><ele>53.0</ele><time>2026-03-28T12:28:14Z</time></trkpt><trkpt lat="42.697056538182125" lon="2.810116110451474"><ele>53.0</ele><time>2026-03-28T12:28:16Z</time></trkpt><trkpt lat="42.69717502566538" lon="2.81009252295586"><ele>53.0</ele><time>2026-03-28T12:28:18Z</time></trkpt><trkpt lat="42.697238619392536" lon="2.8100791670786727"><ele>53.0</ele><time>2026-03-28T12:28:19Z</time></trkpt><trkpt lat="42.69730179337191" lon="2.810065079438088"><ele>53.0</ele><time>2026-03-28T12:28:20Z</time></trkpt><trkpt lat="42.69736453519804" lon="2.810053571902581"><ele>53.0</ele><time>2026-03-28T12:28:21Z</time></trkpt><trkpt lat="42.69743173941681" lon="2.810037608159348"><ele>53.0</ele><time>2026-03-28T12:28:22Z</time></trkpt><trkpt lat="42.69749944621599" lon="2.810024518954755"><ele>53.0</ele><time>2026-03-28T12:28:23Z</time></trkpt><trkpt lat="42.6975901371763" lon="2.8100042443248814"><ele>53.0</ele><time>2026-03-28T12:28:25Z</time></trkpt><trkpt lat="42.69765428140883" lon="2.810009002149321"><ele>53.0</ele><time>2026-03-28T12:28:35Z</time></trkpt><trkpt lat="42.697532793198626" lon="2.8100348064604033"><ele>53.0</ele><time>2026-03-28T12:28:40Z</time></trkpt><trkpt lat="42.69744760008369" lon="2.810038373755902"><ele>53.0</ele><time>2026-03-28T12:28:41Z</time></trkpt><trkpt lat="42.69736247320116" lon="2.8100523230374126"><ele>53.0</ele><time>2026-03-28T12:28:42Z</time></trkpt><trkpt lat="42.69726091931959" lon="2.8100714052965037"><ele>53.0</ele><time>2026-03-28T12:28:43Z</time></trkpt><trkpt lat="42.69711352694865" lon="2.810103680466758"><ele>53.0</ele><time>2026-03-28T12:28:44Z</time></trkpt><trkpt lat="42.69691909762102" lon="2.8101441229399287"><ele>53.0</ele><time>2026-03-28T12:28:45Z</time></trkpt><trkpt lat="42.696786449638196" lon="2.810175752435968"><ele>53.0</ele><time>2026-03-28T12:28:46Z</time></trkpt><trkpt lat="42.69668145647653" lon="2.8102099102913454"><ele>53.0</ele><time>2026-03-28T12:28:47Z</time></trkpt><trkpt lat="42.6965906161745" lon="2.8102392993767182"><ele>53.0</ele><time>2026-03-28T12:28:48Z</time></trkpt><trkpt lat="42.696502560858654" lon="2.8102603368878305"><ele>53.0</ele><time>2026-03-28T12:28:49Z</time></trkpt><trkpt lat="42.69643151785558" lon="2.810302527768577"><ele>53.0</ele><time>2026-03-28T12:28:50Z</time></trkpt><trkpt lat="42.69632797321887" lon="2.810336383719098"><ele>53.0</ele><time>2026-03-28T12:28:52Z</time></trkpt><trkpt lat="42.69635365579895" lon="2.810675093386044"><ele>53.0</ele><time>2026-03-28T12:28:57Z</time></trkpt><trkpt lat="42.696361131084984" lon="2.810807807788048"><ele>53.0</ele><time>2026-03-28T12:28:58Z</time></trkpt><trkpt lat="42.696374032370976" lon="2.8109486969789352"><ele>53.00000000000001</ele><time>2026-03-28T12:28:59Z</time></trkpt><trkpt lat="42.69637869809455" lon="2.8110886888513904"><ele>53.0</ele><time>2026-03-28T12:29:00Z</time></trkpt><trkpt lat="42.69638622319564" lon="2.811221682651698"><ele>53.0</ele><time>2026-03-28T12:29:01Z</time></trkpt><trkpt lat="42.696427314630974" lon="2.8113289589742316"><ele>53.0</ele><time>2026-03-28T12:29:02Z</time></trkpt><trkpt lat="42.69646397750296" lon="2.8114131174068686"><ele>53.00000000000001</ele><time>2026-03-28T12:29:03Z</time></trkpt><trkpt lat="42.69647180183092" lon="2.8115044670534437"><ele>53.0</ele><time>2026-03-28T12:29:05Z</time></trkpt><trkpt lat="42.696385613749854" lon="2.811557012965066"><ele>53.0</ele><time>2026-03-28T12:29:07.999Z</time></trkpt><trkpt lat="42.6963024003266" lon="2.811601643004624"><ele>53.0</ele><time>2026-03-28T12:29:08.999Z</time></trkpt><trkpt lat="42.696199259888836" lon="2.811654235322766"><ele>53.0</ele><time>2026-03-28T12:29:09.999Z</time></trkpt><trkpt lat="42.69608670000761" lon="2.811719246428835"><ele>53.0</ele><time>2026-03-28T12:29:10.999Z</time></trkpt><trkpt lat="42.69597127084708" lon="2.8117923577951363"><ele>53.0</ele><time>2026-03-28T12:29:11.999Z</time></trkpt><trkpt lat="42.69585706715398" lon="2.811868196049465"><ele>53.0</ele><time>2026-03-28T12:29:12.999Z</time></trkpt><trkpt lat="42.69574255369296" lon="2.8119359530123136"><ele>53.0</ele><time>2026-03-28T12:29:13.999Z</time></trkpt><trkpt lat="42.6956213643334" lon="2.81201158028588"><ele>53.0</ele><time>2026-03-28T12:29:14.999Z</time></trkpt><trkpt lat="42.69549605709068" lon="2.8120630316052444"><ele>53.0</ele><time>2026-03-28T12:29:15.999Z</time></trkpt><trkpt lat="42.69539943755019" lon="2.812138201782469"><ele>53.0</ele><time>2026-03-28T12:29:16.999Z</time></trkpt><trkpt lat="42.695314428756724" lon="2.8121935981164117"><ele>53.0</ele><time>2026-03-28T12:29:17.999Z</time></trkpt><trkpt lat="42.69524353776017" lon="2.8122421522566614"><ele>53.0</ele><time>2026-03-28T12:29:18.999Z</time></trkpt><trkpt lat="42.695149282137045" lon="2.812313240795806"><ele>53.0</ele><time>2026-03-28T12:29:20.999Z</time></trkpt><trkpt lat="42.6950752072883" lon="2.8123375472774153"><ele>53.0</ele><time>2026-03-28T12:29:22.999Z</time></trkpt><trkpt lat="42.69501748672109" lon="2.812150291226719"><ele>52.50000000000001</ele><time>2026-03-28T12:29:29.999Z</time></trkpt><trkpt lat="42.6949873587725" lon="2.8120672729578406"><ele>52.0</ele><time>2026-03-28T12:29:30.999Z</time></trkpt><trkpt lat="42.69495954170485" lon="2.8119761500447837"><ele>51.5</ele><time>2026-03-28T12:29:31.999Z</time></trkpt><trkpt lat="42.69493264207656" lon="2.8118789386264904"><ele>51.0</ele><time>2026-03-28T12:29:32.999Z</time></trkpt><trkpt lat="42.69490379842749" lon="2.8117768036941944"><ele>50.50000000000001</ele><time>2026-03-28T12:29:33.999Z</time></trkpt><trkpt lat="42.69486945150692" lon="2.8116671147703776"><ele>50.0</ele><time>2026-03-28T12:29:34.999Z</time></trkpt><trkpt lat="42.694834491626786" lon="2.8115515968802782"><ele>50.00000000000001</ele><time>2026-03-28T12:29:36Z</time></trkpt><trkpt lat="42.69480194243671" lon="2.8114339481950497"><ele>50.0</ele><time>2026-03-28T12:29:37Z</time></trkpt><trkpt lat="42.69478610003558" lon="2.811317048417417"><ele>50.0</ele><time>2026-03-28T12:29:38Z</time></trkpt><trkpt lat="42.6947626698989" lon="2.8112331660023333"><ele>50.0</ele><time>2026-03-28T12:29:39Z</time></trkpt><trkpt lat="42.69473708066415" lon="2.811140587103309"><ele>50.00000000000001</ele><time>2026-03-28T12:29:40Z</time></trkpt><trkpt lat="42.69470869581173" lon="2.811038647646807"><ele>50.0</ele><time>2026-03-28T12:29:41Z</time></trkpt><trkpt lat="42.6946701940967" lon="2.8109575108683296"><ele>50.2</ele><time>2026-03-28T12:29:42Z</time></trkpt><trkpt lat="42.69464501603083" lon="2.8108625188076255"><ele>50.4</ele><time>2026-03-28T12:29:43Z</time></trkpt><trkpt lat="42.69463105549273" lon="2.8107730047777895"><ele>50.599999999999994</ele><time>2026-03-28T12:29:45Z</time></trkpt><trkpt lat="42.694585785633436" lon="2.8105795147977894"><ele>50.8</ele><time>2026-03-28T12:30:07Z</time></trkpt><trkpt lat="42.694550976043224" lon="2.81044640744603"><ele>51.0</ele><time>2026-03-28T12:30:08Z</time></trkpt><trkpt lat="42.69451384821987" lon="2.81029832823736"><ele>51.25</ele><time>2026-03-28T12:30:09Z</time></trkpt><trkpt lat="42.69447680339954" lon="2.810140932517133"><ele>51.5</ele><time>2026-03-28T12:30:10Z</time></trkpt><trkpt lat="42.69443067952503" lon="2.8100017189331554"><ele>51.75</ele><time>2026-03-28T12:30:11Z</time></trkpt><trkpt lat="42.69440770244236" lon="2.8098726032876544"><ele>52.0</ele><time>2026-03-28T12:30:12Z</time></trkpt><trkpt lat="42.69437373282893" lon="2.809717871663613"><ele>52.0</ele><time>2026-03-28T12:30:13Z</time></trkpt><trkpt lat="42.69435339979426" lon="2.8095432641293967"><ele>52.0</ele><time>2026-03-28T12:30:14Z</time></trkpt><trkpt lat="42.69433832324498" lon="2.809346186478053"><ele>52.0</ele><time>2026-03-28T12:30:15Z</time></trkpt><trkpt lat="42.694336948090836" lon="2.8091427552505865"><ele>52.0</ele><time>2026-03-28T12:30:16Z</time></trkpt><trkpt lat="42.694321836012875" lon="2.8089429553572933"><ele>52.25</ele><time>2026-03-28T12:30:17Z</time></trkpt><trkpt lat="42.69430439731201" lon="2.80876203830112"><ele>52.5</ele><time>2026-03-28T12:30:18Z</time></trkpt><trkpt lat="42.694272817640396" lon="2.8085843734011045"><ele>52.75</ele><time>2026-03-28T12:30:19Z</time></trkpt><trkpt lat="42.69425104640122" lon="2.8083981182637086"><ele>53.0</ele><time>2026-03-28T12:30:20Z</time></trkpt><trkpt lat="42.69422996498368" lon="2.8082029185378787"><ele>53.0</ele><time>2026-03-28T12:30:21Z</time></trkpt><trkpt lat="42.69419711711826" lon="2.808020124903476"><ele>53.0</ele><time>2026-03-28T12:30:22Z</time></trkpt><trkpt lat="42.69415528640222" lon="2.8078396477415946"><ele>53.0</ele><time>2026-03-28T12:30:23Z</time></trkpt><trkpt lat="42.694117275224166" lon="2.807655177103729"><ele>53.0</ele><time>2026-03-28T12:30:24Z</time></trkpt><trkpt lat="42.69406908672783" lon="2.8074806853215213"><ele>53.25</ele><time>2026-03-28T12:30:25Z</time></trkpt><trkpt lat="42.69401913446971" lon="2.8073241647892"><ele>53.5</ele><time>2026-03-28T12:30:26Z</time></trkpt><trkpt lat="42.693967148974004" lon="2.807184304876882"><ele>53.75</ele><time>2026-03-28T12:30:27Z</time></trkpt><trkpt lat="42.69390062395175" lon="2.807049625806571"><ele>54.0</ele><time>2026-03-28T12:30:28Z</time></trkpt><trkpt lat="42.69381967148965" lon="2.8069124160899555"><ele>54.2</ele><time>2026-03-28T12:30:29Z</time></trkpt><trkpt lat="42.693747559396414" lon="2.8067809309716476"><ele>54.400000000000006</ele><time>2026-03-28T12:30:30Z</time></trkpt><trkpt lat="42.69368522776273" lon="2.8066450455013983"><ele>54.6</ele><time>2026-03-28T12:30:31Z</time></trkpt><trkpt lat="42.6936291854547" lon="2.806518157236655"><ele>54.8</ele><time>2026-03-28T12:30:32Z</time></trkpt><trkpt lat="42.69358236149703" lon="2.806403400157084"><ele>55.0</ele><time>2026-03-28T12:30:33Z</time></trkpt><trkpt lat="42.693546523919174" lon="2.806297735952052"><ele>54.99999999999999</ele><time>2026-03-28T12:30:34Z</time></trkpt><trkpt lat="42.69352189564923" lon="2.806204552871097"><ele>55.0</ele><time>2026-03-28T12:30:35Z</time></trkpt><trkpt lat="42.69352733443195" lon="2.806115016312304"><ele>55.0</ele><time>2026-03-28T12:30:36Z</time></trkpt><trkpt lat="42.69354989936725" lon="2.806034634664252"><ele>55.0</ele><time>2026-03-28T12:30:37Z</time></trkpt><trkpt lat="42.69360550678198" lon="2.805961101000686"><ele>54.99999999999999</ele><time>2026-03-28T12:30:38Z</time></trkpt><trkpt lat="42.69363015304204" lon="2.805848924021428"><ele>55.0</ele><time>2026-03-28T12:30:39Z</time></trkpt><trkpt lat="42.693675603175066" lon="2.8057410900590707"><ele>55.2</ele><time>2026-03-28T12:30:40Z</time></trkpt><trkpt lat="42.69372258513051" lon="2.8056295920071332"><ele>55.4</ele><time>2026-03-28T12:30:41Z</time></trkpt><trkpt lat="42.69376325719854" lon="2.805511775320605"><ele>55.599999999999994</ele><time>2026-03-28T12:30:42Z</time></trkpt><trkpt lat="42.69382263954269" lon="2.805395474181712"><ele>55.8</ele><time>2026-03-28T12:30:43Z</time></trkpt><trkpt lat="42.693880549650004" lon="2.8052438593881783"><ele>56.0</ele><time>2026-03-28T12:30:44Z</time></trkpt><trkpt lat="42.69394658121473" lon="2.805071387135058"><ele>56.5</ele><time>2026-03-28T12:30:45Z</time></trkpt><trkpt lat="42.69398672784811" lon="2.8049197522198237"><ele>57.0</ele><time>2026-03-28T12:30:46Z</time></trkpt><trkpt lat="42.69404477260969" lon="2.804769945232927"><ele>57.5</ele><time>2026-03-28T12:30:47Z</time></trkpt><trkpt lat="42.694108575089956" lon="2.804618236239075"><ele>58.0</ele><time>2026-03-28T12:30:48Z</time></trkpt><trkpt lat="42.69416265930446" lon="2.804488934402638"><ele>58.0</ele><time>2026-03-28T12:30:49Z</time></trkpt><trkpt lat="42.694204013325724" lon="2.804365273562782"><ele>58.0</ele><time>2026-03-28T12:30:50Z</time></trkpt><trkpt lat="42.69424570212586" lon="2.8042411070183655"><ele>58.0</ele><time>2026-03-28T12:30:51Z</time></trkpt><trkpt lat="42.69427350434609" lon="2.804126221795781"><ele>58.0</ele><time>2026-03-28T12:30:52Z</time></trkpt><trkpt lat="42.694285146659524" lon="2.8040102888398817"><ele>58.0</ele><time>2026-03-28T12:30:53Z</time></trkpt><trkpt lat="42.69427507860188" lon="2.8038776268790833"><ele>58.0</ele><time>2026-03-28T12:30:54Z</time></trkpt><trkpt lat="42.69424981607188" lon="2.803734628147126"><ele>58.0</ele><time>2026-03-28T12:30:55Z</time></trkpt><trkpt lat="42.69421746274432" lon="2.803592860034451"><ele>58.0</ele><time>2026-03-28T12:30:56Z</time></trkpt><trkpt lat="42.69419020054212" lon="2.8034511101888233"><ele>58.0</ele><time>2026-03-28T12:30:57Z</time></trkpt><trkpt lat="42.69416470222888" lon="2.8033194264784624"><ele>58.0</ele><time>2026-03-28T12:30:58Z</time></trkpt><trkpt lat="42.69414186393807" lon="2.803195915722269"><ele>58.0</ele><time>2026-03-28T12:30:59Z</time></trkpt><trkpt lat="42.694118816450235" lon="2.8030723286685437"><ele>58.0</ele><time>2026-03-28T12:31:00Z</time></trkpt><trkpt lat="42.69409050522957" lon="2.8029430881243576"><ele>58.0</ele><time>2026-03-28T12:31:01Z</time></trkpt><trkpt lat="42.69406925709176" lon="2.8028060241647594"><ele>58.0</ele><time>2026-03-28T12:31:02Z</time></trkpt><trkpt lat="42.694041180443435" lon="2.802655454112505"><ele>58.0</ele><time>2026-03-28T12:31:03Z</time></trkpt><trkpt lat="42.694007862181" lon="2.802500091099049"><ele>57.8</ele><time>2026-03-28T12:31:04Z</time></trkpt><trkpt lat="42.69397970715567" lon="2.8023476134385863"><ele>57.599999999999994</ele><time>2026-03-28T12:31:05Z</time></trkpt><trkpt lat="42.69395207387145" lon="2.802216575850584"><ele>57.400000000000006</ele><time>2026-03-28T12:31:06Z</time></trkpt><trkpt lat="42.693925859677414" lon="2.802073880070588"><ele>57.2</ele><time>2026-03-28T12:31:07Z</time></trkpt><trkpt lat="42.69389605981034" lon="2.80193781377732"><ele>57.0</ele><time>2026-03-28T12:31:07.999Z</time></trkpt><trkpt lat="42.69386980924486" lon="2.8018107286931295"><ele>57.6</ele><time>2026-03-28T12:31:08.999Z</time></trkpt><trkpt lat="42.693849333590265" lon="2.8017001490295717"><ele>58.2</ele><time>2026-03-28T12:31:09.999Z</time></trkpt><trkpt lat="42.693825135062596" lon="2.8016034853015848"><ele>58.8</ele><time>2026-03-28T12:31:10.999Z</time></trkpt><trkpt lat="42.69379914614464" lon="2.8014436525016673"><ele>59.4</ele><time>2026-03-28T12:31:12.999Z</time></trkpt><trkpt lat="42.693781079603404" lon="2.8013232204726672"><ele>60.0</ele><time>2026-03-28T12:31:23.999Z</time></trkpt><trkpt lat="42.6936621952226" lon="2.8013599937264027"><ele>60.0</ele><time>2026-03-28T12:31:24.999Z</time></trkpt><trkpt lat="42.693587044984504" lon="2.8013941696111537"><ele>60.0</ele><time>2026-03-28T12:31:25.999Z</time></trkpt><trkpt lat="42.69349573439978" lon="2.801424582920302"><ele>60.0</ele><time>2026-03-28T12:31:26.999Z</time></trkpt><trkpt lat="42.69338915364539" lon="2.8014298419375554"><ele>60.0</ele><time>2026-03-28T12:31:27.999Z</time></trkpt><trkpt lat="42.693298393329215" lon="2.8014697532849393"><ele>60.0</ele><time>2026-03-28T12:31:28.999Z</time></trkpt><trkpt lat="42.69323567625103" lon="2.801455293278401"><ele>60.0</ele><time>2026-03-28T12:31:29.999Z</time></trkpt><trkpt lat="42.69318565962187" lon="2.801320227987637"><ele>60.0</ele><time>2026-03-28T12:31:31.999Z</time></trkpt><trkpt lat="42.693185356155624" lon="2.8011654260370844"><ele>60.0</ele><time>2026-03-28T12:31:32.999Z</time></trkpt><trkpt lat="42.69316494589731" lon="2.8010074600344015"><ele>60.0</ele><time>2026-03-28T12:31:33.999Z</time></trkpt><trkpt lat="42.69313981752347" lon="2.8008475455853965"><ele>60.0</ele><time>2026-03-28T12:31:34.999Z</time></trkpt><trkpt lat="42.6931147358076" lon="2.800658251677473"><ele>59.66666666666667</ele><time>2026-03-28T12:31:35.999Z</time></trkpt><trkpt lat="42.6930859716277" lon="2.800456656115903"><ele>59.333333333333336</ele><time>2026-03-28T12:31:36.999Z</time></trkpt><trkpt lat="42.693059014783096" lon="2.8002469002902015"><ele>59.0</ele><time>2026-03-28T12:31:37.999Z</time></trkpt><trkpt lat="42.69303704840385" lon="2.8000425612988407"><ele>59.0</ele><time>2026-03-28T12:31:38.999Z</time></trkpt><trkpt lat="42.69301191475861" lon="2.7998443218876314"><ele>59.0</ele><time>2026-03-28T12:31:39.999Z</time></trkpt><trkpt lat="42.69297705120344" lon="2.79965525203361"><ele>59.0</ele><time>2026-03-28T12:31:41Z</time></trkpt><trkpt lat="42.69294054836182" lon="2.7994699841280983"><ele>59.0</ele><time>2026-03-28T12:31:42Z</time></trkpt><trkpt lat="42.69291234747111" lon="2.799288634016212"><ele>59.25</ele><time>2026-03-28T12:31:43Z</time></trkpt><trkpt lat="42.69288125243141" lon="2.799102985132436"><ele>59.5</ele><time>2026-03-28T12:31:44Z</time></trkpt><trkpt lat="42.69284797855813" lon="2.7989164112877463"><ele>59.75</ele><time>2026-03-28T12:31:45Z</time></trkpt><trkpt lat="42.69281500096932" lon="2.798733617511074"><ele>60.0</ele><time>2026-03-28T12:31:46Z</time></trkpt><trkpt lat="42.692786807690524" lon="2.798534900819039"><ele>59.66666666666667</ele><time>2026-03-28T12:31:47Z</time></trkpt><trkpt lat="42.692757448199465" lon="2.7983322623695788"><ele>59.333333333333336</ele><time>2026-03-28T12:31:48Z</time></trkpt><trkpt lat="42.69272252794842" lon="2.7981260577030973"><ele>59.0</ele><time>2026-03-28T12:31:49Z</time></trkpt><trkpt lat="42.69269426297653" lon="2.7979170606864163"><ele>58.75</ele><time>2026-03-28T12:31:50Z</time></trkpt><trkpt lat="42.692670666605935" lon="2.797721542843708"><ele>58.5</ele><time>2026-03-28T12:31:51Z</time></trkpt><trkpt lat="42.692647126945786" lon="2.7975386467322463"><ele>58.25</ele><time>2026-03-28T12:31:52Z</time></trkpt><trkpt lat="42.69262964853551" lon="2.7973388246287954"><ele>58.0</ele><time>2026-03-28T12:31:53Z</time></trkpt><trkpt lat="42.69262392720145" lon="2.797123677833338"><ele>58.0</ele><time>2026-03-28T12:31:54Z</time></trkpt><trkpt lat="42.69263730362601" lon="2.796912856852262"><ele>58.0</ele><time>2026-03-28T12:31:55Z</time></trkpt><trkpt lat="42.69264913117992" lon="2.79667726126258"><ele>58.0</ele><time>2026-03-28T12:31:56Z</time></trkpt><trkpt lat="42.69265849842803" lon="2.796439822284604"><ele>58.0</ele><time>2026-03-28T12:31:57Z</time></trkpt><trkpt lat="42.69265880669474" lon="2.796198311535505"><ele>58.0</ele><time>2026-03-28T12:31:58Z</time></trkpt><trkpt lat="42.692652596127886" lon="2.7959566922131036"><ele>58.0</ele><time>2026-03-28T12:31:59Z</time></trkpt><trkpt lat="42.692634696292714" lon="2.795712790357979"><ele>58.0</ele><time>2026-03-28T12:32:00Z</time></trkpt><trkpt lat="42.692603144673306" lon="2.79547757215805"><ele>58.0</ele><time>2026-03-28T12:32:01Z</time></trkpt><trkpt lat="42.69256772326789" lon="2.7952482384553106"><ele>58.0</ele><time>2026-03-28T12:32:02Z</time></trkpt><trkpt lat="42.69257937151462" lon="2.795018123425152"><ele>58.33333333333333</ele><time>2026-03-28T12:32:03Z</time></trkpt><trkpt lat="42.69260907529582" lon="2.7947843164837627"><ele>58.66666666666667</ele><time>2026-03-28T12:32:04Z</time></trkpt><trkpt lat="42.69265451080047" lon="2.7945417970018878"><ele>59.0</ele><time>2026-03-28T12:32:05Z</time></trkpt><trkpt lat="42.69269794774285" lon="2.7942598602860045"><ele>59.0</ele><time>2026-03-28T12:32:06Z</time></trkpt><trkpt lat="42.69277158257571" lon="2.7939261683134067"><ele>59.0</ele><time>2026-03-28T12:32:07Z</time></trkpt><trkpt lat="42.69284418393486" lon="2.7935808050187303"><ele>59.66666666666667</ele><time>2026-03-28T12:32:08Z</time></trkpt><trkpt lat="42.69289939690875" lon="2.793283636104579"><ele>60.33333333333333</ele><time>2026-03-28T12:32:09Z</time></trkpt><trkpt lat="42.69293683585081" lon="2.7930297949720426"><ele>61.0</ele><time>2026-03-28T12:32:10Z</time></trkpt><trkpt lat="42.69296517889422" lon="2.7927899270914303"><ele>61.0</ele><time>2026-03-28T12:32:11Z</time></trkpt><trkpt lat="42.69300775027652" lon="2.7925461114066343"><ele>61.0</ele><time>2026-03-28T12:32:12Z</time></trkpt><trkpt lat="42.693079603832" lon="2.7923275520157205"><ele>61.0</ele><time>2026-03-28T12:32:13Z</time></trkpt><trkpt lat="42.69312522474633" lon="2.7921064911357667"><ele>61.0</ele><time>2026-03-28T12:32:14Z</time></trkpt><trkpt lat="42.69318476496895" lon="2.791908939364242"><ele>61.0</ele><time>2026-03-28T12:32:15Z</time></trkpt><trkpt lat="42.69322834658837" lon="2.791709098409167"><ele>61.0</ele><time>2026-03-28T12:32:16Z</time></trkpt><trkpt lat="42.69326299717286" lon="2.7915173102408075"><ele>61.0</ele><time>2026-03-28T12:32:17Z</time></trkpt><trkpt lat="42.69323838896511" lon="2.7913703833994084"><ele>61.0</ele><time>2026-03-28T12:32:18Z</time></trkpt><trkpt lat="42.69321018945458" lon="2.791070490947134"><ele>61.0</ele><time>2026-03-28T12:32:19Z</time></trkpt><trkpt lat="42.693178500864875" lon="2.790842865465107"><ele>61.0</ele><time>2026-03-28T12:32:20Z</time></trkpt><trkpt lat="42.693145418453106" lon="2.7906082264166954"><ele>61.0</ele><time>2026-03-28T12:32:21Z</time></trkpt><trkpt lat="42.693116648269964" lon="2.790350520926073"><ele>61.0</ele><time>2026-03-28T12:32:22Z</time></trkpt><trkpt lat="42.693090706202945" lon="2.790066850767148"><ele>61.33333333333333</ele><time>2026-03-28T12:32:23Z</time></trkpt><trkpt lat="42.69306812418667" lon="2.7898378606699286"><ele>61.66666666666667</ele><time>2026-03-28T12:32:24Z</time></trkpt><trkpt lat="42.69304029487625" lon="2.7896213655467363"><ele>62.0</ele><time>2026-03-28T12:32:25Z</time></trkpt><trkpt lat="42.69301601183048" lon="2.7894003487632846"><ele>62.0</ele><time>2026-03-28T12:32:26Z</time></trkpt><trkpt lat="42.692990613517374" lon="2.789186625352749"><ele>62.0</ele><time>2026-03-28T12:32:27Z</time></trkpt><trkpt lat="42.69296363977187" lon="2.7889803126854553"><ele>62.0</ele><time>2026-03-28T12:32:28Z</time></trkpt><trkpt lat="42.69293397723494" lon="2.7887873256549964"><ele>62.0</ele><time>2026-03-28T12:32:29Z</time></trkpt><trkpt lat="42.69290767622202" lon="2.7886433617101525"><ele>62.0</ele><time>2026-03-28T12:32:30Z</time></trkpt><trkpt lat="42.69289394097225" lon="2.788544494774245"><ele>62.0</ele><time>2026-03-28T12:32:31Z</time></trkpt><trkpt lat="42.692741934770616" lon="2.7885068294252218"><ele>62.0</ele><time>2026-03-28T12:32:34Z</time></trkpt><trkpt lat="42.69264566158275" lon="2.7885616467881094"><ele>62.0</ele><time>2026-03-28T12:32:35Z</time></trkpt><trkpt lat="42.692550755062335" lon="2.7886119810387284"><ele>62.333333333333336</ele><time>2026-03-28T12:32:36Z</time></trkpt><trkpt lat="42.69242934924313" lon="2.788636841383261"><ele>62.66666666666667</ele><time>2026-03-28T12:32:37Z</time></trkpt><trkpt lat="42.69224909485733" lon="2.78868742894218"><ele>63.0</ele><time>2026-03-28T12:32:38Z</time></trkpt><trkpt lat="42.692106355381334" lon="2.788725487442487"><ele>63.0</ele><time>2026-03-28T12:32:39Z</time></trkpt><trkpt lat="42.691974202338976" lon="2.7887634863222632"><ele>63.0</ele><time>2026-03-28T12:32:40Z</time></trkpt><trkpt lat="42.691818565491694" lon="2.7888020856980265"><ele>63.0</ele><time>2026-03-28T12:32:41Z</time></trkpt><trkpt lat="42.69160703601878" lon="2.788863252401871"><ele>63.0</ele><time>2026-03-28T12:32:42Z</time></trkpt><trkpt lat="42.69143099858803" lon="2.7888941163955905"><ele>63.0</ele><time>2026-03-28T12:32:43Z</time></trkpt><trkpt lat="42.691173975239494" lon="2.78897392315633"><ele>63.0</ele><time>2026-03-28T12:32:44Z</time></trkpt><trkpt lat="42.69096848661397" lon="2.7890246291664966"><ele>63.33333333333333</ele><time>2026-03-28T12:32:45Z</time></trkpt><trkpt lat="42.69079709966419" lon="2.7890656784030052"><ele>63.666666666666664</ele><time>2026-03-28T12:32:46Z</time></trkpt><trkpt lat="42.6906409103763" lon="2.78909698440482"><ele>64.0</ele><time>2026-03-28T12:32:47Z</time></trkpt><trkpt lat="42.69048610657619" lon="2.7891348898578237"><ele>64.0</ele><time>2026-03-28T12:32:48Z</time></trkpt><trkpt lat="42.69033074716739" lon="2.7891754815856094"><ele>64.0</ele><time>2026-03-28T12:32:49Z</time></trkpt><trkpt lat="42.69016054368203" lon="2.789214147800458"><ele>64.0</ele><time>2026-03-28T12:32:50Z</time></trkpt><trkpt lat="42.68996440047302" lon="2.789264579004729"><ele>63.666666666666664</ele><time>2026-03-28T12:32:51Z</time></trkpt><trkpt lat="42.689785180583044" lon="2.789307779575225"><ele>63.33333333333333</ele><time>2026-03-28T12:32:52Z</time></trkpt><trkpt lat="42.68963233992019" lon="2.7893513946399198"><ele>63.0</ele><time>2026-03-28T12:32:53Z</time></trkpt><trkpt lat="42.689487166152006" lon="2.789390007587456"><ele>61.66666666666667</ele><time>2026-03-28T12:32:54Z</time></trkpt><trkpt lat="42.68931692701671" lon="2.7894319856206433"><ele>60.333333333333336</ele><time>2026-03-28T12:32:55Z</time></trkpt><trkpt lat="42.68913253220297" lon="2.7894759735456724"><ele>59.0</ele><time>2026-03-28T12:32:56Z</time></trkpt><trkpt lat="42.68894973358169" lon="2.7895189197691113"><ele>59.0</ele><time>2026-03-28T12:32:57Z</time></trkpt><trkpt lat="42.68877080551001" lon="2.789559770073944"><ele>59.0</ele><time>2026-03-28T12:32:58Z</time></trkpt><trkpt lat="42.68860052170269" lon="2.7896027875831573"><ele>59.0</ele><time>2026-03-28T12:32:59Z</time></trkpt><trkpt lat="42.68845529161154" lon="2.789640615272708"><ele>59.400000000000006</ele><time>2026-03-28T12:33:00Z</time></trkpt><trkpt lat="42.68835278741108" lon="2.789665016011696"><ele>59.800000000000004</ele><time>2026-03-28T12:33:01Z</time></trkpt><trkpt lat="42.68827359854474" lon="2.789658083226319"><ele>60.199999999999996</ele><time>2026-03-28T12:33:03Z</time></trkpt><trkpt lat="42.688274961836676" lon="2.7895407968090504"><ele>60.599999999999994</ele><time>2026-03-28T12:33:05Z</time></trkpt><trkpt lat="42.68822211442949" lon="2.789438215287051"><ele>61.0</ele><time>2026-03-28T12:33:06Z</time></trkpt><trkpt lat="42.68816958455985" lon="2.7892943322254875"><ele>61.0</ele><time>2026-03-28T12:33:07Z</time></trkpt><trkpt lat="42.688097180364544" lon="2.789100312766627"><ele>61.0</ele><time>2026-03-28T12:33:08Z</time></trkpt><trkpt lat="42.688009212252794" lon="2.788914629571858"><ele>61.0</ele><time>2026-03-28T12:33:09Z</time></trkpt><trkpt lat="42.68790412070561" lon="2.7887110603064293"><ele>61.0</ele><time>2026-03-28T12:33:10Z</time></trkpt><trkpt lat="42.68780798026589" lon="2.7885517710406718"><ele>61.0</ele><time>2026-03-28T12:33:11Z</time></trkpt><trkpt lat="42.68771636250198" lon="2.788367329445721"><ele>61.0</ele><time>2026-03-28T12:33:12Z</time></trkpt><trkpt lat="42.6876286017325" lon="2.788194883374789"><ele>61.0</ele><time>2026-03-28T12:33:13Z</time></trkpt><trkpt lat="42.687555750454145" lon="2.7880499466310487"><ele>60.99999999999999</ele><time>2026-03-28T12:33:13.999Z</time></trkpt><trkpt lat="42.68748621940939" lon="2.7879142974641615"><ele>60.99999999999999</ele><time>2026-03-28T12:33:14.999Z</time></trkpt><trkpt lat="42.68744280929126" lon="2.787786986412955"><ele>61.0</ele><time>2026-03-28T12:33:15.999Z</time></trkpt><trkpt lat="42.687381246067176" lon="2.787697143757946"><ele>61.0</ele><time>2026-03-28T12:33:16.999Z</time></trkpt><trkpt lat="42.68735265591106" lon="2.7876034956721654"><ele>60.83333333333333</ele><time>2026-03-28T12:33:17.999Z</time></trkpt><trkpt lat="42.687310416648664" lon="2.787537208381593"><ele>60.666666666666664</ele><time>2026-03-28T12:33:18.999Z</time></trkpt><trkpt lat="42.687273309615925" lon="2.7873956440357945"><ele>60.5</ele><time>2026-03-28T12:33:20.999Z</time></trkpt><trkpt lat="42.687295845899826" lon="2.7873125928484477"><ele>60.33333333333333</ele><time>2026-03-28T12:33:21.999Z</time></trkpt><trkpt lat="42.687260615275065" lon="2.7872196192742176"><ele>60.166666666666664</ele><time>2026-03-28T12:33:22.999Z</time></trkpt><trkpt lat="42.687183081867296" lon="2.787167386083588"><ele>60.0</ele><time>2026-03-28T12:33:23.999Z</time></trkpt><trkpt lat="42.68708967736292" lon="2.7870767336957534"><ele>60.0</ele><time>2026-03-28T12:33:24.999Z</time></trkpt><trkpt lat="42.6869955195545" lon="2.7869324211565196"><ele>60.0</ele><time>2026-03-28T12:33:25.999Z</time></trkpt><trkpt lat="42.68687130800694" lon="2.786773204181998"><ele>60.0</ele><time>2026-03-28T12:33:26.999Z</time></trkpt><trkpt lat="42.68675603704045" lon="2.7866235946537343"><ele>60.66666666666667</ele><time>2026-03-28T12:33:27.999Z</time></trkpt><trkpt lat="42.686643937266105" lon="2.7864725999153968"><ele>61.333333333333336</ele><time>2026-03-28T12:33:28.999Z</time></trkpt><trkpt lat="42.686521257043154" lon="2.7862990592350916"><ele>62.0</ele><time>2026-03-28T12:33:29.999Z</time></trkpt><trkpt lat="42.68641252939014" lon="2.7861687874619485"><ele>62.0</ele><time>2026-03-28T12:33:30.999Z</time></trkpt><trkpt lat="42.686327701805254" lon="2.78602979871118"><ele>62.0</ele><time>2026-03-28T12:33:31.999Z</time></trkpt><trkpt lat="42.686284242369595" lon="2.7859358791160216"><ele>62.0</ele><time>2026-03-28T12:33:32.999Z</time></trkpt><trkpt lat="42.68626618606965" lon="2.785774751516707"><ele>62.0</ele><time>2026-03-28T12:33:34.999Z</time></trkpt><trkpt lat="42.68626791530807" lon="2.785631754563245"><ele>62.0</ele><time>2026-03-28T12:33:35.999Z</time></trkpt><trkpt lat="42.68631411735166" lon="2.785551265355595"><ele>61.6</ele><time>2026-03-28T12:33:36.999Z</time></trkpt><trkpt lat="42.68632806628147" lon="2.785455909933965"><ele>61.2</ele><time>2026-03-28T12:33:38.999Z</time></trkpt><trkpt lat="42.68634038114789" lon="2.785341158625129"><ele>60.8</ele><time>2026-03-28T12:33:52Z</time></trkpt><trkpt lat="42.68634209027041" lon="2.7852128019296627"><ele>60.4</ele><time>2026-03-28T12:33:53Z</time></trkpt><trkpt lat="42.68632708511256" lon="2.7850202551165255"><ele>60.0</ele><time>2026-03-28T12:33:54Z</time></trkpt><trkpt lat="42.686350614070896" lon="2.784828324374843"><ele>59.75</ele><time>2026-03-28T12:33:55Z</time></trkpt><trkpt lat="42.68634904923315" lon="2.7846999448031426"><ele>59.5</ele><time>2026-03-28T12:33:56Z</time></trkpt><trkpt lat="42.68632565016596" lon="2.784540333466713"><ele>59.25</ele><time>2026-03-28T12:33:57Z</time></trkpt><trkpt lat="42.68630749550265" lon="2.784353397767075"><ele>59.0</ele><time>2026-03-28T12:33:58Z</time></trkpt><trkpt lat="42.686289529408505" lon="2.7841797271206126"><ele>59.333333333333336</ele><time>2026-03-28T12:33:59Z</time></trkpt><trkpt lat="42.68627418295933" lon="2.784053294378122"><ele>59.66666666666667</ele><time>2026-03-28T12:34:00Z</time></trkpt><trkpt lat="42.68624800370187" lon="2.7839569514971934"><ele>60.0</ele><time>2026-03-28T12:34:01Z</time></trkpt><trkpt lat="42.68623870203538" lon="2.783868525116707"><ele>60.33333333333333</ele><time>2026-03-28T12:34:02Z</time></trkpt><trkpt lat="42.68623219582074" lon="2.783743702541428"><ele>60.666666666666664</ele><time>2026-03-28T12:34:04Z</time></trkpt><trkpt lat="42.68620459658192" lon="2.783629519402553"><ele>61.0</ele><time>2026-03-28T12:34:07Z</time></trkpt><trkpt lat="42.68618608219403" lon="2.783507988599785"><ele>60.99999999999999</ele><time>2026-03-28T12:34:09Z</time></trkpt><trkpt lat="42.68617438911043" lon="2.7834148518349378"><ele>61.0</ele><time>2026-03-28T12:34:10Z</time></trkpt><trkpt lat="42.68615948354908" lon="2.783320328238742"><ele>61.0</ele><time>2026-03-28T12:34:11Z</time></trkpt><trkpt lat="42.68614920182872" lon="2.783184691761733"><ele>61.0</ele><time>2026-03-28T12:34:13Z</time></trkpt><trkpt lat="42.68612162825427" lon="2.783030504900407"><ele>60.99999999999999</ele><time>2026-03-28T12:34:15Z</time></trkpt><trkpt lat="42.68609901770268" lon="2.782911840388678"><ele>61.0</ele><time>2026-03-28T12:34:16Z</time></trkpt><trkpt lat="42.686077365094356" lon="2.7827982017241837"><ele>61.599999999999994</ele><time>2026-03-28T12:34:17Z</time></trkpt><trkpt lat="42.686052680359175" lon="2.7826742966551046"><ele>62.199999999999996</ele><time>2026-03-28T12:34:18Z</time></trkpt><trkpt lat="42.686027723551355" lon="2.782547994196932"><ele>62.800000000000004</ele><time>2026-03-28T12:34:19Z</time></trkpt><trkpt lat="42.68599723413609" lon="2.782393691834983"><ele>63.400000000000006</ele><time>2026-03-28T12:34:20Z</time></trkpt><trkpt lat="42.68595495763308" lon="2.782239412962376"><ele>64.0</ele><time>2026-03-28T12:34:21Z</time></trkpt><trkpt lat="42.68594439869806" lon="2.7820636882360557"><ele>64.0</ele><time>2026-03-28T12:34:22Z</time></trkpt><trkpt lat="42.685964652319925" lon="2.7818779843399413"><ele>64.0</ele><time>2026-03-28T12:34:23Z</time></trkpt><trkpt lat="42.68595862280276" lon="2.781692869974881"><ele>64.0</ele><time>2026-03-28T12:34:24Z</time></trkpt><trkpt lat="42.68598829404863" lon="2.781519642795021"><ele>64.0</ele><time>2026-03-28T12:34:25Z</time></trkpt><trkpt lat="42.685987963353185" lon="2.781359828885376"><ele>64.0</ele><time>2026-03-28T12:34:26Z</time></trkpt><trkpt lat="42.686015209503175" lon="2.7812129513989796"><ele>64.0</ele><time>2026-03-28T12:34:27Z</time></trkpt><trkpt lat="42.68604219140251" lon="2.781092456708792"><ele>64.0</ele><time>2026-03-28T12:34:28Z</time></trkpt><trkpt lat="42.68604284947553" lon="2.780997150730074"><ele>64.0</ele><time>2026-03-28T12:34:29Z</time></trkpt><trkpt lat="42.68601718702537" lon="2.780897639359788"><ele>64.0</ele><time>2026-03-28T12:34:30Z</time></trkpt><trkpt lat="42.68599678820125" lon="2.7807616435865805"><ele>64.0</ele><time>2026-03-28T12:34:31Z</time></trkpt><trkpt lat="42.685984800466784" lon="2.780632913719116"><ele>64.0</ele><time>2026-03-28T12:34:32Z</time></trkpt><trkpt lat="42.68597606979696" lon="2.780484482976369"><ele>64.0</ele><time>2026-03-28T12:34:33Z</time></trkpt><trkpt lat="42.68597682975055" lon="2.780320866680144"><ele>64.0</ele><time>2026-03-28T12:34:34Z</time></trkpt><trkpt lat="42.6859846015461" lon="2.7801938652584477"><ele>64.0</ele><time>2026-03-28T12:34:35Z</time></trkpt><trkpt lat="42.68600217488382" lon="2.780079098456266"><ele>64.0</ele><time>2026-03-28T12:34:36Z</time></trkpt><trkpt lat="42.68602897404688" lon="2.7799340073146053"><ele>64.0</ele><time>2026-03-28T12:34:37Z</time></trkpt><trkpt lat="42.68613256250173" lon="2.779793346150982"><ele>64.0</ele><time>2026-03-28T12:34:38Z</time></trkpt><trkpt lat="42.68620235579203" lon="2.7796058512431245"><ele>64.0</ele><time>2026-03-28T12:34:39Z</time></trkpt><trkpt lat="42.68624759097822" lon="2.7794555321347327"><ele>63.83333333333333</ele><time>2026-03-28T12:34:40Z</time></trkpt><trkpt lat="42.686289342405665" lon="2.7793135346144573"><ele>63.666666666666664</ele><time>2026-03-28T12:34:41Z</time></trkpt><trkpt lat="42.68633566131549" lon="2.779217143671198"><ele>63.5</ele><time>2026-03-28T12:34:42Z</time></trkpt><trkpt lat="42.68636467861634" lon="2.77912482891749"><ele>63.33333333333333</ele><time>2026-03-28T12:34:43Z</time></trkpt><trkpt lat="42.6863703894946" lon="2.779035596356055"><ele>63.166666666666664</ele><time>2026-03-28T12:34:44Z</time></trkpt><trkpt lat="42.68643366219643" lon="2.778964576454231"><ele>63.0</ele><time>2026-03-28T12:34:46Z</time></trkpt><trkpt lat="42.68650264781756" lon="2.778931172344505"><ele>63.0</ele><time>2026-03-28T12:34:47Z</time></trkpt><trkpt lat="42.686597795513634" lon="2.7789159926552034"><ele>63.0</ele><time>2026-03-28T12:34:48Z</time></trkpt><trkpt lat="42.68672581159165" lon="2.778874182619977"><ele>63.0</ele><time>2026-03-28T12:34:49Z</time></trkpt><trkpt lat="42.68684702912596" lon="2.7788125573332527"><ele>63.0</ele><time>2026-03-28T12:34:50Z</time></trkpt><trkpt lat="42.68693795371168" lon="2.778757311989612"><ele>62.5</ele><time>2026-03-28T12:34:51Z</time></trkpt><trkpt lat="42.68703226859996" lon="2.7787536926386487"><ele>62.0</ele><time>2026-03-28T12:34:52Z</time></trkpt><trkpt lat="42.687146343843914" lon="2.7787317750004408"><ele>61.5</ele><time>2026-03-28T12:34:53Z</time></trkpt><trkpt lat="42.68728347870825" lon="2.77874008191294"><ele>61.0</ele><time>2026-03-28T12:34:54Z</time></trkpt><trkpt lat="42.68740857515812" lon="2.7787327552444236"><ele>61.0</ele><time>2026-03-28T12:34:55Z</time></trkpt><trkpt lat="42.687535155760585" lon="2.778732108207207"><ele>61.0</ele><time>2026-03-28T12:34:56Z</time></trkpt><trkpt lat="42.687658294476364" lon="2.7787257654221404"><ele>61.0</ele><time>2026-03-28T12:34:57Z</time></trkpt><trkpt lat="42.68777924913547" lon="2.778722613091316"><ele>61.0</ele><time>2026-03-28T12:34:58Z</time></trkpt><trkpt lat="42.68788888534924" lon="2.7787208713703184"><ele>61.199999999999996</ele><time>2026-03-28T12:34:59Z</time></trkpt><trkpt lat="42.687982370053575" lon="2.778718731766569"><ele>61.39999999999999</ele><time>2026-03-28T12:35:00Z</time></trkpt><trkpt lat="42.688064540593324" lon="2.7787180759084635"><ele>61.6</ele><time>2026-03-28T12:35:01Z</time></trkpt><trkpt lat="42.68814641091987" lon="2.7787078675469554"><ele>61.8</ele><time>2026-03-28T12:35:02Z</time></trkpt><trkpt lat="42.68825507440306" lon="2.778717274333099"><ele>62.0</ele><time>2026-03-28T12:35:03Z</time></trkpt><trkpt lat="42.688370275337476" lon="2.7786250812159143"><ele>62.0</ele><time>2026-03-28T12:35:04Z</time></trkpt><trkpt lat="42.68845838890992" lon="2.7785956233369453"><ele>62.0</ele><time>2026-03-28T12:35:05Z</time></trkpt><trkpt lat="42.68856233972981" lon="2.778591887535606"><ele>62.0</ele><time>2026-03-28T12:35:06Z</time></trkpt><trkpt lat="42.688673538621615" lon="2.7786123482975746"><ele>62.0</ele><time>2026-03-28T12:35:07Z</time></trkpt><trkpt lat="42.68876830828152" lon="2.7786226408421597"><ele>62.0</ele><time>2026-03-28T12:35:08Z</time></trkpt><trkpt lat="42.68883905579841" lon="2.7786293024016913"><ele>62.0</ele><time>2026-03-28T12:35:09Z</time></trkpt><trkpt lat="42.68894112302279" lon="2.7785755712820306"><ele>62.0</ele><time>2026-03-28T12:35:11Z</time></trkpt><trkpt lat="42.68896897613852" lon="2.7784702447612935"><ele>62.0</ele><time>2026-03-28T12:35:12Z</time></trkpt><trkpt lat="42.68899896610847" lon="2.7783442886617977"><ele>62.0</ele><time>2026-03-28T12:35:13Z</time></trkpt><trkpt lat="42.68902155717343" lon="2.7781855596276923"><ele>62.0</ele><time>2026-03-28T12:35:14Z</time></trkpt><trkpt lat="42.68906302168284" lon="2.778019733167694"><ele>62.0</ele><time>2026-03-28T12:35:15Z</time></trkpt><trkpt lat="42.68908872614124" lon="2.777849414296284"><ele>62.0</ele><time>2026-03-28T12:35:15.999Z</time></trkpt><trkpt lat="42.689108787284994" lon="2.777711170851266"><ele>62.0</ele><time>2026-03-28T12:35:16.999Z</time></trkpt><trkpt lat="42.68910482499687" lon="2.777587819141526"><ele>62.0</ele><time>2026-03-28T12:35:17.999Z</time></trkpt><trkpt lat="42.68912203866794" lon="2.7774679459113685"><ele>62.0</ele><time>2026-03-28T12:35:18.999Z</time></trkpt><trkpt lat="42.68915865397553" lon="2.7773668840517907"><ele>62.0</ele><time>2026-03-28T12:35:19.999Z</time></trkpt><trkpt lat="42.68923893378876" lon="2.777285208286475"><ele>62.0</ele><time>2026-03-28T12:35:20.999Z</time></trkpt><trkpt lat="42.68936678900806" lon="2.777213999337451"><ele>62.0</ele><time>2026-03-28T12:35:21.999Z</time></trkpt><trkpt lat="42.689512167733234" lon="2.7771840285241023"><ele>62.0</ele><time>2026-03-28T12:35:22.999Z</time></trkpt><trkpt lat="42.68964212051118" lon="2.777183775982675"><ele>62.2</ele><time>2026-03-28T12:35:23.999Z</time></trkpt><trkpt lat="42.689731038288386" lon="2.7771789401733677"><ele>62.400000000000006</ele><time>2026-03-28T12:35:24.999Z</time></trkpt><trkpt lat="42.68979943701573" lon="2.7771583659531838"><ele>62.599999999999994</ele><time>2026-03-28T12:35:25.999Z</time></trkpt><trkpt lat="42.68987953075825" lon="2.777085951305989"><ele>62.8</ele><time>2026-03-28T12:35:26.999Z</time></trkpt><trkpt lat="42.68996413738691" lon="2.7769629292458236"><ele>63.0</ele><time>2026-03-28T12:35:27.999Z</time></trkpt><trkpt lat="42.690034059900796" lon="2.7768140641419756"><ele>63.0</ele><time>2026-03-28T12:35:28.999Z</time></trkpt><trkpt lat="42.69015420865357" lon="2.77666537030167"><ele>63.0</ele><time>2026-03-28T12:35:29.999Z</time></trkpt><trkpt lat="42.6902470929012" lon="2.7765338829029975"><ele>63.0</ele><time>2026-03-28T12:35:30.999Z</time></trkpt><trkpt lat="42.690312359558796" lon="2.7764267930574364"><ele>63.0</ele><time>2026-03-28T12:35:31.999Z</time></trkpt><trkpt lat="42.69040713196339" lon="2.7763754623691774"><ele>63.0</ele><time>2026-03-28T12:35:32.999Z</time></trkpt><trkpt lat="42.69051723018391" lon="2.7763096307829245"><ele>63.0</ele><time>2026-03-28T12:35:33.999Z</time></trkpt><trkpt lat="42.69064724240691" lon="2.7762509792538848"><ele>63.0</ele><time>2026-03-28T12:35:34.999Z</time></trkpt><trkpt lat="42.69079082269611" lon="2.7761865449852183"><ele>63.0</ele><time>2026-03-28T12:35:35.999Z</time></trkpt><trkpt lat="42.69095526700312" lon="2.776112294227232"><ele>63.0</ele><time>2026-03-28T12:35:36.999Z</time></trkpt><trkpt lat="42.69111173964235" lon="2.7760351790608597"><ele>63.0</ele><time>2026-03-28T12:35:37.999Z</time></trkpt><trkpt lat="42.691241470668345" lon="2.7759765623719055"><ele>63.0</ele><time>2026-03-28T12:35:38.999Z</time></trkpt><trkpt lat="42.691352202736375" lon="2.7759091343974838"><ele>63.0</ele><time>2026-03-28T12:35:39.999Z</time></trkpt><trkpt lat="42.691464782381885" lon="2.7758646498883355"><ele>63.5</ele><time>2026-03-28T12:35:40.999Z</time></trkpt><trkpt lat="42.69157057273522" lon="2.775803156085045"><ele>64.0</ele><time>2026-03-28T12:35:41.999Z</time></trkpt><trkpt lat="42.691688214348716" lon="2.775712054766067"><ele>64.5</ele><time>2026-03-28T12:35:42.999Z</time></trkpt><trkpt lat="42.69180379712203" lon="2.775593124278124"><ele>65.0</ele><time>2026-03-28T12:35:43.999Z</time></trkpt><trkpt lat="42.69189698083565" lon="2.775445336363885"><ele>65.0</ele><time>2026-03-28T12:35:44.999Z</time></trkpt><trkpt lat="42.69200288256499" lon="2.7753289897305917"><ele>65.0</ele><time>2026-03-28T12:35:45.999Z</time></trkpt><trkpt lat="42.6920993582087" lon="2.775211271345987"><ele>65.0</ele><time>2026-03-28T12:35:46.999Z</time></trkpt><trkpt lat="42.69219563427681" lon="2.7750940794913523"><ele>65.0</ele><time>2026-03-28T12:35:47.999Z</time></trkpt><trkpt lat="42.69227854336155" lon="2.774991708987734"><ele>65.0</ele><time>2026-03-28T12:35:48.999Z</time></trkpt><trkpt lat="42.69235276310268" lon="2.7748977672571797"><ele>65.0</ele><time>2026-03-28T12:35:49.999Z</time></trkpt><trkpt lat="42.692414914707214" lon="2.7748088997063927"><ele>65.0</ele><time>2026-03-28T12:35:50.999Z</time></trkpt><trkpt lat="42.69247481821963" lon="2.7747254458750543"><ele>65.0</ele><time>2026-03-28T12:35:51.999Z</time></trkpt><trkpt lat="42.69253879588301" lon="2.7746363162457715"><ele>65.0</ele><time>2026-03-28T12:35:53Z</time></trkpt><trkpt lat="42.692612464477115" lon="2.7745336858237346"><ele>65.0</ele><time>2026-03-28T12:35:54Z</time></trkpt><trkpt lat="42.69268620407295" lon="2.7744317696655463"><ele>65.0</ele><time>2026-03-28T12:35:55Z</time></trkpt><trkpt lat="42.692762883956" lon="2.774328233050134"><ele>65.0</ele><time>2026-03-28T12:35:56Z</time></trkpt><trkpt lat="42.69283095852612" lon="2.7742364332121747"><ele>65.0</ele><time>2026-03-28T12:35:57Z</time></trkpt><trkpt lat="42.69289778806473" lon="2.7741463861272733"><ele>65.0</ele><time>2026-03-28T12:35:58Z</time></trkpt><trkpt lat="42.69297012836852" lon="2.7740479924870143"><ele>65.4</ele><time>2026-03-28T12:35:59Z</time></trkpt><trkpt lat="42.693034051152765" lon="2.773935030449071"><ele>65.8</ele><time>2026-03-28T12:36:00Z</time></trkpt><trkpt lat="42.69312215525025" lon="2.773839884280932"><ele>66.2</ele><time>2026-03-28T12:36:01Z</time></trkpt><trkpt lat="42.69323037897255" lon="2.7737731051979284"><ele>66.6</ele><time>2026-03-28T12:36:02Z</time></trkpt><trkpt lat="42.693320266242864" lon="2.7737100271239123"><ele>67.0</ele><time>2026-03-28T12:36:03Z</time></trkpt><trkpt lat="42.69340206435627" lon="2.7736555343070766"><ele>67.0</ele><time>2026-03-28T12:36:04Z</time></trkpt><trkpt lat="42.6934735571108" lon="2.773606846784792"><ele>67.0</ele><time>2026-03-28T12:36:05Z</time></trkpt><trkpt lat="42.69353323941483" lon="2.7735330709384445"><ele>67.0</ele><time>2026-03-28T12:36:07Z</time></trkpt><trkpt lat="42.69350088821636" lon="2.7733669967058923"><ele>67.0</ele><time>2026-03-28T12:36:08Z</time></trkpt><trkpt lat="42.69349048826532" lon="2.7732366074714645"><ele>67.0</ele><time>2026-03-28T12:36:09Z</time></trkpt><trkpt lat="42.69349150496235" lon="2.7730331530690466"><ele>67.25</ele><time>2026-03-28T12:36:10Z</time></trkpt><trkpt lat="42.69349834460727" lon="2.77284709117031"><ele>67.5</ele><time>2026-03-28T12:36:11Z</time></trkpt><trkpt lat="42.693508960680546" lon="2.7726860343189204"><ele>67.75</ele><time>2026-03-28T12:36:12Z</time></trkpt><trkpt lat="42.69352611601782" lon="2.7724913395831043"><ele>68.0</ele><time>2026-03-28T12:36:13Z</time></trkpt><trkpt lat="42.693543203244374" lon="2.772325147258462"><ele>68.0</ele><time>2026-03-28T12:36:14Z</time></trkpt><trkpt lat="42.6935588045799" lon="2.7721804046880876"><ele>68.0</ele><time>2026-03-28T12:36:15Z</time></trkpt><trkpt lat="42.693572661555756" lon="2.772051140103925"><ele>68.0</ele><time>2026-03-28T12:36:16Z</time></trkpt><trkpt lat="42.69358958729408" lon="2.7718954447433695"><ele>68.0</ele><time>2026-03-28T12:36:17Z</time></trkpt><trkpt lat="42.69360785098153" lon="2.771730960473578"><ele>68.0</ele><time>2026-03-28T12:36:18Z</time></trkpt><trkpt lat="42.69362652975851" lon="2.7715627378930114"><ele>68.2</ele><time>2026-03-28T12:36:19Z</time></trkpt><trkpt lat="42.693647105893845" lon="2.771395300603239"><ele>68.4</ele><time>2026-03-28T12:36:20Z</time></trkpt><trkpt lat="42.693665384934825" lon="2.771252363728674"><ele>68.60000000000001</ele><time>2026-03-28T12:36:21Z</time></trkpt><trkpt lat="42.69367847890833" lon="2.771119013781491"><ele>68.8</ele><time>2026-03-28T12:36:22Z</time></trkpt><trkpt lat="42.69368947346745" lon="2.7710018293551824"><ele>69.0</ele><time>2026-03-28T12:36:23Z</time></trkpt><trkpt lat="42.69369875192002" lon="2.770902935640509"><ele>69.4</ele><time>2026-03-28T12:36:24Z</time></trkpt><trkpt lat="42.6937077977626" lon="2.7708060438452415"><ele>69.80000000000001</ele><time>2026-03-28T12:36:25Z</time></trkpt><trkpt lat="42.693733253210226" lon="2.7706390263472787"><ele>70.19999999999999</ele><time>2026-03-28T12:36:27Z</time></trkpt><trkpt lat="42.693778046265166" lon="2.770505458456918"><ele>70.6</ele><time>2026-03-28T12:36:29Z</time></trkpt><trkpt lat="42.69379833439174" lon="2.7703771621966253"><ele>71.0</ele><time>2026-03-28T12:36:31Z</time></trkpt><trkpt lat="42.69383915263566" lon="2.77028620453931"><ele>71.0</ele><time>2026-03-28T12:36:33Z</time></trkpt><trkpt lat="42.69387009767544" lon="2.770204046100809"><ele>71.0</ele><time>2026-03-28T12:36:35Z</time></trkpt><trkpt lat="42.69402300284924" lon="2.770311116459687"><ele>71.0</ele><time>2026-03-28T12:36:39Z</time></trkpt><trkpt lat="42.694090144067474" lon="2.770354854090827"><ele>71.0</ele><time>2026-03-28T12:36:40Z</time></trkpt><trkpt lat="42.69416454611386" lon="2.7703412595809267"><ele>71.0</ele><time>2026-03-28T12:36:41Z</time></trkpt><trkpt lat="42.69422988699089" lon="2.770324401418972"><ele>71.0</ele><time>2026-03-28T12:36:42Z</time></trkpt><trkpt lat="42.69430489711886" lon="2.770307015768304"><ele>71.0</ele><time>2026-03-28T12:36:43Z</time></trkpt><trkpt lat="42.694376396910066" lon="2.7702890093771417"><ele>71.0</ele><time>2026-03-28T12:36:44Z</time></trkpt><trkpt lat="42.69445729264655" lon="2.770268069201829"><ele>71.0</ele><time>2026-03-28T12:36:45Z</time></trkpt><trkpt lat="42.69453631333823" lon="2.7702360889339324"><ele>71.0</ele><time>2026-03-28T12:36:46Z</time></trkpt><trkpt lat="42.694605665757315" lon="2.7701860447156994"><ele>71.0</ele><time>2026-03-28T12:36:47Z</time></trkpt><trkpt lat="42.69466452412183" lon="2.7701212719332977"><ele>71.16666666666667</ele><time>2026-03-28T12:36:48Z</time></trkpt><trkpt lat="42.69471476658364" lon="2.770044846036399"><ele>71.33333333333334</ele><time>2026-03-28T12:36:49Z</time></trkpt><trkpt lat="42.69475485122908" lon="2.7699626618447026"><ele>71.5</ele><time>2026-03-28T12:36:50Z</time></trkpt><trkpt lat="42.69478146313528" lon="2.769873086494819"><ele>71.66666666666667</ele><time>2026-03-28T12:36:51Z</time></trkpt><trkpt lat="42.694799861249855" lon="2.769775142487774"><ele>71.83333333333333</ele><time>2026-03-28T12:36:52Z</time></trkpt><trkpt lat="42.69480847510191" lon="2.7696630839713645"><ele>72.0</ele><time>2026-03-28T12:36:53Z</time></trkpt><trkpt lat="42.694814763245795" lon="2.7695563155705"><ele>72.0</ele><time>2026-03-28T12:36:54Z</time></trkpt><trkpt lat="42.694811755029036" lon="2.76945171290689"><ele>72.0</ele><time>2026-03-28T12:36:55Z</time></trkpt><trkpt lat="42.694804189974505" lon="2.769345082817251"><ele>72.0</ele><time>2026-03-28T12:36:56Z</time></trkpt><trkpt lat="42.69479302720989" lon="2.769230669921818"><ele>72.0</ele><time>2026-03-28T12:36:57Z</time></trkpt><trkpt lat="42.694764646086696" lon="2.769110229986933"><ele>72.0</ele><time>2026-03-28T12:36:58Z</time></trkpt><trkpt lat="42.694729391040546" lon="2.769015507791934"><ele>72.0</ele><time>2026-03-28T12:36:59Z</time></trkpt><trkpt lat="42.6946815429929" lon="2.768886996294026"><ele>72.2</ele><time>2026-03-28T12:37:01Z</time></trkpt><trkpt lat="42.69476337203545" lon="2.7687649838230626"><ele>72.4</ele><time>2026-03-28T12:37:04Z</time></trkpt><trkpt lat="42.694850218369695" lon="2.76868862634012"><ele>72.6</ele><time>2026-03-28T12:37:05Z</time></trkpt><trkpt lat="42.694915077767476" lon="2.7686156513555846"><ele>72.8</ele><time>2026-03-28T12:37:06Z</time></trkpt><trkpt lat="42.6949788285259" lon="2.7684559873649643"><ele>73.0</ele><time>2026-03-28T12:37:08Z</time></trkpt><trkpt lat="42.69500354692503" lon="2.7683484172201083"><ele>73.0</ele><time>2026-03-28T12:37:09Z</time></trkpt><trkpt lat="42.695019269648704" lon="2.7682457793980784"><ele>73.0</ele><time>2026-03-28T12:37:10Z</time></trkpt><trkpt lat="42.695022791761765" lon="2.768141426963269"><ele>73.0</ele><time>2026-03-28T12:37:11Z</time></trkpt><trkpt lat="42.695033067662116" lon="2.7680455419223895"><ele>73.0</ele><time>2026-03-28T12:37:12Z</time></trkpt><trkpt lat="42.69504196731312" lon="2.7679440409905385"><ele>73.0</ele><time>2026-03-28T12:37:13Z</time></trkpt><trkpt lat="42.69506135121852" lon="2.7678367830687574"><ele>73.0</ele><time>2026-03-28T12:37:13.999Z</time></trkpt><trkpt lat="42.69510009628547" lon="2.7677215091064347"><ele>73.0</ele><time>2026-03-28T12:37:14.999Z</time></trkpt><trkpt lat="42.69514736686806" lon="2.767597210796942"><ele>73.0</ele><time>2026-03-28T12:37:15.999Z</time></trkpt><trkpt lat="42.69519004115463" lon="2.7674676329436294"><ele>73.0</ele><time>2026-03-28T12:37:16.999Z</time></trkpt><trkpt lat="42.69520600509336" lon="2.767355347871796"><ele>73.0</ele><time>2026-03-28T12:37:17.999Z</time></trkpt><trkpt lat="42.69523889473019" lon="2.767271440954334"><ele>73.0</ele><time>2026-03-28T12:37:18.999Z</time></trkpt><trkpt lat="42.69525157485062" lon="2.7671687518026444"><ele>73.0</ele><time>2026-03-28T12:37:20.999Z</time></trkpt><trkpt lat="42.69530434670709" lon="2.7670460494636266"><ele>73.0</ele><time>2026-03-28T12:37:24.999Z</time></trkpt><trkpt lat="42.69527525548421" lon="2.7668990735082724"><ele>73.0</ele><time>2026-03-28T12:37:25.999Z</time></trkpt><trkpt lat="42.69528044763572" lon="2.7667570495114933"><ele>73.0</ele><time>2026-03-28T12:37:26.999Z</time></trkpt><trkpt lat="42.695290284410945" lon="2.766620190831095"><ele>73.0</ele><time>2026-03-28T12:37:27.999Z</time></trkpt><trkpt lat="42.69530223926259" lon="2.7664683153244476"><ele>73.0</ele><time>2026-03-28T12:37:28.999Z</time></trkpt><trkpt lat="42.69531472857647" lon="2.7663073500385127"><ele>73.0</ele><time>2026-03-28T12:37:29.999Z</time></trkpt><trkpt lat="42.69533045653141" lon="2.766140987150967"><ele>73.0</ele><time>2026-03-28T12:37:30.999Z</time></trkpt><trkpt lat="42.69534275944091" lon="2.7659855120394674"><ele>73.0</ele><time>2026-03-28T12:37:31.999Z</time></trkpt><trkpt lat="42.69535548266432" lon="2.7658374618424957"><ele>73.0</ele><time>2026-03-28T12:37:32.999Z</time></trkpt><trkpt lat="42.69536916849521" lon="2.7656862699632696"><ele>73.0</ele><time>2026-03-28T12:37:33.999Z</time></trkpt><trkpt lat="42.69538341268871" lon="2.7655358050504444"><ele>73.0</ele><time>2026-03-28T12:37:34.999Z</time></trkpt><trkpt lat="42.69539911713747" lon="2.7654005447444825"><ele>73.0</ele><time>2026-03-28T12:37:35.999Z</time></trkpt><trkpt lat="42.695418283458224" lon="2.7652833253272613"><ele>73.0</ele><time>2026-03-28T12:37:36.999Z</time></trkpt><trkpt lat="42.695457457776" lon="2.765166366471167"><ele>73.0</ele><time>2026-03-28T12:37:37.999Z</time></trkpt><trkpt lat="42.695516447114606" lon="2.76505795001562"><ele>73.0</ele><time>2026-03-28T12:37:38.999Z</time></trkpt><trkpt lat="42.695574974370885" lon="2.7649484579648824"><ele>73.0</ele><time>2026-03-28T12:37:39.999Z</time></trkpt><trkpt lat="42.69560725550288" lon="2.76480920472465"><ele>73.0</ele><time>2026-03-28T12:37:40.999Z</time></trkpt><trkpt lat="42.695587308008264" lon="2.7646496406316654"><ele>73.0</ele><time>2026-03-28T12:37:41.999Z</time></trkpt><trkpt lat="42.695559717922634" lon="2.764489388457001"><ele>73.0</ele><time>2026-03-28T12:37:42.999Z</time></trkpt><trkpt lat="42.69555813699277" lon="2.7643266786778184"><ele>72.75</ele><time>2026-03-28T12:37:43.999Z</time></trkpt><trkpt lat="42.695577755412494" lon="2.764162165316822"><ele>72.5</ele><time>2026-03-28T12:37:44.999Z</time></trkpt><trkpt lat="42.695597287289836" lon="2.7639931491024545"><ele>72.25</ele><time>2026-03-28T12:37:45.999Z</time></trkpt><trkpt lat="42.695616483771275" lon="2.763810760198306"><ele>72.0</ele><time>2026-03-28T12:37:46.999Z</time></trkpt><trkpt lat="42.69564343390625" lon="2.7635635194324877"><ele>72.0</ele><time>2026-03-28T12:37:47.999Z</time></trkpt><trkpt lat="42.695656354422205" lon="2.7633369036458677"><ele>72.0</ele><time>2026-03-28T12:37:48.999Z</time></trkpt><trkpt lat="42.69568544750727" lon="2.763083148715606"><ele>72.0</ele><time>2026-03-28T12:37:49.999Z</time></trkpt><trkpt lat="42.69570319722262" lon="2.762828561138449"><ele>72.0</ele><time>2026-03-28T12:37:50.999Z</time></trkpt><trkpt lat="42.695727164450695" lon="2.7625948941601752"><ele>72.0</ele><time>2026-03-28T12:37:51.999Z</time></trkpt><trkpt lat="42.69574609833438" lon="2.7623629887360357"><ele>72.0</ele><time>2026-03-28T12:37:52.999Z</time></trkpt><trkpt lat="42.6957685772292" lon="2.7621287424809533"><ele>72.0</ele><time>2026-03-28T12:37:53.999Z</time></trkpt><trkpt lat="42.69578801619368" lon="2.761902528264291"><ele>72.0</ele><time>2026-03-28T12:37:54.999Z</time></trkpt><trkpt lat="42.69580798322827" lon="2.761679773536327"><ele>72.0</ele><time>2026-03-28T12:37:55.999Z</time></trkpt><trkpt lat="42.69582669016428" lon="2.761464517189415"><ele>72.66666666666667</ele><time>2026-03-28T12:37:56.999Z</time></trkpt><trkpt lat="42.69584384798755" lon="2.7612553750207876"><ele>73.33333333333334</ele><time>2026-03-28T12:37:57.999Z</time></trkpt><trkpt lat="42.69586272050414" lon="2.7610406017566076"><ele>74.0</ele><time>2026-03-28T12:37:59Z</time></trkpt><trkpt lat="42.6958787846424" lon="2.7608358462637503"><ele>74.25</ele><time>2026-03-28T12:38:00Z</time></trkpt><trkpt lat="42.695896210584166" lon="2.7606493502000626"><ele>74.5</ele><time>2026-03-28T12:38:01Z</time></trkpt><trkpt lat="42.695910540201915" lon="2.7604725275702062"><ele>74.75</ele><time>2026-03-28T12:38:02Z</time></trkpt><trkpt lat="42.69592672986214" lon="2.76030065410213"><ele>75.0</ele><time>2026-03-28T12:38:03Z</time></trkpt><trkpt lat="42.695948618630794" lon="2.7601448628934886"><ele>74.8</ele><time>2026-03-28T12:38:04Z</time></trkpt><trkpt lat="42.69598375895675" lon="2.7600034799195496"><ele>74.6</ele><time>2026-03-28T12:38:05Z</time></trkpt><trkpt lat="42.69604315261015" lon="2.7598995775893505"><ele>74.4</ele><time>2026-03-28T12:38:06Z</time></trkpt><trkpt lat="42.69610476303079" lon="2.759814113800162"><ele>74.2</ele><time>2026-03-28T12:38:07Z</time></trkpt><trkpt lat="42.696132981253946" lon="2.759698065577064"><ele>74.0</ele><time>2026-03-28T12:38:08Z</time></trkpt><trkpt lat="42.69612845860228" lon="2.75949198673162"><ele>74.0</ele><time>2026-03-28T12:38:09Z</time></trkpt><trkpt lat="42.69612942356259" lon="2.759261435544429"><ele>74.0</ele><time>2026-03-28T12:38:10Z</time></trkpt><trkpt lat="42.696127009135196" lon="2.7590460011187017"><ele>74.0</ele><time>2026-03-28T12:38:11Z</time></trkpt><trkpt lat="42.69613900638818" lon="2.758848041367469"><ele>74.0</ele><time>2026-03-28T12:38:12Z</time></trkpt><trkpt lat="42.69613942242253" lon="2.758666141396629"><ele>74.0</ele><time>2026-03-28T12:38:13Z</time></trkpt><trkpt lat="42.69616236272691" lon="2.7585090769507308"><ele>74.0</ele><time>2026-03-28T12:38:14Z</time></trkpt><trkpt lat="42.69618876384165" lon="2.7583712955248294"><ele>74.0</ele><time>2026-03-28T12:38:15Z</time></trkpt><trkpt lat="42.69624738885194" lon="2.758267603192891"><ele>74.16666666666667</ele><time>2026-03-28T12:38:16Z</time></trkpt><trkpt lat="42.69629324566479" lon="2.758175306713996"><ele>74.33333333333334</ele><time>2026-03-28T12:38:17Z</time></trkpt><trkpt lat="42.69632474690271" lon="2.7580999688985295"><ele>74.5</ele><time>2026-03-28T12:38:18Z</time></trkpt><trkpt lat="42.69635474627089" lon="2.758001175376427"><ele>74.66666666666667</ele><time>2026-03-28T12:38:20Z</time></trkpt><trkpt lat="42.69636301442386" lon="2.7578996596979586"><ele>74.83333333333333</ele><time>2026-03-28T12:38:21Z</time></trkpt><trkpt lat="42.696309722765825" lon="2.7577498627178727"><ele>75.0</ele><time>2026-03-28T12:38:22Z</time></trkpt><trkpt lat="42.69627389817323" lon="2.7576117103599813"><ele>75.25</ele><time>2026-03-28T12:38:23Z</time></trkpt><trkpt lat="42.69623559944747" lon="2.7574549338161094"><ele>75.5</ele><time>2026-03-28T12:38:24Z</time></trkpt><trkpt lat="42.69619984101517" lon="2.7572578031508446"><ele>75.75</ele><time>2026-03-28T12:38:25Z</time></trkpt><trkpt lat="42.696214361992595" lon="2.757105080134767"><ele>76.0</ele><time>2026-03-28T12:38:26Z</time></trkpt><trkpt lat="42.696210087872885" lon="2.7569971043970596"><ele>76.0</ele><time>2026-03-28T12:38:27Z</time></trkpt><trkpt lat="42.69621031802725" lon="2.756880305477121"><ele>76.0</ele><time>2026-03-28T12:38:28Z</time></trkpt><trkpt lat="42.696205181979806" lon="2.7566949518153367"><ele>76.0</ele><time>2026-03-28T12:38:29Z</time></trkpt><trkpt lat="42.69621832794562" lon="2.7564339128565276"><ele>76.0</ele><time>2026-03-28T12:38:30Z</time></trkpt><trkpt lat="42.69622450828066" lon="2.7561602158397123"><ele>76.0</ele><time>2026-03-28T12:38:31Z</time></trkpt><trkpt lat="42.69622864023852" lon="2.755980022911169"><ele>76.0</ele><time>2026-03-28T12:38:32Z</time></trkpt><trkpt lat="42.69623232166914" lon="2.7558194773461664"><ele>76.0</ele><time>2026-03-28T12:38:33Z</time></trkpt><trkpt lat="42.69623552964068" lon="2.7556795787445845"><ele>76.0</ele><time>2026-03-28T12:38:34Z</time></trkpt><trkpt lat="42.69623843945564" lon="2.755552682875036"><ele>76.0</ele><time>2026-03-28T12:38:35Z</time></trkpt><trkpt lat="42.69624097961671" lon="2.755451769809546"><ele>76.0</ele><time>2026-03-28T12:38:36Z</time></trkpt><trkpt lat="42.69624386919385" lon="2.7553379606839425"><ele>76.0</ele><time>2026-03-28T12:38:37Z</time></trkpt><trkpt lat="42.696246685954236" lon="2.755227019446177"><ele>76.0</ele><time>2026-03-28T12:38:38Z</time></trkpt><trkpt lat="42.69625030938646" lon="2.7550843067761903"><ele>76.0</ele><time>2026-03-28T12:38:39Z</time></trkpt><trkpt lat="42.69625581373043" lon="2.7548780453110298"><ele>76.0</ele><time>2026-03-28T12:38:40Z</time></trkpt><trkpt lat="42.696261062747475" lon="2.754711589146375"><ele>76.5</ele><time>2026-03-28T12:38:41Z</time></trkpt><trkpt lat="42.69626641428916" lon="2.7545432756197634"><ele>77.0</ele><time>2026-03-28T12:38:42Z</time></trkpt><trkpt lat="42.696273828110336" lon="2.7543652903211706"><ele>77.5</ele><time>2026-03-28T12:38:43Z</time></trkpt><trkpt lat="42.696281262560554" lon="2.7541742954509183"><ele>78.0</ele><time>2026-03-28T12:38:44Z</time></trkpt><trkpt lat="42.69628793381755" lon="2.753915184301192"><ele>78.0</ele><time>2026-03-28T12:38:45Z</time></trkpt><trkpt lat="42.69629378924941" lon="2.7536189889075233"><ele>78.0</ele><time>2026-03-28T12:38:46Z</time></trkpt><trkpt lat="42.69629852990088" lon="2.7533791839091584"><ele>78.0</ele><time>2026-03-28T12:38:47Z</time></trkpt><trkpt lat="42.69630273955327" lon="2.753166239987578"><ele>78.33333333333333</ele><time>2026-03-28T12:38:48Z</time></trkpt><trkpt lat="42.696307174607654" lon="2.7529418938197208"><ele>78.66666666666666</ele><time>2026-03-28T12:38:49Z</time></trkpt><trkpt lat="42.696296336959506" lon="2.7527274126743686"><ele>79.0</ele><time>2026-03-28T12:38:50Z</time></trkpt><trkpt lat="42.696318201697565" lon="2.7525233148802895"><ele>79.0</ele><time>2026-03-28T12:38:51Z</time></trkpt><trkpt lat="42.696323954081564" lon="2.752325923281413"><ele>79.0</ele><time>2026-03-28T12:38:52Z</time></trkpt><trkpt lat="42.696329458964314" lon="2.752136059477483"><ele>79.0</ele><time>2026-03-28T12:38:53Z</time></trkpt><trkpt lat="42.69633409418662" lon="2.751938411459671"><ele>79.0</ele><time>2026-03-28T12:38:54Z</time></trkpt><trkpt lat="42.69633845690493" lon="2.7517457579593545"><ele>79.0</ele><time>2026-03-28T12:38:55Z</time></trkpt><trkpt lat="42.69633928543417" lon="2.7515654012463706"><ele>79.0</ele><time>2026-03-28T12:38:56Z</time></trkpt><trkpt lat="42.6963317847644" lon="2.7513850487777853"><ele>79.0</ele><time>2026-03-28T12:38:57Z</time></trkpt><trkpt lat="42.696317692646716" lon="2.751213230558119"><ele>79.0</ele><time>2026-03-28T12:38:58Z</time></trkpt><trkpt lat="42.69629734537343" lon="2.7510359286298764"><ele>79.0</ele><time>2026-03-28T12:38:59Z</time></trkpt><trkpt lat="42.69627490213205" lon="2.7508570983806075"><ele>79.0</ele><time>2026-03-28T12:39:00Z</time></trkpt><trkpt lat="42.69625585417736" lon="2.7506726746670913"><ele>79.0</ele><time>2026-03-28T12:39:01Z</time></trkpt><trkpt lat="42.696237878618014" lon="2.75045775142106"><ele>79.0</ele><time>2026-03-28T12:39:02Z</time></trkpt><trkpt lat="42.69621930201262" lon="2.750234534860736"><ele>79.0</ele><time>2026-03-28T12:39:03Z</time></trkpt><trkpt lat="42.69620925982167" lon="2.7500695577239176"><ele>79.0</ele><time>2026-03-28T12:39:04Z</time></trkpt><trkpt lat="42.69616835676397" lon="2.7499211164834367"><ele>79.0</ele><time>2026-03-28T12:39:05Z</time></trkpt><trkpt lat="42.696159259264306" lon="2.749794972111433"><ele>79.0</ele><time>2026-03-28T12:39:06Z</time></trkpt><trkpt lat="42.69614581086499" lon="2.7496997325459978"><ele>79.0</ele><time>2026-03-28T12:39:07Z</time></trkpt><trkpt lat="42.6961504954626" lon="2.749591587735765"><ele>79.0</ele><time>2026-03-28T12:39:09Z</time></trkpt><trkpt lat="42.69625751101633" lon="2.749570816560265"><ele>79.0</ele><time>2026-03-28T12:39:11Z</time></trkpt><trkpt lat="42.69633790711222" lon="2.7495509861922773"><ele>79.0</ele><time>2026-03-28T12:39:12Z</time></trkpt><trkpt lat="42.69642783255524" lon="2.7495055073423096"><ele>79.0</ele><time>2026-03-28T12:39:13Z</time></trkpt><trkpt lat="42.6965133305769" lon="2.7494581801377036"><ele>79.0</ele><time>2026-03-28T12:39:14Z</time></trkpt><trkpt lat="42.69658759384754" lon="2.74941270898332"><ele>79.0</ele><time>2026-03-28T12:39:15Z</time></trkpt><trkpt lat="42.69666760495831" lon="2.749363936966616"><ele>79.0</ele><time>2026-03-28T12:39:15.999Z</time></trkpt><trkpt lat="42.69680994148527" lon="2.749284125982865"><ele>79.0</ele><time>2026-03-28T12:39:16.999Z</time></trkpt><trkpt lat="42.69697506753836" lon="2.749197240860763"><ele>79.0</ele><time>2026-03-28T12:39:17.999Z</time></trkpt><trkpt lat="42.697093814438425" lon="2.7491225207252543"><ele>79.0</ele><time>2026-03-28T12:39:18.999Z</time></trkpt><trkpt lat="42.69721947566593" lon="2.749045536957774"><ele>79.0</ele><time>2026-03-28T12:39:19.999Z</time></trkpt><trkpt lat="42.69736457719068" lon="2.7489612110870087"><ele>79.0</ele><time>2026-03-28T12:39:20.999Z</time></trkpt><trkpt lat="42.69748630059426" lon="2.7488848053610035"><ele>79.0</ele><time>2026-03-28T12:39:21.999Z</time></trkpt><trkpt lat="42.697592332140914" lon="2.748817944692905"><ele>79.0</ele><time>2026-03-28T12:39:22.999Z</time></trkpt><trkpt lat="42.69768368774895" lon="2.748755551638504"><ele>79.0</ele><time>2026-03-28T12:39:23.999Z</time></trkpt><trkpt lat="42.697776336961965" lon="2.7487056921597235"><ele>79.0</ele><time>2026-03-28T12:39:24.999Z</time></trkpt><trkpt lat="42.6978529199995" lon="2.748662016833247"><ele>79.0</ele><time>2026-03-28T12:39:25.999Z</time></trkpt><trkpt lat="42.69792302868596" lon="2.7486296091008575"><ele>79.0</ele><time>2026-03-28T12:39:26.999Z</time></trkpt><trkpt lat="42.69798265238592" lon="2.7485877891774426"><ele>79.0</ele><time>2026-03-28T12:39:27.999Z</time></trkpt><trkpt lat="42.698039179066406" lon="2.748528831003919"><ele>79.0</ele><time>2026-03-28T12:39:28.999Z</time></trkpt><trkpt lat="42.69808251552579" lon="2.7484420528251934"><ele>79.0</ele><time>2026-03-28T12:39:29.999Z</time></trkpt><trkpt lat="42.698097464232305" lon="2.748340977155218"><ele>79.0</ele><time>2026-03-28T12:39:30.999Z</time></trkpt><trkpt lat="42.69810226117602" lon="2.7482153314727715"><ele>79.0</ele><time>2026-03-28T12:39:31.999Z</time></trkpt><trkpt lat="42.698113677090284" lon="2.7480576340810488"><ele>79.0</ele><time>2026-03-28T12:39:32.999Z</time></trkpt><trkpt lat="42.69810867448284" lon="2.7478805110587956"><ele>79.25</ele><time>2026-03-28T12:39:33.999Z</time></trkpt><trkpt lat="42.69810372787844" lon="2.7477053711641446"><ele>79.5</ele><time>2026-03-28T12:39:34.999Z</time></trkpt><trkpt lat="42.69809861416248" lon="2.7475243144829986"><ele>79.75</ele><time>2026-03-28T12:39:35.999Z</time></trkpt><trkpt lat="42.69809436380167" lon="2.7473467882577096"><ele>80.0</ele><time>2026-03-28T12:39:36.999Z</time></trkpt><trkpt lat="42.69807644929826" lon="2.7472021724262405"><ele>80.0</ele><time>2026-03-28T12:39:37.999Z</time></trkpt><trkpt lat="42.69807945759795" lon="2.747064056762969"><ele>80.0</ele><time>2026-03-28T12:39:38.999Z</time></trkpt><trkpt lat="42.6981052619292" lon="2.746930628889072"><ele>80.0</ele><time>2026-03-28T12:39:39.999Z</time></trkpt><trkpt lat="42.698106121485026" lon="2.7467912563388417"><ele>80.0</ele><time>2026-03-28T12:39:40.999Z</time></trkpt><trkpt lat="42.69812924918179" lon="2.7466475121261698"><ele>80.0</ele><time>2026-03-28T12:39:41.999Z</time></trkpt><trkpt lat="42.69815498388222" lon="2.746498771156117"><ele>80.0</ele><time>2026-03-28T12:39:42.999Z</time></trkpt><trkpt lat="42.69818181002408" lon="2.7463373830485356"><ele>80.0</ele><time>2026-03-28T12:39:43.999Z</time></trkpt><trkpt lat="42.69820773015343" lon="2.7461749998937224"><ele>80.0</ele><time>2026-03-28T12:39:44.999Z</time></trkpt><trkpt lat="42.69825224339818" lon="2.7460063550695866"><ele>80.0</ele><time>2026-03-28T12:39:45.999Z</time></trkpt><trkpt lat="42.69828110639159" lon="2.7458319833397136"><ele>80.0</ele><time>2026-03-28T12:39:46.999Z</time></trkpt><trkpt lat="42.698296390887876" lon="2.745648013285239"><ele>80.0</ele><time>2026-03-28T12:39:47.999Z</time></trkpt><trkpt lat="42.698346485311646" lon="2.7454766890650637"><ele>80.0</ele><time>2026-03-28T12:39:48.999Z</time></trkpt><trkpt lat="42.69842033806136" lon="2.745320402754446"><ele>80.0</ele><time>2026-03-28T12:39:49.999Z</time></trkpt><trkpt lat="42.698485113743054" lon="2.7451456414139153"><ele>80.0</ele><time>2026-03-28T12:39:50.999Z</time></trkpt><trkpt lat="42.69857500825492" lon="2.744989162298432"><ele>80.0</ele><time>2026-03-28T12:39:51.999Z</time></trkpt><trkpt lat="42.69867046045776" lon="2.7448313913055116"><ele>80.0</ele><time>2026-03-28T12:39:52.999Z</time></trkpt><trkpt lat="42.69876705712664" lon="2.744678370584754"><ele>80.0</ele><time>2026-03-28T12:39:53.999Z</time></trkpt><trkpt lat="42.698874560445454" lon="2.744502524329075"><ele>80.66666666666667</ele><time>2026-03-28T12:39:54.999Z</time></trkpt><trkpt lat="42.6989772317243" lon="2.74433590515437"><ele>81.33333333333333</ele><time>2026-03-28T12:39:55.999Z</time></trkpt><trkpt lat="42.69907744006602" lon="2.7441714212642196"><ele>82.0</ele><time>2026-03-28T12:39:56.999Z</time></trkpt><trkpt lat="42.699178162917335" lon="2.7440024741752502"><ele>82.0</ele><time>2026-03-28T12:39:57.999Z</time></trkpt><trkpt lat="42.69926943609588" lon="2.7438560299182897"><ele>82.0</ele><time>2026-03-28T12:39:58.999Z</time></trkpt><trkpt lat="42.699344587342736" lon="2.743732111356849"><ele>82.0</ele><time>2026-03-28T12:39:59.999Z</time></trkpt><trkpt lat="42.69940528916266" lon="2.7436121353308045"><ele>82.0</ele><time>2026-03-28T12:40:00.999Z</time></trkpt><trkpt lat="42.699444913935935" lon="2.7434986779769335"><ele>82.0</ele><time>2026-03-28T12:40:01.999Z</time></trkpt><trkpt lat="42.699476175073364" lon="2.7434025304287717"><ele>82.0</ele><time>2026-03-28T12:40:02.999Z</time></trkpt><trkpt lat="42.69949148504866" lon="2.74330074712313"><ele>82.0</ele><time>2026-03-28T12:40:04Z</time></trkpt><trkpt lat="42.69949977287918" lon="2.7432115811120843"><ele>82.0</ele><time>2026-03-28T12:40:05Z</time></trkpt><trkpt lat="42.699508932717535" lon="2.7431124192066934"><ele>82.0</ele><time>2026-03-28T12:40:07Z</time></trkpt><trkpt lat="42.699526642341965" lon="2.7429778316725524"><ele>82.0</ele><time>2026-03-28T12:41:02Z</time></trkpt><trkpt lat="42.69954112989672" lon="2.742826243606585"><ele>82.0</ele><time>2026-03-28T12:41:04Z</time></trkpt><trkpt lat="42.69954421359833" lon="2.7427384247845716"><ele>82.0</ele><time>2026-03-28T12:41:05Z</time></trkpt><trkpt lat="42.6995316037813" lon="2.742622732897891"><ele>82.0</ele><time>2026-03-28T12:41:06Z</time></trkpt><trkpt lat="42.69953808040747" lon="2.7424382887836694"><ele>82.0</ele><time>2026-03-28T12:41:07Z</time></trkpt><trkpt lat="42.69954107761818" lon="2.74234859950609"><ele>82.0</ele><time>2026-03-28T12:41:08Z</time></trkpt><trkpt lat="42.69942430117753" lon="2.742251527798769"><ele>82.0</ele><time>2026-03-28T12:41:10Z</time></trkpt><trkpt lat="42.69937086175019" lon="2.7421448611651846"><ele>82.0</ele><time>2026-03-28T12:41:11Z</time></trkpt><trkpt lat="42.699282602175096" lon="2.741959040442504"><ele>82.0</ele><time>2026-03-28T12:41:12Z</time></trkpt><trkpt lat="42.69920898487128" lon="2.7418260059666824"><ele>82.0</ele><time>2026-03-28T12:41:13Z</time></trkpt><trkpt lat="42.69918709558699" lon="2.741696701694828"><ele>82.0</ele><time>2026-03-28T12:41:14Z</time></trkpt><trkpt lat="42.69914957513808" lon="2.741599923876367"><ele>82.0</ele><time>2026-03-28T12:41:15Z</time></trkpt><trkpt lat="42.69912158954406" lon="2.7415188817370764"><ele>82.0</ele><time>2026-03-28T12:41:16Z</time></trkpt><trkpt lat="42.6990955555958" lon="2.741435145388645"><ele>82.0</ele><time>2026-03-28T12:41:17Z</time></trkpt><trkpt lat="42.69905896723208" lon="2.741316532727419"><ele>82.0</ele><time>2026-03-28T12:41:17.999Z</time></trkpt><trkpt lat="42.699014774241846" lon="2.7411818775008356"><ele>82.0</ele><time>2026-03-28T12:41:18.999Z</time></trkpt><trkpt lat="42.69897593630639" lon="2.74108064744031"><ele>82.39999999999999</ele><time>2026-03-28T12:41:19.999Z</time></trkpt><trkpt lat="42.69890991310786" lon="2.7409119853234745"><ele>82.8</ele><time>2026-03-28T12:41:20.999Z</time></trkpt><trkpt lat="42.698860152071866" lon="2.7407884153120916"><ele>83.2</ele><time>2026-03-28T12:41:21.999Z</time></trkpt><trkpt lat="42.69882930798953" lon="2.740712838998595"><ele>83.6</ele><time>2026-03-28T12:41:22.999Z</time></trkpt><trkpt lat="42.69877366183894" lon="2.740579129956545"><ele>84.0</ele><time>2026-03-28T12:41:24.999Z</time></trkpt><trkpt lat="42.698722102852265" lon="2.7404571494178236"><ele>84.0</ele><time>2026-03-28T12:41:25.999Z</time></trkpt><trkpt lat="42.69868281303524" lon="2.7403680198525087"><ele>84.0</ele><time>2026-03-28T12:41:26.999Z</time></trkpt><trkpt lat="42.69864283151168" lon="2.7402928311074186"><ele>84.0</ele><time>2026-03-28T12:41:29.999Z</time></trkpt><trkpt lat="42.698599054839725" lon="2.7402225427203266"><ele>84.0</ele><time>2026-03-28T12:41:30.999Z</time></trkpt><trkpt lat="42.69855875962382" lon="2.740140924738174"><ele>84.0</ele><time>2026-03-28T12:41:31.999Z</time></trkpt><trkpt lat="42.698492145926664" lon="2.739969579219938"><ele>84.0</ele><time>2026-03-28T12:41:32.999Z</time></trkpt><trkpt lat="42.69843758007785" lon="2.7397526155051266"><ele>83.80000000000001</ele><time>2026-03-28T12:41:33.999Z</time></trkpt><trkpt lat="42.69840379051812" lon="2.739624569556889"><ele>83.60000000000001</ele><time>2026-03-28T12:41:34.999Z</time></trkpt><trkpt lat="42.69836451176843" lon="2.7395136903904023"><ele>83.4</ele><time>2026-03-28T12:41:35.999Z</time></trkpt><trkpt lat="42.69834475002746" lon="2.7394009914110904"><ele>83.2</ele><time>2026-03-28T12:41:36.999Z</time></trkpt><trkpt lat="42.69832433821047" lon="2.739294011392942"><ele>83.0</ele><time>2026-03-28T12:41:37.999Z</time></trkpt><trkpt lat="42.69828747921296" lon="2.7390477111227445"><ele>83.0</ele><time>2026-03-28T12:41:39.999Z</time></trkpt><trkpt lat="42.69828007779985" lon="2.738918347526255"><ele>83.0</ele><time>2026-03-28T12:41:40.999Z</time></trkpt><trkpt lat="42.69826531127655" lon="2.7388269955923894"><ele>83.0</ele><time>2026-03-28T12:41:41.999Z</time></trkpt><trkpt lat="42.69825013967443" lon="2.7387410089343045"><ele>83.0</ele><time>2026-03-28T12:41:42.999Z</time></trkpt><trkpt lat="42.69823231605862" lon="2.7386399914190513"><ele>83.0</ele><time>2026-03-28T12:41:43.999Z</time></trkpt><trkpt lat="42.698207202877164" lon="2.7385350216817628"><ele>83.0</ele><time>2026-03-28T12:41:44.999Z</time></trkpt><trkpt lat="42.698161770439036" lon="2.738444864201751"><ele>83.0</ele><time>2026-03-28T12:41:45.999Z</time></trkpt><trkpt lat="42.698134813080046" lon="2.738335637069074"><ele>83.0</ele><time>2026-03-28T12:41:46.999Z</time></trkpt><trkpt lat="42.69810542159159" lon="2.7382251896915544"><ele>83.0</ele><time>2026-03-28T12:41:47.999Z</time></trkpt><trkpt lat="42.69809515059088" lon="2.7381378994518477"><ele>83.0</ele><time>2026-03-28T12:41:48.999Z</time></trkpt><trkpt lat="42.69811021155534" lon="2.73801404658706"><ele>83.0</ele><time>2026-03-28T12:41:50.999Z</time></trkpt><trkpt lat="42.69811989529074" lon="2.7379273531403814"><ele>83.0</ele><time>2026-03-28T12:41:52.999Z</time></trkpt><trkpt lat="42.698131181973146" lon="2.7377896050574964"><ele>83.25</ele><time>2026-03-28T12:41:54.999Z</time></trkpt><trkpt lat="42.698172368463105" lon="2.7376317462559943"><ele>83.5</ele><time>2026-03-28T12:41:55.999Z</time></trkpt><trkpt lat="42.698232558499356" lon="2.7374548419362608"><ele>83.75</ele><time>2026-03-28T12:41:56.999Z</time></trkpt><trkpt lat="42.69825333234207" lon="2.73731260483713"><ele>84.0</ele><time>2026-03-28T12:41:57.999Z</time></trkpt><trkpt lat="42.69816160345024" lon="2.7372247003298904"><ele>84.0</ele><time>2026-03-28T12:42:01.999Z</time></trkpt><trkpt lat="42.69801542137133" lon="2.737153170010026"><ele>84.0</ele><time>2026-03-28T12:42:03.999Z</time></trkpt><trkpt lat="42.69793352941743" lon="2.7371328741382506"><ele>84.0</ele><time>2026-03-28T12:42:04.999Z</time></trkpt><trkpt lat="42.69763166853888" lon="2.7370919611660987"><ele>81.0</ele><time>2026-03-28T12:42:08.999Z</time></trkpt><trkpt lat="42.69802493798631" lon="2.7372132008627874"><ele>84.0</ele><time>2026-03-28T12:42:11Z</time></trkpt></trkseg></trk></gpx>